[[{"header":{"parameterUnit":"m.s-1","parameterCategory":1,"la1":31.0,"la2":29.5877,"lo1":-88.7671,"lo2":-86.6584,"dy":0.0162,"dx":0.0185,"nx":115,"ny":88,"refTime":"2024-03-07T18:00:00:Z","depth":0,"parameterNumber":2,"parameterNumberName":"U-component_of_WINDS"},"data":[0.0,0.0,0.0,0.0,0.0,0.0,0.0,0.0,0.0,0.0,0.0,0.0,0.0,0.0,0.0,0.0,0.0,0.0,0.0,0.0,0.0,0.0,0.0,0.0,0.0,0.0,0.0,0.0,0.0,0.0,0.0,0.0,0.0,0.0,0.0,0.0,0.0,0.0,0.0,0.0,0.0,0.0,0.0,0.0,0.0,0.0,0.0,0.0,0.0,0.0,0.0,0.0,0.0,0.0,0.0,0.0,0.0,0.0,0.0,0.0,0.0,0.0,0.0,0.0,0.0,0.0,0.0,0.0,0.0,0.0,0.0,0.0,0.0,0.0,0.0,0.0,0.0,0.0,0.0,0.0,0.0,0.0,0.0,0.0,0.0,0.0,0.0,0.0,0.0,0.0,0.0,0.0,0.0,0.0,0.0,0.0,0.0,0.0,0.0,0.0,0.0,0.0,0.0,0.0,0.0,0.0,0.0,0.0,0.0,0.0,0.0,0.0,0.0,0.0,0.0,0.0,0.0,0.0,0.0,0.0,0.0,0.0,0.0,0.0,0.0,0.0,0.0,0.0,0.0,0.0,0.0,0.0,0.0,0.0,0.0,0.0,0.0,0.0,0.0,0.0,0.0,0.0,0.0,0.0,0.0,0.0,0.0,0.0,0.0,0.0,0.0,0.0,0.0,0.0,0.0,0.0,0.0,0.0,0.0,0.0,0.0,0.0,0.0,0.0,0.0,0.0,0.0,0.0,0.0,0.0,0.0,0.0,0.0,0.0,0.0,0.0,0.0,0.0,0.0,0.0,0.0,0.0,0.0,0.0,0.0,0.0,0.0,0.0,0.0,0.0,0.0,0.0,0.0,0.0,0.0,0.0,0.0,0.0,0.0,0.0,0.0,0.0,0.0,0.0,0.0,0.0,0.0,0.0,0.0,0.0,0.0,0.0,0.0,0.0,0.0,0.0,0.0,0.0,0.0,0.0,0.0,0.0,0.0,0.0,0.0,0.0,0.0,0.0,0.0,0.0,0.0,0.0,0.0,0.0,0.0,0.0,0.0,0.0,0.0,0.0,0.0,0.0,0.0,0.0,0.0,0.0,0.0,0.0,0.0,0.0,0.0,0.0,0.0,0.0,0.0,0.0,0.0,0.0,0.0,0.0,0.0,0.0,0.0,0.0,0.0,0.0,0.0,0.0,0.0,0.0,0.0,0.0,0.0,0.0,0.0,0.0,0.0,0.0,0.0,0.0,0.0,0.0,0.0,0.0,0.0,0.0,0.0,0.0,0.0,0.0,0.0,0.0,0.0,0.0,0.0,0.0,0.0,0.0,0.0,0.0,0.0,0.0,0.0,0.0,0.0,0.0,0.0,0.0,0.0,0.0,0.0,0.0,0.0,0.0,0.0,0.0,0.0,0.0,0.0,0.0,0.0,0.0,0.0,0.0,0.0,0.0,0.0,0.0,0.0,0.0,0.0,0.0,0.0,0.0,0.0,0.0,0.0,0.0,0.0,0.0,0.0,0.0,0.0,0.0,0.0,0.0,0.0,0.0,0.0,0.0,0.0,0.0,0.0,0.0,0.0,0.0,0.0,0.0,0.0,0.0,0.0,0.0,0.0,0.0,0.0,0.0,0.0,0.0,0.0,0.0,0.0,0.0,0.0,0.0,0.0,0.0,0.0,0.0,0.0,0.0,0.0,0.0,0.0,0.0,0.0,0.0,0.0,0.0,0.0,0.0,0.0,0.0,0.0,0.0,0.0,0.0,0.0,0.0,0.0,0.0,0.0,0.0,0.0,0.0,0.0,0.0,0.0,0.0,0.0,0.0,0.0,0.0,0.0,0.0,0.0,0.0,0.0,0.0,0.0,0.0,0.0,0.0,0.0,0.0,0.0,0.0,0.0,0.0,0.0,0.0,0.0,0.0,0.0,0.0,0.0,0.0,0.0,0.0,0.0,0.0,0.0,0.0,0.0,0.0,0.0,0.0,0.0,0.0,0.0,0.0,0.0,0.0,0.0,0.0,0.0,0.0,0.0,0.0,0.0,0.0,0.0,0.0,0.0,0.0,0.0,0.0,0.0,0.0,0.0,0.0,0.0,0.0,0.0,0.0,0.0,0.0,0.0,0.0,0.0,0.0,0.0,0.0,0.0,0.0,0.0,0.0,0.0,0.0,0.0,0.0,0.0,0.0,0.0,0.0,0.0,0.0,0.0,0.0,0.0,0.0,0.0,0.0,0.0,0.0,0.0,0.0,0.0,0.0,0.0,0.0,0.0,0.0,0.0,0.0,0.0,0.0,0.0,0.0,0.0,0.0,0.0,0.0,0.0,0.0,0.0,0.0,0.0,0.0,0.0,0.0,0.0,0.0,0.0,0.0,0.0,0.0,0.0,0.0,0.0,0.0,0.0,0.0,0.0,0.0,0.0,0.0,0.0,0.0,0.0,0.0,0.0,0.0,0.0,0.0,0.0,0.0,0.0,0.0,0.0,0.0,0.0,0.0,0.0,0.0,0.0,0.0,0.0,0.0,0.0,0.0,0.0,0.0,0.0,0.0,0.0,0.0,0.0,0.0,0.0,0.0,0.0,0.0,0.0,0.0,0.0,0.0,0.0,0.0,0.0,0.0,0.0,0.0,0.0,0.0,0.0,0.0,0.0,0.0,0.0,0.0,0.0,0.0,0.0,0.0,0.0,0.0,0.0,0.0,0.0,0.0,0.0,0.0,0.0,0.0,0.0,0.0,0.0,0.0,0.0,0.0,0.0,0.0,0.0,0.0,0.0,0.0,0.0,0.0,0.0,0.0,0.0,0.0,0.0,0.0,0.0,0.0,0.0,0.0,0.0,0.0,0.0,0.0,0.0,0.0,0.0,0.0,0.0,0.0,0.0,0.0,0.0,0.0,0.0,0.0,0.0,0.0,0.0,0.0,0.0,0.0,0.0,0.0,0.0,0.0,0.0,0.0,0.0,0.0,0.0,0.0,0.0,0.0,0.0,0.0,0.0,0.0,0.0,0.0,0.0,0.0,0.0,0.0,0.0,0.0,0.0,0.0,0.0,0.0,0.0,0.0,0.0,0.0,0.0,0.0,0.0,0.0,0.0,0.0,0.0,0.0,0.0,0.0,0.0,0.0,0.0,0.0,0.0,0.0,0.0,0.0,0.0,0.0,0.0,0.0,0.0,0.0,0.0,0.0,0.0,0.0,0.0,0.0,0.0,0.0,0.0,0.0,0.0,0.0,0.0,0.0,0.0,0.0,0.0,0.0,0.0,0.0,0.0,0.0,0.0,0.0,0.0,0.0,0.0,0.0,0.0,0.0,0.0,0.0,0.0,0.0,0.0,0.0,0.0,0.0,0.0,0.0,0.0,0.0,0.0,0.0,0.0,0.0,0.0,0.0,0.0,0.0,0.0,0.0,0.0,0.0,0.0,0.0,0.0,0.0,0.0,0.0,0.0,0.0,0.0,0.0,0.0,0.0,0.0,0.0,0.0,0.0,0.0,0.0,0.0,0.0,0.0,0.0,0.0,0.0,0.0,0.0,0.0,0.0,0.0,0.0,0.0,0.0,0.0,0.0,0.0,0.0,0.0,0.0,0.0,0.0,0.0,0.0,0.0,0.0,0.0,0.0,0.0,0.0,0.0,0.0,0.0,0.0,0.0,0.0,0.0,0.0,0.0,0.0,0.0,0.0,0.0,0.0,0.0,0.0,0.0,0.0,0.0,0.0,0.0,0.0,0.0,0.0,0.0,0.0,0.0,0.0,0.0,0.0,0.0,0.0,0.0,0.0,0.0,0.0,0.0,0.0,0.0,0.0,0.0,0.0,0.0,0.0,0.0,0.0,0.0,0.0,0.0,0.0,0.0,0.0,0.0,0.0,0.0,0.0,0.0,0.0,0.0,0.0,0.0,0.0,0.0,0.0,0.0,0.0,0.0,0.0,0.0,0.0,0.0,0.0,0.0,0.0,0.0,0.0,0.0,0.0,0.0,0.0,0.0,0.0,0.0,0.0,0.0,0.0,0.0,0.0,0.0,0.0,0.0,0.0,0.0,0.0,0.0,0.0,0.0,0.0,0.0,0.0,0.0,0.0,0.0,0.0,0.0,0.0,0.0,0.0,0.0,0.0,0.0,0.0,0.0,0.0,0.0,0.0,0.0,0.0,0.0,0.0,0.0,0.0,0.0,0.0,0.0,0.0,0.0,0.0,0.0,0.0,0.0,0.0,0.0,0.0,0.0,0.0,0.0,0.0,0.0,0.0,0.0,0.0,0.0,0.0,0.0,0.0,0.0,0.0,3.8645,0.0,0.0,0.0,0.0,0.0,0.0,0.0,0.0,0.0,0.0,0.0,0.0,0.0,0.0,0.0,0.0,0.0,0.0,0.0,0.0,0.0,0.0,0.0,0.0,0.0,0.0,0.0,0.0,0.0,0.0,0.0,0.0,0.0,0.0,0.0,0.0,0.0,0.0,0.0,0.0,0.0,0.0,0.0,0.0,0.0,0.0,0.0,0.0,0.0,0.0,0.0,0.0,0.0,0.0,0.0,0.0,0.0,0.0,0.0,0.0,0.0,0.0,0.0,0.0,0.0,0.0,0.0,0.0,0.0,0.0,0.0,0.0,0.0,0.0,0.0,0.0,0.0,0.0,0.0,0.0,0.0,0.0,0.0,0.0,0.0,0.0,0.0,0.0,0.0,0.0,0.0,0.0,0.0,0.0,0.0,0.0,0.0,0.0,0.0,0.0,0.0,0.0,0.0,0.0,0.0,0.0,0.0,0.0,0.0,0.0,3.9767,3.8319,4.089,4.1035,3.8355,0.0,0.0,0.0,0.0,0.0,0.0,0.0,0.0,0.0,0.0,0.0,0.0,0.0,0.0,0.0,0.0,0.0,0.0,0.0,0.0,0.0,0.0,0.0,0.0,0.0,0.0,0.0,0.0,0.0,0.0,0.0,0.0,0.0,0.0,0.0,0.0,0.0,0.0,0.0,0.0,0.0,0.0,0.0,0.0,0.0,0.0,0.0,0.0,0.0,0.0,0.0,0.0,0.0,0.0,0.0,0.0,0.0,0.0,0.0,0.0,0.0,0.0,0.0,0.0,0.0,0.0,0.0,0.0,0.0,0.0,0.0,0.0,0.0,0.0,0.0,0.0,0.0,0.0,0.0,0.0,0.0,0.0,0.0,0.0,0.0,0.0,0.0,0.0,0.0,0.0,0.0,0.0,0.0,0.0,0.0,0.0,0.0,0.0,0.0,0.0,0.0,0.0,0.0,0.0,0.0,0.0,0.0,0.0,0.0,0.0,0.0,0.0,4.1615,4.1759,3.9369,0.0,0.0,0.0,0.0,0.0,0.0,0.0,0.0,0.0,0.0,0.0,0.0,0.0,0.0,0.0,0.0,0.0,0.0,0.0,0.0,0.0,0.0,0.0,0.0,0.0,0.0,0.0,0.0,0.0,0.0,0.0,0.0,0.0,0.0,0.0,0.0,0.0,0.0,0.0,0.0,0.0,0.0,0.0,0.0,0.0,0.0,0.0,0.0,0.0,0.0,0.0,0.0,0.0,0.0,0.0,0.0,0.0,0.0,0.0,0.0,0.0,0.0,0.0,0.0,0.0,0.0,0.0,0.0,0.0,0.0,0.0,0.0,0.0,0.0,0.0,0.0,0.0,0.0,0.0,0.0,0.0,0.0,0.0,0.0,0.0,0.0,0.0,0.0,0.0,0.0,0.0,0.0,0.0,0.0,0.0,0.0,0.0,0.0,0.0,0.0,0.0,0.0,0.0,0.0,0.0,0.0,0.0,0.0,0.0,0.0,3.8934,4.2339,4.2737,0.0,4.2411,0.0,0.0,0.0,0.0,0.0,0.0,0.0,0.0,0.0,0.0,0.0,0.0,0.0,0.0,0.0,0.0,0.0,0.0,0.0,0.0,0.0,0.0,0.0,0.0,0.0,0.0,0.0,0.0,0.0,0.0,0.0,0.0,0.0,0.0,0.0,0.0,0.0,0.0,0.0,0.0,0.0,0.0,0.0,0.0,0.0,0.0,0.0,0.0,0.0,0.0,0.0,0.0,0.0,0.0,0.0,0.0,0.0,0.0,0.0,0.0,0.0,0.0,0.0,0.0,0.0,0.0,0.0,0.0,0.0,0.0,0.0,0.0,0.0,0.0,0.0,0.0,0.0,0.0,0.0,0.0,0.0,0.0,0.0,0.0,0.0,0.0,0.0,0.0,0.0,0.0,0.0,0.0,0.0,0.0,0.0,0.0,0.0,0.0,0.0,0.0,0.0,0.0,0.0,0.0,0.0,0.0,0.0,0.0,0.0,0.0,4.0164,4.2158,4.2702,4.2558,0.0,0.0,0.0,0.0,0.0,0.0,0.0,0.0,0.0,0.0,0.0,0.0,0.0,0.0,0.0,0.0,0.0,0.0,0.0,0.0,0.0,0.0,0.0,0.0,0.0,0.0,0.0,0.0,0.0,0.0,0.0,0.0,0.0,0.0,0.0,0.0,0.0,0.0,0.0,0.0,0.0,0.0,0.0,0.0,0.0,0.0,0.0,0.0,0.0,0.0,0.0,0.0,0.0,0.0,0.0,0.0,0.0,0.0,0.0,0.0,0.0,0.0,0.0,0.0,0.0,0.0,0.0,0.0,0.0,0.0,0.0,0.0,0.0,0.0,0.0,0.0,0.0,0.0,0.0,0.0,0.0,0.0,0.0,0.0,0.0,0.0,0.0,0.0,0.0,0.0,0.0,0.0,0.0,0.0,0.0,0.0,0.0,0.0,0.0,0.0,0.0,0.0,0.0,0.0,0.0,0.0,0.0,0.0,0.0,0.0,4.0815,4.1832,4.3246,4.2559,4.1724,4.0854,0.0,0.0,0.0,0.0,0.0,0.0,0.0,0.0,0.0,0.0,0.0,0.0,0.0,0.0,0.0,0.0,0.0,0.0,0.0,0.0,0.0,0.0,0.0,0.0,0.0,0.0,0.0,0.0,0.0,0.0,0.0,0.0,0.0,0.0,0.0,0.0,0.0,0.0,0.0,0.0,0.0,0.0,0.0,0.0,0.0,0.0,0.0,0.0,0.0,0.0,0.0,0.0,0.0,0.0,0.0,0.0,0.0,0.0,0.0,0.0,0.0,0.0,0.0,0.0,0.0,0.0,0.0,0.0,0.0,0.0,0.0,0.0,0.0,0.0,0.0,0.0,0.0,0.0,0.0,0.0,0.0,0.0,0.0,0.0,0.0,0.0,0.0,0.0,0.0,0.0,0.0,0.0,0.0,0.0,0.0,0.0,0.0,0.0,0.0,0.0,0.0,0.0,0.0,0.0,0.0,0.0,0.0,0.0,4.7829,4.4162,4.3798,4.7248,4.245,4.0273,0.0,0.0,0.0,0.0,0.0,0.0,0.0,0.0,0.0,0.0,0.0,0.0,0.0,0.0,0.0,0.0,0.0,0.0,0.0,0.0,0.0,0.0,0.0,0.0,0.0,0.0,0.0,0.0,0.0,0.0,0.0,0.0,0.0,0.0,0.0,0.0,0.0,0.0,0.0,0.0,0.0,0.0,0.0,0.0,0.0,0.0,0.0,0.0,0.0,0.0,0.0,0.0,0.0,0.0,0.0,0.0,0.0,0.0,0.0,0.0,0.0,0.0,0.0,0.0,0.0,0.0,0.0,0.0,0.0,0.0,0.0,0.0,0.0,0.0,0.0,0.0,0.0,0.0,0.0,0.0,0.0,0.0,0.0,0.0,0.0,0.0,0.0,0.0,0.0,0.0,0.0,0.0,0.0,0.0,0.0,0.0,0.0,0.0,0.0,0.0,0.0,0.0,0.0,0.0,0.0,0.0,0.0,0.0,0.0,4.0664,4.1573,4.3689,4.6895,4.3214,4.1832,0.0,0.0,0.0,0.0,0.0,0.0,0.0,0.0,0.0,0.0,0.0,0.0,0.0,0.0,0.0,0.0,0.0,0.0,0.0,0.0,0.0,0.0,0.0,0.0,0.0,0.0,0.0,0.0,0.0,0.0,0.0,0.0,0.0,0.0,0.0,0.0,0.0,0.0,0.0,0.0,0.0,0.0,0.0,0.0,0.0,0.0,0.0,0.0,0.0,0.0,0.0,0.0,0.0,0.0,0.0,0.0,0.0,0.0,0.0,0.0,0.0,0.0,0.0,0.0,0.0,0.0,0.0,0.0,0.0,0.0,0.0,0.0,0.0,0.0,0.0,0.0,0.0,0.0,0.0,0.0,0.0,0.0,0.0,0.0,0.0,0.0,0.0,0.0,0.0,0.0,0.0,0.0,0.0,0.0,0.0,0.0,0.0,0.0,0.0,0.0,0.0,0.0,0.0,0.0,0.0,0.0,0.0,0.0,0.0,3.9666,0.0,4.588,4.701,4.3871,4.1938,0.0,0.0,0.0,0.0,0.0,0.0,0.0,0.0,0.0,0.0,0.0,0.0,0.0,0.0,0.0,0.0,0.0,0.0,0.0,0.0,0.0,0.0,0.0,0.0,0.0,0.0,0.0,0.0,0.0,0.0,0.0,0.0,0.0,0.0,0.0,0.0,0.0,0.0,0.0,0.0,0.0,0.0,0.0,0.0,0.0,0.0,0.0,0.0,0.0,0.0,0.0,0.0,0.0,0.0,0.0,0.0,0.0,0.0,0.0,0.0,0.0,0.0,0.0,0.0,0.0,0.0,0.0,0.0,0.0,0.0,0.0,0.0,0.0,0.0,0.0,0.0,0.0,0.0,0.0,0.0,0.0,0.0,0.0,0.0,0.0,0.0,0.0,0.0,0.0,0.0,0.0,0.0,0.0,0.0,0.0,0.0,0.0,0.0,0.0,0.0,0.0,0.0,0.0,0.0,0.0,0.0,0.0,0.0,4.0537,4.6654,4.9958,5.0541,4.8336,4.4382,4.0397,0.0,0.0,0.0,0.0,0.0,0.0,0.0,0.0,0.0,0.0,0.0,0.0,0.0,0.0,0.0,0.0,0.0,0.0,0.0,0.0,0.0,0.0,0.0,0.0,0.0,0.0,0.0,0.0,0.0,0.0,0.0,0.0,0.0,0.0,0.0,0.0,0.0,0.0,0.0,0.0,0.0,0.0,0.0,0.0,0.0,0.0,0.0,0.0,0.0,0.0,0.0,0.0,0.0,0.0,0.0,0.0,0.0,0.0,0.0,0.0,0.0,0.0,0.0,0.0,0.0,0.0,0.0,0.0,0.0,0.0,0.0,0.0,0.0,0.0,0.0,0.0,0.0,0.0,0.0,0.0,0.0,0.0,0.0,0.0,0.0,0.0,0.0,0.0,0.0,0.0,0.0,0.0,0.0,0.0,0.0,0.0,0.0,0.0,0.0,0.0,0.0,0.0,0.0,0.0,0.0,0.0,0.0,0.0,0.0,4.3094,4.7755,5.1536,5.3696,4.5847,4.2845,0.0,0.0,0.0,0.0,0.0,0.0,0.0,0.0,0.0,0.0,0.0,0.0,0.0,0.0,0.0,0.0,0.0,0.0,0.0,0.0,0.0,0.0,0.0,0.0,0.0,0.0,0.0,0.0,0.0,0.0,0.0,0.0,0.0,0.0,0.0,0.0,0.0,0.0,0.0,0.0,0.0,0.0,0.0,0.0,0.0,0.0,0.0,0.0,0.0,0.0,0.0,0.0,0.0,0.0,0.0,0.0,0.0,0.0,0.0,0.0,0.0,0.0,0.0,0.0,0.0,0.0,0.0,0.0,0.0,0.0,0.0,0.0,0.0,0.0,0.0,0.0,0.0,0.0,0.0,0.0,0.0,0.0,0.0,0.0,0.0,0.0,0.0,0.0,0.0,0.0,0.0,0.0,0.0,0.0,0.0,0.0,0.0,0.0,0.0,0.0,0.0,0.0,0.0,0.0,0.0,0.0,0.0,0.0,0.0,4.8122,5.2491,5.5794,5.7666,4.9515,4.5957,4.7642,0.0,0.0,0.0,0.0,0.0,0.0,0.0,0.0,0.0,0.0,0.0,0.0,0.0,0.0,0.0,0.0,0.0,0.0,0.0,0.0,0.0,0.0,0.0,0.0,0.0,0.0,0.0,0.0,0.0,0.0,0.0,0.0,0.0,0.0,0.0,0.0,0.0,0.0,0.0,0.0,0.0,0.0,0.0,0.0,0.0,0.0,0.0,0.0,0.0,0.0,0.0,0.0,0.0,0.0,0.0,0.0,0.0,0.0,0.0,0.0,0.0,0.0,0.0,0.0,0.0,0.0,0.0,0.0,0.0,0.0,0.0,0.0,0.0,0.0,0.0,0.0,0.0,0.0,0.0,0.0,0.0,0.0,0.0,0.0,0.0,0.0,0.0,0.0,0.0,0.0,0.0,0.0,0.0,0.0,0.0,0.0,0.0,0.0,0.0,0.0,0.0,0.0,0.0,0.0,0.0,0.0,0.0,0.0,5.9612,6.3099,6.3392,6.0272,5.4987,4.9664,0.0,0.0,0.0,0.0,0.0,0.0,0.0,0.0,0.0,0.0,0.0,0.0,0.0,0.0,0.0,0.0,0.0,0.0,0.0,0.0,0.0,0.0,0.0,0.0,0.0,0.0,0.0,0.0,0.0,0.0,0.0,0.0,0.0,0.0,0.0,0.0,0.0,0.0,0.0,0.0,0.0,0.0,0.0,0.0,0.0,0.0,0.0,0.0,0.0,0.0,0.0,0.0,0.0,0.0,0.0,0.0,0.0,0.0,0.0,0.0,0.0,0.0,0.0,0.0,0.0,0.0,0.0,0.0,0.0,0.0,0.0,0.0,0.0,0.0,0.0,0.0,0.0,0.0,0.0,0.0,0.0,0.0,0.0,0.0,0.0,0.0,0.0,0.0,0.0,0.0,0.0,0.0,0.0,0.0,0.0,0.0,0.0,0.0,0.0,0.0,0.0,0.0,0.0,0.0,0.0,0.0,0.0,0.0,0.0,6.5338,7.1578,7.3523,7.0697,6.0309,5.3959,0.0,0.0,0.0,0.0,0.0,0.0,0.0,0.0,0.0,0.0,0.0,0.0,0.0,0.0,0.0,0.0,0.0,0.0,0.0,0.0,0.0,0.0,0.0,0.0,0.0,0.0,0.0,0.0,0.0,0.0,0.0,0.0,0.0,0.0,0.0,0.0,0.0,0.0,0.0,0.0,0.0,0.0,0.0,0.0,0.0,0.0,0.0,0.0,0.0,0.0,0.0,0.0,0.0,0.0,0.0,0.0,0.0,0.0,0.0,0.0,0.0,0.0,0.0,0.0,0.0,0.0,0.0,0.0,0.0,0.0,0.0,0.0,0.0,0.0,0.0,0.0,0.0,0.0,0.0,0.0,0.0,0.0,0.0,0.0,0.0,0.0,0.0,0.0,0.0,0.0,0.0,0.0,0.0,0.0,0.0,0.0,0.0,0.0,0.0,0.0,0.0,0.0,0.0,0.0,0.0,0.0,0.0,0.0,6.1985,7.1064,7.8369,8.1599,8.0534,6.9633,6.0786,0.0,0.0,0.0,0.0,0.0,0.0,0.0,0.0,0.0,0.0,0.0,0.0,0.0,0.0,0.0,0.0,0.0,0.0,0.0,0.0,0.0,0.0,0.0,0.0,0.0,0.0,0.0,0.0,0.0,0.0,0.0,0.0,0.0,0.0,0.0,0.0,0.0,0.0,0.0,0.0,0.0,0.0,0.0,0.0,0.0,0.0,0.0,0.0,0.0,0.0,0.0,0.0,0.0,0.0,0.0,0.0,0.0,0.0,0.0,0.0,0.0,0.0,0.0,0.0,0.0,0.0,0.0,0.0,0.0,0.0,0.0,0.0,0.0,0.0,0.0,0.0,0.0,0.0,0.0,0.0,0.0,0.0,0.0,0.0,0.0,0.0,0.0,0.0,0.0,0.0,0.0,0.0,0.0,0.0,0.0,0.0,0.0,0.0,0.0,0.0,0.0,0.0,0.0,0.0,0.0,0.0,0.0,0.0,6.5909,7.6423,8.3654,8.7729,8.8169,7.958,6.8311,0.0,0.0,0.0,0.0,0.0,0.0,0.0,0.0,0.0,0.0,0.0,0.0,0.0,0.0,0.0,0.0,0.0,0.0,0.0,0.0,0.0,0.0,0.0,0.0,0.0,0.0,0.0,0.0,0.0,0.0,0.0,0.0,0.0,0.0,0.0,0.0,0.0,0.0,0.0,0.0,0.0,0.0,0.0,0.0,0.0,0.0,0.0,0.0,0.0,0.0,0.0,0.0,0.0,0.0,0.0,0.0,0.0,0.0,0.0,0.0,0.0,0.0,0.0,0.0,0.0,0.0,0.0,0.0,0.0,0.0,0.0,0.0,0.0,0.0,0.0,0.0,0.0,0.0,0.0,0.0,0.0,0.0,0.0,0.0,0.0,0.0,0.0,0.0,0.0,0.0,0.0,0.0,0.0,0.0,0.0,0.0,0.0,0.0,0.0,0.0,0.0,0.0,0.0,0.0,0.0,0.0,0.0,0.0,6.8715,7.9727,8.6444,8.9931,9.0041,7.9617,6.9522,0.0,0.0,0.0,0.0,0.0,0.0,0.0,0.0,0.0,0.0,0.0,0.0,0.0,0.0,0.0,0.0,0.0,0.0,0.0,0.0,0.0,0.0,0.0,0.0,0.0,0.0,0.0,0.0,0.0,0.0,0.0,0.0,0.0,0.0,0.0,0.0,0.0,0.0,0.0,0.0,0.0,0.0,0.0,0.0,0.0,0.0,0.0,0.0,3.687,0.0,0.0,0.0,0.0,0.0,0.0,0.0,0.0,0.0,0.0,0.0,0.0,0.0,0.0,0.0,0.0,0.0,0.0,0.0,0.0,0.0,0.0,0.0,0.0,0.0,0.0,0.0,0.0,0.0,0.0,0.0,0.0,0.0,0.0,0.0,0.0,0.0,0.0,0.0,0.0,0.0,0.0,0.0,0.0,0.0,0.0,0.0,0.0,0.0,0.0,0.0,0.0,0.0,0.0,0.0,0.0,0.0,0.0,0.0,7.1814,8.1893,8.8059,9.1363,9.1473,8.3361,7.356,0.0,0.0,0.0,0.0,0.0,0.0,0.0,0.0,0.0,0.0,0.0,0.0,0.0,0.0,0.0,0.0,0.0,0.0,0.0,0.0,0.0,0.0,0.0,0.0,0.0,0.0,0.0,0.0,0.0,0.0,0.0,0.0,0.0,0.0,0.0,0.0,0.0,0.0,0.0,0.0,0.0,0.0,0.0,0.0,0.0,0.0,0.0,0.0,0.0,0.0,0.0,0.0,0.0,0.0,0.0,0.0,0.0,0.0,0.0,0.0,0.0,0.0,0.0,0.0,0.0,0.0,0.0,0.0,0.0,0.0,0.0,0.0,0.0,0.0,0.0,0.0,0.0,0.0,0.0,0.0,0.0,0.0,0.0,0.0,0.0,0.0,0.0,0.0,0.0,0.0,0.0,0.0,0.0,0.0,0.0,0.0,0.0,0.0,0.0,0.0,0.0,0.0,0.0,0.0,0.0,0.0,0.0,6.4809,7.4198,8.3654,8.9234,9.2244,9.2611,8.7582,7.7928,6.3649,0.0,0.0,0.0,0.0,0.0,0.0,0.0,0.0,0.0,0.0,0.0,0.0,0.0,0.0,0.0,0.0,0.0,0.0,0.0,0.0,0.0,0.0,0.0,0.0,0.0,0.0,0.0,0.0,0.0,0.0,0.0,0.0,0.0,0.0,0.0,0.0,0.0,0.0,3.2741,3.6834,0.0,0.0,0.0,0.0,0.0,0.0,0.0,0.0,3.879,0.0,0.0,0.0,0.0,0.0,0.0,0.0,0.0,0.0,0.0,0.0,0.0,0.0,0.0,0.0,0.0,0.0,0.0,0.0,0.0,0.0,0.0,0.0,0.0,0.0,0.0,0.0,0.0,0.0,0.0,0.0,0.0,0.0,0.0,0.0,0.0,0.0,0.0,0.0,0.0,0.0,0.0,0.0,0.0,0.0,0.0,0.0,0.0,0.0,0.0,0.0,0.0,0.0,0.0,0.0,0.0,6.119,6.5191,7.3377,8.6077,9.0629,9.2281,9.0996,8.7472,7.8772,6.4714,0.0,0.0,0.0,0.0,0.0,0.0,0.0,0.0,0.0,0.0,0.0,0.0,0.0,0.0,0.0,0.0,0.0,0.0,0.0,0.0,0.0,0.0,0.0,0.0,0.0,0.0,0.0,0.0,0.0,0.0,0.0,0.0,0.0,0.0,0.0,0.0,0.0,0.0,0.0,4.4367,4.6033,0.0,0.0,0.0,0.0,0.0,0.0,0.0,0.0,3.8971,0.0,0.0,0.0,0.0,0.0,0.0,0.0,0.0,0.0,0.0,0.0,0.0,0.0,0.0,0.0,0.0,0.0,0.0,0.0,0.0,0.0,0.0,0.0,0.0,0.0,0.0,0.0,0.0,0.0,0.0,0.0,0.0,0.0,0.0,0.0,0.0,0.0,0.0,0.0,0.0,0.0,0.0,0.0,0.0,0.0,0.0,0.0,0.0,0.0,0.0,0.0,0.0,0.0,0.0,0.0,6.1153,6.8091,7.6313,8.604,8.9528,9.0592,8.9307,8.4205,7.5726,0.0,0.0,0.0,0.0,0.0,0.0,0.0,0.0,0.0,0.0,0.0,0.0,0.0,0.0,0.0,0.0,0.0,0.0,0.0,0.0,0.0,0.0,0.0,0.0,0.0,0.0,0.0,0.0,0.0,0.0,0.0,0.0,0.0,0.0,0.0,0.0,0.0,0.0,0.0,0.0,4.6794,4.8641,4.9474,0.0,0.0,0.0,0.0,0.0,0.0,4.1796,4.0528,0.0,0.0,0.0,0.0,0.0,0.0,0.0,0.0,0.0,0.0,0.0,0.0,0.0,0.0,0.0,0.0,0.0,0.0,0.0,0.0,0.0,0.0,0.0,0.0,0.0,0.0,0.0,0.0,0.0,0.0,0.0,0.0,0.0,0.0,0.0,0.0,0.0,0.0,0.0,0.0,0.0,0.0,0.0,0.0,0.0,0.0,0.0,0.0,0.0,0.0,0.0,0.0,0.0,0.0,0.0,6.0346,6.9816,7.8185,8.5233,8.7766,8.8463,8.7399,8.1195,7.2973,0.0,0.0,0.0,0.0,0.0,0.0,0.0,0.0,0.0,0.0,0.0,0.0,0.0,0.0,0.0,0.0,0.0,0.0,0.0,0.0,0.0,0.0,0.0,0.0,0.0,0.0,0.0,0.0,0.0,0.0,0.0,0.0,0.0,0.0,0.0,0.0,0.0,0.0,0.0,0.0,0.0,5.1357,5.2118,5.0886,0.0,0.0,0.0,0.0,4.4584,4.5417,0.0,0.0,0.0,0.0,0.0,0.0,0.0,0.0,0.0,0.0,0.0,0.0,0.0,0.0,0.0,0.0,0.0,0.0,0.0,0.0,0.0,0.0,0.0,0.0,0.0,0.0,0.0,0.0,0.0,0.0,0.0,0.0,0.0,0.0,0.0,0.0,0.0,0.0,0.0,0.0,0.0,0.0,0.0,0.0,0.0,0.0,0.0,0.0,0.0,0.0,0.0,0.0,0.0,0.0,0.0,0.0,6.0126,6.6549,7.4588,8.4205,8.6407,8.6554,8.5013,8.1452,7.356,0.0,0.0,0.0,0.0,0.0,0.0,0.0,0.0,0.0,0.0,0.0,0.0,0.0,0.0,0.0,0.0,0.0,0.0,0.0,0.0,0.0,0.0,0.0,0.0,0.0,0.0,0.0,0.0,0.0,0.0,0.0,0.0,0.0,0.0,0.0,0.0,0.0,0.0,0.0,0.0,0.0,5.6681,5.2082,5.2408,5.248,0.0,0.0,5.1249,5.3929,5.5631,0.0,0.0,0.0,0.0,0.0,0.0,0.0,0.0,0.0,0.0,0.0,0.0,0.0,0.0,0.0,0.0,0.0,0.0,0.0,0.0,0.0,0.0,0.0,0.0,0.0,0.0,0.0,0.0,0.0,0.0,0.0,0.0,0.0,0.0,0.0,0.0,0.0,0.0,0.0,0.0,0.0,0.0,0.0,0.0,0.0,0.0,0.0,0.0,0.0,0.0,0.0,0.0,0.0,0.0,0.0,5.0545,6.0236,6.7797,7.5616,8.3581,8.5049,8.4866,8.3251,7.7414,6.9486,0.0,0.0,0.0,0.0,0.0,0.0,0.0,0.0,0.0,0.0,0.0,0.0,0.0,0.0,0.0,0.0,0.0,0.0,0.0,0.0,0.0,0.0,0.0,0.0,0.0,0.0,0.0,0.0,0.0,0.0,0.0,0.0,0.0,0.0,0.0,0.0,0.0,0.0,0.0,0.0,0.0,0.0,5.6283,5.7369,0.0,0.0,0.0,5.5812,5.7152,0.0,0.0,0.0,0.0,0.0,0.0,0.0,0.0,0.0,0.0,0.0,0.0,0.0,0.0,0.0,0.0,0.0,0.0,0.0,0.0,0.0,0.0,0.0,0.0,0.0,0.0,0.0,0.0,0.0,0.0,0.0,0.0,0.0,0.0,0.0,0.0,0.0,0.0,0.0,0.0,0.0,0.0,0.0,0.0,0.0,0.0,0.0,0.0,0.0,0.0,0.0,0.0,0.0,0.0,0.0,0.0,0.0,6.0346,6.8972,7.6533,8.281,8.3471,8.303,8.1525,7.4331,0.0,0.0,0.0,0.0,0.0,0.0,0.0,0.0,0.0,0.0,0.0,0.0,0.0,0.0,0.0,0.0,0.0,0.0,0.0,0.0,0.0,0.0,0.0,0.0,0.0,0.0,0.0,2.4809,0.0,0.0,0.0,0.0,0.0,0.0,0.0,0.0,0.0,0.0,0.0,0.0,0.0,0.0,5.9072,5.9289,6.1534,6.2947,0.0,0.0,6.0593,6.0774,6.081,5.8746,0.0,0.0,0.0,0.0,0.0,0.0,0.0,0.0,0.0,0.0,0.0,0.0,0.0,0.0,0.0,0.0,0.0,0.0,0.0,0.0,0.0,0.0,0.0,0.0,0.0,0.0,0.0,0.0,0.0,0.0,0.0,0.0,0.0,0.0,0.0,0.0,0.0,0.0,0.0,0.0,0.0,0.0,0.0,0.0,0.0,0.0,0.0,0.0,0.0,0.0,0.0,0.0,0.0,0.0,5.2307,6.0346,6.8421,7.5726,8.1966,8.1599,8.0828,7.9874,7.4294,6.6733,0.0,0.0,0.0,0.0,0.0,0.0,0.0,0.0,0.0,0.0,0.0,0.0,0.0,0.0,0.0,0.0,0.0,0.0,0.0,0.0,0.0,0.0,0.0,0.0,0.0,0.0,0.0,0.0,0.0,0.0,0.0,0.0,0.0,0.0,0.0,0.0,0.0,0.0,0.0,0.0,0.0,6.0122,5.8673,6.3056,6.6967,0.0,6.7221,6.6496,6.7221,7.0915,6.9937,5.8565,0.0,0.0,0.0,0.0,0.0,0.0,0.0,0.0,0.0,0.0,0.0,0.0,0.0,0.0,0.0,0.0,0.0,0.0,0.0,0.0,0.0,0.0,0.0,0.0,0.0,0.0,0.0,0.0,0.0,0.0,0.0,0.0,0.0,0.0,0.0,0.0,0.0,0.0,0.0,0.0,0.0,0.0,0.0,0.0,0.0,0.0,0.0,0.0,0.0,0.0,0.0,0.0,0.0,5.2307,6.0346,6.8385,7.5652,8.1856,8.1893,8.0901,7.9066,7.4515,6.7724,0.0,0.0,0.0,0.0,0.0,0.0,0.0,0.0,0.0,0.0,0.0,0.0,0.0,0.0,0.0,0.0,0.0,0.0,0.0,0.0,0.0,0.0,0.0,0.0,0.0,0.0,0.0,0.0,3.1184,3.1582,3.0894,0.0,0.0,0.0,0.0,0.0,0.0,0.0,0.0,0.0,0.0,6.186,6.273,6.6388,0.0,0.0,6.9285,6.8706,6.9973,6.838,6.5156,5.9579,5.5921,0.0,0.0,0.0,0.0,0.0,0.0,0.0,0.0,0.0,0.0,0.0,0.0,0.0,0.0,0.0,0.0,0.0,0.0,0.0,0.0,0.0,0.0,0.0,0.0,0.0,0.0,0.0,0.0,0.0,0.0,0.0,0.0,0.0,0.0,0.0,0.0,0.0,0.0,0.0,0.0,0.0,0.0,0.0,0.0,0.0,0.0,0.0,0.0,0.0,0.0,0.0,0.0,5.227,6.0346,6.8385,7.5652,8.2039,8.1966,8.0681,7.8222,7.4294,6.7981,0.0,0.0,0.0,0.0,0.0,0.0,0.0,0.0,0.0,0.0,0.0,0.0,0.0,0.0,0.0,0.0,0.0,0.0,0.0,0.0,0.0,0.0,0.0,0.0,0.0,0.0,0.0,0.0,3.3393,3.3719,3.3321,0.0,0.0,0.0,0.0,0.0,0.0,0.0,0.0,0.0,0.0,6.3237,6.5627,6.8488,7.0661,7.1386,6.9973,6.9213,7.0299,6.6895,6.2947,5.9434,0.0,0.0,0.0,0.0,0.0,0.0,0.0,0.0,0.0,0.0,0.0,0.0,0.0,0.0,0.0,0.0,0.0,0.0,0.0,0.0,0.0,0.0,0.0,0.0,0.0,0.0,0.0,3.6266,0.0,0.0,3.499,0.0,0.0,0.0,0.0,0.0,0.0,0.0,0.0,0.0,0.0,0.0,0.0,0.0,0.0,0.0,0.0,0.0,0.0,0.0,0.0,0.0,0.0,5.2307,6.0346,6.8385,7.5616,8.1929,8.1415,7.9874,7.7414,7.345,6.7173,5.8253,0.0,0.0,0.0,0.0,0.0,0.0,0.0,0.0,0.0,0.0,0.0,0.0,0.0,0.0,0.0,0.0,0.0,0.0,0.0,0.0,0.0,0.0,0.0,0.0,0.0,0.0,3.1401,3.1836,3.3321,0.0,0.0,0.0,0.0,0.0,0.0,0.0,0.0,0.0,5.3856,5.9615,6.4033,6.6388,6.8814,7.0589,7.135,6.9539,6.8054,6.8126,6.8488,6.6351,0.0,0.0,0.0,0.0,0.0,0.0,0.0,0.0,0.0,0.0,0.0,0.0,0.0,0.0,0.0,0.0,0.0,0.0,0.0,0.0,0.0,0.0,0.0,0.0,0.0,0.0,0.0,4.0414,3.8726,0.0,0.0,0.0,0.0,0.0,0.0,0.0,0.0,0.0,0.0,0.0,5.9208,6.0346,0.0,0.0,0.0,0.0,0.0,0.0,0.0,0.0,0.0,0.0,0.0,0.0,5.2307,6.0309,6.7871,7.4845,8.1158,8.0608,7.9543,7.8185,7.4735,6.7687,5.6748,0.0,0.0,0.0,0.0,0.0,0.0,0.0,0.0,0.0,0.0,0.0,0.0,0.0,0.0,0.0,0.0,0.0,0.0,0.0,0.0,0.0,0.0,0.0,0.0,0.0,3.821,0.0,0.0,0.0,0.0,0.0,0.0,0.0,0.0,0.0,0.0,0.0,5.1285,5.4472,5.9687,6.3671,6.5011,6.7728,6.9684,0.0,0.0,0.0,0.0,0.0,0.0,0.0,0.0,0.0,0.0,0.0,0.0,0.0,0.0,5.813,5.0995,4.9257,4.8822,4.8532,0.0,0.0,0.0,0.0,0.0,0.0,0.0,0.0,0.0,0.0,0.0,0.0,0.0,0.0,4.6324,0.0,4.3864,0.0,0.0,0.0,0.0,0.0,0.0,0.0,0.0,5.8767,6.2328,6.4163,6.5521,6.5191,0.0,6.2548,5.8584,0.0,0.0,0.0,0.0,0.0,0.0,0.0,0.0,5.4142,6.1594,6.8311,7.4625,8.0241,8.0057,7.914,7.7708,7.3487,6.721,5.8804,5.3555,4.9111,0.0,0.0,0.0,0.0,0.0,0.0,0.0,0.0,0.0,0.0,0.0,0.0,0.0,0.0,0.0,0.0,0.0,0.0,0.0,0.0,0.0,0.0,0.0,4.1615,0.0,0.0,0.0,0.0,0.0,0.0,0.0,0.0,0.0,4.6613,5.0271,5.411,5.7369,6.0919,6.3671,6.5048,0.0,0.0,0.0,0.0,0.0,0.0,0.0,6.3237,6.186,6.1281,6.11,6.1607,6.3889,6.5229,6.3852,0.0,0.0,5.7188,5.5414,5.4834,5.4291,5.4617,5.5305,5.6319,5.7369,5.8311,0.0,0.0,0.0,0.0,0.0,0.0,0.0,0.0,5.3628,5.4289,0.0,5.1463,0.0,0.0,0.0,0.0,0.0,5.1536,0.0,0.0,6.5007,6.8201,6.9082,6.9853,6.9816,6.9009,6.8091,6.5999,6.2548,5.506,0.0,0.0,0.0,0.0,0.0,0.0,5.7629,6.3906,6.9522,7.4808,7.947,7.9653,7.8479,7.5946,6.9963,6.5888,6.3906,5.718,5.2229,4.9554,4.2665,0.0,0.0,0.0,0.0,0.0,0.0,0.0,0.0,0.0,0.0,0.0,0.0,0.0,0.0,0.0,0.0,0.0,0.0,0.0,0.0,4.1433,0.0,0.0,0.0,0.0,0.0,0.0,0.0,0.0,0.0,0.0,5.143,5.2915,5.6174,6.2295,0.0,0.0,0.0,0.0,6.6858,6.6931,6.751,6.7764,6.7076,6.809,6.7728,6.407,0.0,0.0,6.6134,6.7148,6.751,6.5192,6.6134,6.646,6.4903,6.2947,6.1353,5.9905,5.9615,5.9796,5.9977,6.1353,6.2566,6.8518,0.0,0.0,0.0,0.0,5.7869,5.9541,6.1851,6.1851,6.0456,5.807,5.6345,0.0,0.0,0.0,0.0,0.0,0.0,5.9355,6.3649,6.7026,7.0183,7.3193,7.345,7.312,7.2275,7.033,6.8641,6.699,6.2511,5.6895,5.0362,0.0,0.0,0.0,0.0,5.785,6.3135,6.8752,7.3707,7.7965,7.7451,7.5983,7.3597,7.0547,6.7341,6.4009,6.0848,5.6365,5.0451,4.7709,0.0,0.0,0.0,0.0,0.0,0.0,0.0,0.0,0.0,0.0,0.0,0.0,0.0,0.0,0.0,0.0,0.0,0.0,0.0,4.5417,4.5852,4.5381,0.0,0.0,0.0,0.0,0.0,0.0,0.0,0.0,0.0,5.5305,5.6899,5.9216,0.0,0.0,6.4504,6.5772,6.6424,6.7221,6.8343,6.8235,0.0,6.9213,6.8307,6.7692,6.8235,7.0517,7.2074,7.1603,7.1893,7.2001,7.1241,7.0589,7.0154,7.0082,6.6677,6.3599,6.2476,6.3056,6.4251,6.541,6.6858,6.8162,8.0524,7.1546,6.7146,6.5484,6.5848,6.626,6.7635,6.9596,6.9596,6.8385,6.6219,6.3833,6.119,5.8327,5.6088,0.0,0.0,0.0,6.398,6.8678,7.0477,7.2936,7.5763,7.6203,7.5946,7.5028,7.301,7.1248,6.9816,6.7247,6.3062,5.7373,0.0,0.0,5.3225,5.7005,6.1043,6.5191,6.9559,7.3266,7.6276,7.5249,7.3964,7.2532,7.049,6.8092,6.5384,6.346,5.9944,5.4537,5.181,4.8812,0.0,0.0,0.0,0.0,0.0,0.0,0.0,0.0,0.0,0.0,0.0,3.85,4.1687,0.0,0.0,0.0,4.4476,4.6214,4.846,4.8387,0.0,0.0,0.0,0.0,0.0,0.0,0.0,5.19,5.4205,5.6563,5.8818,6.0774,6.2512,6.3961,6.4577,6.5265,6.6388,0.0,6.7836,6.943,6.9792,7.0299,7.1567,7.0842,7.0625,7.2001,7.3414,7.45,7.4826,7.4863,7.4754,7.4356,7.3595,7.2871,7.2726,6.9901,6.7438,6.6677,6.751,6.8706,6.972,7.0915,7.2001,9.0775,8.7579,7.8293,7.4372,7.4323,7.403,7.5011,7.6778,7.6717,7.6974,7.7047,7.2679,7.0513,6.9963,6.4824,0.0,6.6109,6.6916,6.9706,7.4074,7.4918,7.613,7.7635,7.8369,7.8295,7.7451,7.5799,7.3854,7.1615,6.9889,6.7944,6.5632,6.2622,6.0933,6.075,6.3025,6.5778,6.8752,7.1211,7.3266,7.4735,7.3245,7.2459,7.2275,6.9868,6.8165,6.725,6.4981,6.2603,6.0042,5.5074,5.1527,4.9805,0.0,0.0,0.0,0.0,0.0,0.0,0.0,0.0,0.0,0.0,0.0,0.0,0.0,0.0,0.0,4.9148,0.0,5.0017,4.951,0.0,0.0,0.0,5.1357,5.1466,5.2842,5.4182,5.5088,0.0,0.0,6.1716,6.4033,6.5555,6.57,6.5808,6.646,6.8054,6.8271,6.8778,7.0372,7.1675,7.2871,7.3523,7.4138,7.4464,7.4609,7.5008,7.5189,7.5732,7.5804,7.5623,7.5044,7.4899,7.4392,7.3016,7.2545,7.2472,7.1603,7.2074,7.2581,7.2509,7.3233,7.4,9.5859,9.4357,9.0266,8.6203,8.2467,8.1866,8.2103,8.2829,8.2059,8.0424,7.8185,7.6387,7.4258,7.1872,7.0513,7.0917,7.2679,7.345,7.5102,7.7414,7.8259,7.9176,8.0094,7.969,7.9396,7.9066,7.69,7.5212,7.4001,7.1798,7.0146,6.8935,6.7577,6.5338,6.2438,6.4677,6.6623,6.7981,7.0954,7.2973,7.3927,7.2738,7.1641,7.0697,6.8621,6.6957,6.5713,6.3987,6.1605,5.8542,5.6621,5.4613,5.2375,4.8187,0.0,0.0,0.0,0.0,0.0,0.0,0.0,0.0,0.0,4.4512,4.8315,0.0,4.8532,0.0,5.1285,5.1212,5.0198,5.0452,0.0,0.0,5.0814,5.1792,5.2987,5.4001,5.5377,5.7369,5.8704,6.0082,6.1788,6.3674,6.5234,6.6351,6.7583,6.8887,7.0372,7.0191,7.0372,7.1748,7.1965,7.2291,7.3631,7.4066,7.4211,7.4175,7.4211,7.4283,7.4464,7.3957,7.3667,7.3993,7.316,7.2762,7.345,7.3124,7.2907,7.3197,7.3016,7.269,7.2726,7.3812,7.4863,9.8426,9.7845,9.6094,9.2759,8.8469,8.7524,8.6931,8.6648,8.5478,8.3801,8.1709,8.0167,7.7892,7.5285,7.5579,7.624,7.7084,7.7561,7.8442,7.9653,8.0131,8.0571,8.0975,8.0534,8.0131,7.9727,7.8038,7.6423,7.4918,7.356,7.2129,7.066,7.022,6.8678,6.6219,6.743,6.844,6.9228,7.1704,7.3025,7.3003,7.2153,7.1311,7.0511,6.7707,6.6007,6.5567,6.3387,6.1116,5.8981,5.7867,5.6748,5.5354,5.2029,5.1104,0.0,0.0,0.0,0.0,0.0,0.0,0.0,0.0,0.0,0.0,0.0,4.9836,5.1176,5.1683,5.1756,5.1212,5.1249,5.1393,5.1683,5.2444,5.353,5.5088,5.5957,5.7261,5.9253,6.0211,6.1243,6.2404,6.4307,6.583,6.6714,6.8162,6.9611,7.0698,7.0625,7.0951,7.24,7.2327,7.2436,7.374,7.3921,7.3921,7.3921,7.3921,7.3921,7.3885,7.3559,7.3414,7.374,7.2871,7.2291,7.316,7.2726,7.2364,7.2617,7.2509,7.2472,7.3124,7.3957,7.4573,9.9534,9.9458,9.8296,9.6181,9.3383,9.1783,9.0016,8.81,8.6863,8.582,8.5049,8.3177,8.1122,7.914,7.98,8.0094,8.0094,8.0094,8.0498,8.1158,8.1158,8.1158,8.1158,8.1158,8.0755,7.991,7.9029,7.7414,7.5249,7.4918,7.3707,7.1688,7.1448,7.1044,7.0384,7.0457,7.0731,7.1333,7.282,7.3318,7.2446,7.1647,7.1097,7.0653,6.6921,6.5091,6.5494,6.2713,6.0737,5.9932,5.8611,5.7776,5.7666,5.555,5.4245,0.0,5.2744,0.0,0.0,0.0,0.0,0.0,0.0,0.0,0.0,5.114,5.1502,5.1285,5.1574,5.1973,5.2625,5.2082,5.2335,5.3711,5.4653,5.5776,5.7152,5.8166,5.9289,6.081,6.1607,6.2295,6.3092,6.5084,6.6351,6.6786,6.7728,6.8923,7.0009,7.0191,7.0661,7.211,7.2364,7.24,7.3088,7.345,7.3523,7.3559,7.3486,7.3595,7.3523,7.3523,7.3559,7.3486,7.2907,7.2509,7.2545,7.1965,7.1567,7.1603,7.1603,7.1965,7.3088,7.3595,7.3711,10.0375,10.0251,9.9172,9.8388,9.7654,9.5253,9.0601,8.4722,8.3126,8.226,8.2003,8.281,8.2553,8.1562,8.1672,8.1746,8.1746,8.1746,8.1819,8.1966,8.1966,8.1966,8.1966,8.1966,8.1562,8.0718,7.9286,7.8002,7.6827,7.4882,7.3707,7.323,7.249,7.197,7.1646,0.0,0.0,0.0,7.3113,7.3397,7.3214,7.1706,7.0318,6.9079,6.5823,0.0,6.2462,6.0628,5.9271,5.8427,5.7556,0.0,0.0,0.0,0.0,0.0,0.0,0.0,0.0,0.0,0.0,0.0,5.487,5.4218,5.2263,5.277,5.2697,5.1466,5.3059,5.4001,5.353,5.3929,5.4363,5.4689,5.5921,5.7116,5.8094,5.947,6.0738,6.1643,6.1933,6.2331,6.3056,6.3635,6.4649,6.6388,6.6496,6.7148,6.914,6.9394,6.9539,6.9865,7.0553,7.0915,7.1024,7.1639,7.211,7.1965,7.1965,7.2001,7.2038,7.2001,7.1965,7.2038,7.182,7.1748,7.1748,7.1603,7.1494,7.1494,7.1494,7.1603,7.1929,7.2509,7.2879,10.0604,10.0566,10.0004,9.885,0.0,9.5337,9.0901,8.5034,8.5648,8.5049,8.3696,8.4308,8.3948,8.2737,8.1525,8.0791,8.0351,7.914,7.925,8.0388,8.0424,8.1048,8.2186,8.1782,8.1415,8.0975,7.9764,7.8552,7.7304,7.6093,7.5102,7.4294,7.3347,7.3008,7.3313,7.3349,7.3191,7.2848,7.3287,7.3227,7.2729,7.156,7.0412,6.9189,6.5803,0.0,0.0,0.0,0.0,0.0,0.0,0.0,0.0,5.62,0.0,5.5702,5.5196,5.51,5.5377,5.5088,5.5233,5.5957,5.5993,5.5486,5.4291,5.4255,5.411,5.3675,5.4436,5.487,5.487,5.5196,5.5595,5.6029,5.708,5.8239,5.9434,6.0303,6.1136,6.186,6.2041,6.2186,6.2549,6.3345,6.4178,6.5446,6.5989,6.6605,6.7764,6.838,6.8814,6.9611,7.0046,7.0517,7.0879,7.1205,7.1494,7.1494,7.1494,7.1494,7.1494,7.1205,7.106,7.135,7.1205,7.106,7.1422,7.1494,7.1494,7.1494,7.1494,7.135,7.1096,7.1504,7.1954,10.0604,10.0604,10.0604,9.9037,9.6401,9.518,9.1786,8.7231,0.0,0.0,0.0,8.5367,8.4572,8.3067,8.1122,7.9837,7.9103,7.7121,7.7304,7.9213,7.925,8.0204,8.1929,8.1305,8.1012,8.0975,8.0167,7.9176,7.7965,7.7561,7.6582,7.5299,7.4165,7.3995,7.4482,7.3788,7.3289,7.3166,7.3349,7.3057,7.2206,7.1391,7.0595,6.9644,6.595,6.3548,6.2493,6.0311,5.8773,5.8019,5.7977,5.7904,5.7726,5.7251,5.6864,5.6637,5.6104,5.6055,5.6573,5.6066,5.621,5.7333,5.679,5.6247,5.5848,5.5377,5.5305,5.5776,5.5486,5.5558,5.6138,5.6355,5.6754,5.755,5.8347,5.9398,6.0593,6.0955,6.1317,6.1897,6.2041,6.2041,6.2078,6.3273,6.4178,6.4359,6.5518,6.6677,6.6858,6.7438,6.8199,6.9213,6.9539,7.0118,7.0698,7.1132,7.1277,7.1241,7.1277,7.1313,7.1205,7.0698,7.048,7.0879,7.0553,7.0553,7.1096,7.1241,7.135,7.1458,7.1386,7.1132,7.0527,7.0581,7.0714,10.0604,10.0604,10.0604,10.0298,9.9801,9.7963,9.487,9.0744,8.6159,8.3226,8.1847,8.3141,8.3251,8.2333,8.2003,8.1782,8.1672,8.1305,8.1379,8.1709,8.1672,8.1489,8.1195,8.1048,8.1012,8.0938,8.0167,8.0021,8.0204,7.8332,7.7133,7.658,7.5139,7.4196,7.3978,7.3416,7.3016,7.2753,7.3104,7.313,7.2834,7.1441,6.995,6.8422,6.5387,6.296,6.1448,5.9821,5.8799,5.864,5.8032,5.7667,5.7667,5.8068,5.831,5.8296,5.8704,5.8999,5.9072,5.8999,5.8746,5.8275,5.813,5.7224,5.5269,5.5522,5.5631,5.5196,5.6174,5.6899,5.708,5.7659,5.8383,5.9144,5.9977,6.0593,6.0846,6.1426,6.186,6.2005,6.2041,6.2041,6.2114,6.2838,6.3454,6.3635,6.4903,6.6025,6.6605,6.6895,6.704,6.7329,6.7909,6.8343,6.8995,6.972,7.0444,7.0517,7.0589,7.0553,7.0625,6.9937,6.9502,6.9539,6.9466,6.972,7.0408,7.0553,7.0842,7.1241,7.1024,7.0454,7.004,6.9553,6.9101,10.0604,10.0527,10.0145,9.9954,9.9801,9.7391,9.4592,9.1612,8.7942,8.5595,8.4484,8.5002,8.4442,8.3033,8.1708,8.0798,8.0204,7.8846,7.8956,8.0204,8.0241,8.0755,8.1562,8.1195,8.1232,8.1562,8.0388,8.014,8.0626,7.9233,7.8153,7.755,7.6263,7.5051,7.3921,7.3752,7.3352,7.2726,7.2543,7.2169,7.1671,7.0581,6.92,6.7716,6.5806,6.3875,6.1855,6.1105,6.0304,5.9379,5.9065,5.8883,5.8833,5.9161,5.9292,5.9175,5.9502,5.9667,5.9615,5.9615,5.9434,5.9108,5.9035,5.8456,5.6935,5.6717,5.6681,5.679,5.7478,5.8058,5.8456,5.9216,5.9868,6.0231,6.0991,6.1462,6.1498,6.1752,6.2005,6.2041,6.2041,6.2041,6.2041,6.2693,6.3382,6.3816,6.4903,6.57,6.6098,6.6134,6.6496,6.7293,6.7764,6.8416,6.9068,6.943,7.0082,7.0806,7.0263,7.0009,7.0154,6.943,6.885,6.9032,6.885,6.9104,7.0082,7.0408,7.0589,7.0698,7.0599,7.003,6.9038,6.7986,6.7581,10.0604,10.0527,9.9725,9.9152,9.8655,9.6523,9.4247,9.1936,9.0389,8.8897,8.751,8.6571,8.5312,8.3767,8.1821,8.0382,7.925,7.7635,7.7818,7.9286,7.9396,8.0314,8.1746,8.1269,8.1342,8.1746,8.0645,8.0397,8.089,8.0231,7.9186,7.8041,7.7225,7.5937,7.4211,7.4305,7.3905,7.2979,7.2309,7.1609,7.081,7.0048,6.8982,6.7716,6.6697,6.5149,6.3112,6.2529,6.1693,6.0389,6.0056,5.9874,5.9771,6.0056,6.0077,5.9868,6.0155,6.0264,6.0158,6.0158,6.0086,5.9905,5.9868,5.9542,5.8746,5.813,5.7913,5.8347,5.8528,5.8999,5.9724,6.0375,6.0883,6.1064,6.1607,6.1969,6.2005,6.2041,6.2041,6.2041,6.2041,6.2041,6.215,6.2693,6.3454,6.4251,6.4685,6.4867,6.5192,6.5337,6.5953,6.7003,6.7619,6.8054,6.9358,6.9249,6.9394,7.0589,6.972,6.9285,6.9358,6.8597,6.8017,6.8343,6.8126,6.8307,6.9466,6.9792,6.9865,6.9911,6.9705,6.9038,6.7616,6.6746,6.6316,10.0604,10.0489,9.9725,9.8502,9.7165,9.6814,9.5151,9.2699,9.2152,9.0499,8.8022,8.5343,8.4162,8.3878,8.3263,8.2545,8.1819,8.237,8.2223,8.1782,8.1856,8.1599,8.1232,8.1048,8.1048,8.1158,8.0938,8.1232,8.1864,8.1167,7.9865,7.8151,7.7601,7.6565,7.5189,7.4971,7.4609,7.3812,7.3016,7.2219,7.1422,7.0661,6.989,6.9056,6.7534,6.6301,6.5177,6.3164,6.1969,6.1679,6.0465,5.9704,5.9724,6.0303,6.0701,6.0738,6.1353,6.1788,6.1752,6.1788,6.1426,6.0774,6.0701,6.0339,5.9615,5.9434,5.9072,5.8782,5.9108,5.9832,6.0593,6.081,6.1136,6.1716,6.1933,6.2041,6.2041,6.2041,6.2041,6.2041,6.2041,6.2041,6.2114,6.2693,6.3454,6.4033,6.3418,6.3309,6.4287,6.4613,6.4939,6.5772,6.6424,6.6967,6.7438,6.7764,6.8271,6.8488,6.8307,6.8271,6.8199,6.7764,6.7003,6.7366,6.7148,6.7438,6.8017,6.8235,6.85,6.8873,6.8461,6.7605,6.6505,6.6057,6.6137,10.1062,10.0489,9.919,9.7662,9.6286,9.6668,9.5311,9.2755,9.2585,9.1253,8.9049,8.6986,8.5403,8.4225,8.4003,8.3345,8.226,8.2553,8.2517,8.2186,8.2186,8.2003,8.1746,8.1709,8.1709,8.1636,8.1232,8.1285,8.1563,8.0813,7.9662,7.8436,7.7792,7.671,7.5261,7.5116,7.4718,7.3921,7.3595,7.3052,7.2183,7.1024,6.9756,6.8561,6.7836,6.6895,6.57,6.4613,6.3708,6.2766,6.2078,6.1498,6.1064,6.1353,6.1534,6.1534,6.1824,6.2041,6.2041,6.2041,6.186,6.1534,6.1534,6.1172,6.0448,6.0738,6.0701,6.005,6.0122,6.0629,6.1353,6.1534,6.1679,6.1969,6.2041,6.2041,6.2041,6.2041,6.2041,6.2041,6.2041,6.2041,6.2114,6.2693,6.3056,6.3128,6.2693,6.3056,6.3635,6.407,6.4722,6.5482,6.6279,6.6967,6.7329,6.7293,6.7692,6.8235,6.7873,6.7402,6.7728,6.7329,6.6822,6.6786,6.6786,6.7112,6.7945,6.7981,6.8066,6.8053,6.7374,6.6469,6.5967,6.5895,6.5832,10.1177,10.0375,9.8808,9.728,9.6019,9.6363,9.528,9.3229,9.284,9.1786,9.0142,8.8768,8.7043,8.5328,8.4977,8.3977,8.2435,8.2847,8.281,8.2296,8.2406,8.2406,8.2223,8.2186,8.2186,8.2113,8.1636,8.1505,8.1574,8.0863,7.9856,7.8843,7.8122,7.7036,7.5587,7.5442,7.5152,7.4609,7.4392,7.3957,7.3269,7.2038,7.048,6.8887,6.8669,6.7909,6.6351,6.6062,6.5301,6.3925,6.3635,6.3273,6.273,6.2476,6.2259,6.2041,6.2041,6.2041,6.2041,6.2041,6.2041,6.2041,6.2041,6.1752,6.139,6.1679,6.1716,6.1245,6.1136,6.1426,6.1897,6.2041,6.2041,6.2041,6.2041,6.2041,6.2041,6.2041,6.2041,6.2041,6.2041,6.2041,6.2114,6.2657,6.2983,6.2331,6.2693,6.3056,6.3019,6.3526,6.4251,6.4867,6.5591,6.6388,6.7112,6.6858,6.7112,6.7221,6.6786,6.6605,6.7148,6.6641,6.6569,6.6424,6.6641,6.6895,6.7329,6.7583,6.7391,6.6993,6.6459,6.5851,6.5475,6.559,6.5768,10.0642,10.0375,9.8808,9.7662,9.6783,9.6095,9.5178,9.4141,9.3153,9.2146,9.114,8.9906,8.8463,8.7001,8.6462,8.4783,8.2802,8.4389,8.4168,8.248,8.292,8.292,8.2223,8.2186,8.2186,8.2186,8.2076,8.1945,8.1885,8.161,8.0604,7.9085,7.8735,7.7833,7.6456,7.6239,7.6203,7.5985,7.537,7.5008,7.4863,7.4102,7.2509,7.0517,7.0263,6.9466,6.7981,6.7148,6.6351,6.5518,6.4758,6.4287,6.4178,6.349,6.2766,6.2223,6.2041,6.2041,6.2078,6.2041,6.2041,6.2041,6.2005,6.2005,6.1897,6.1933,6.1969,6.1933,6.186,6.1933,6.2005,6.2041,6.2041,6.2041,6.2041,6.2041,6.2041,6.2041,6.2041,6.2041,6.2041,6.215,6.2114,6.2693,6.2802,6.244,6.273,6.2947,6.244,6.2802,6.3345,6.3599,6.4142,6.4794,6.5482,6.5917,6.5518,6.5808,6.6279,6.57,6.5482,6.5482,6.5844,6.617,6.6533,6.675,6.6822,6.6691,6.6391,6.6139,6.6172,6.5708,6.534,6.5518,6.5697,10.0795,9.984,9.9763,9.8655,9.6974,9.7089,9.6133,9.4376,9.3371,9.2487,9.1566,9.0409,8.9199,8.8065,8.8166,8.6273,8.3243,8.3911,8.3801,8.2957,8.2774,8.2737,8.292,8.2443,8.2186,8.2186,8.2186,8.2055,8.1751,8.1547,8.083,7.9819,7.9462,7.8666,7.7326,7.7036,7.6818,7.6311,7.5985,7.5623,7.5152,7.4319,7.3233,7.1965,7.135,7.0372,6.8814,6.7981,6.7184,6.6388,6.5591,6.4903,6.4396,6.3635,6.3309,6.3418,6.2585,6.2223,6.2621,6.2295,6.2041,6.2041,6.2041,6.2041,6.2041,6.2041,6.2041,6.2041,6.2041,6.2041,6.2041,6.2041,6.2041,6.2041,6.2041,6.2041,6.2041,6.2041,6.2041,6.2041,6.2041,6.2367,6.3092,6.3345,6.3092,6.2875,6.3019,6.2802,6.2367,6.2693,6.3128,6.3309,6.3852,6.4287,6.3961,6.5084,6.5591,6.5989,6.6243,6.6279,6.617,6.6134,6.646,6.6315,6.6569,6.646,6.6365,6.6053,6.5718,6.597,6.5966,6.5779,6.5447,6.559,6.5697,10.0833,9.9916,10.0107,9.9075,9.7432,9.7585,9.6592,9.4758,9.3879,9.3191,9.246,9.1171,9.0067,8.9335,8.9314,8.7717,8.4978,8.5064,8.4643,8.3687,8.3355,8.3217,8.2884,8.2443,8.2186,8.2186,8.2121,8.1922,8.1547,8.1445,8.0905,7.9933,7.9897,7.9245,7.8086,7.7869,7.7579,7.7108,7.6818,7.642,7.5841,7.5116,7.4283,7.3486,7.269,7.1422,6.9684,6.9068,6.8416,6.7619,6.704,6.6279,6.5229,6.4396,6.407,6.4251,6.3418,6.2983,6.3418,6.3056,6.2693,6.2404,6.2404,6.2331,6.2078,6.2041,6.2041,6.2041,6.2041,6.2041,6.2041,6.2041,6.2041,6.2041,6.2041,6.2041,6.2041,6.2041,6.2041,6.2041,6.2041,6.2657,6.3635,6.3418,6.3237,6.32,6.32,6.2875,6.2295,6.244,6.2802,6.2838,6.3164,6.3382,6.3418,6.4142,6.4541,6.4903,6.5736,6.6098,6.6496,6.6605,6.6641,6.6496,6.6315,6.6039,6.5764,6.5393,6.5527,6.5873,6.5904,6.5779,6.5617,6.559,6.5697,10.0604,10.0413,9.9763,9.8923,9.7967,9.728,9.6439,9.5484,9.4681,9.4223,9.3797,9.2284,9.1178,9.0711,8.9944,8.8715,8.7824,8.8128,8.6929,8.4614,8.5,8.4151,8.2508,8.2435,8.226,8.2186,8.1989,8.1751,8.1445,8.1375,8.0905,8.0078,8.0006,7.9607,7.8702,7.8702,7.8666,7.8303,7.7688,7.7362,7.7362,7.642,7.5623,7.4971,7.4175,7.2726,7.0589,7.0335,6.9828,6.9213,6.9032,6.838,6.6931,6.6062,6.5337,6.4903,6.4504,6.4432,6.4432,6.4396,6.3925,6.3345,6.32,6.2911,6.2295,6.215,6.2114,6.2041,6.2041,6.2041,6.2041,6.2041,6.2041,6.2041,6.2041,6.2041,6.2041,6.2041,6.2041,6.2078,6.215,6.2404,6.3019,6.349,6.3563,6.3526,6.3382,6.3128,6.2476,6.2367,6.2078,6.215,6.2404,6.2621,6.2911,6.32,6.3237,6.3454,6.4432,6.5156,6.5772,6.6025,6.617,6.6062,6.5663,6.5446,6.5561,6.5298,6.5322,6.55,6.5653,6.5815,6.5653,6.559,6.5732,10.0604,10.0489,9.9725,9.8923,9.8044,9.7241,9.6401,9.556,9.4758,9.4414,9.4141,9.3104,9.222,9.1597,9.1126,9.051,8.9733,8.9839,8.8407,8.5938,8.5728,8.5023,8.3593,8.3382,8.2895,8.2128,8.1952,8.1683,8.1445,8.1375,8.116,8.0766,8.073,8.0295,7.9571,7.9499,7.9064,7.7941,7.7615,7.7253,7.6674,7.5913,7.537,7.508,7.4356,7.3486,7.2798,7.1277,7.0299,7.0046,6.9466,6.8923,6.838,6.7692,6.7402,6.7547,6.6605,6.6062,6.5989,6.5518,6.4903,6.4215,6.4033,6.3635,6.2947,6.2838,6.2585,6.215,6.2041,6.2041,6.2041,6.2041,6.2041,6.2041,6.2041,6.2041,6.2078,6.2078,6.2295,6.273,6.2802,6.3418,6.4432,6.4794,6.4613,6.4577,6.4251,6.3744,6.349,6.2512,6.2331,6.2657,6.244,6.215,6.2585,6.2911,6.2983,6.3382,6.4178,6.4722,6.5229,6.5663,6.5736,6.5591,6.5156,6.5026,6.5141,6.5238,6.5202,6.5536,6.5842,6.5752,6.5582,6.559,6.5732,10.0413,10.0107,9.961,9.8732,9.7662,9.7089,9.6401,9.5598,9.5064,9.4834,9.4681,9.3955,9.3268,9.2695,9.2121,9.1548,9.1052,9.0746,8.9315,8.7321,8.6959,8.5919,8.4238,8.3751,8.317,8.2367,8.2226,8.1838,8.1305,8.1305,8.1234,8.1092,8.1092,8.0875,8.0332,8.0042,7.9318,7.8448,7.7796,7.7253,7.671,7.5985,7.5551,7.5442,7.479,7.4392,7.4247,7.2581,7.1675,7.1494,7.0661,6.9999,6.9794,6.8947,6.8669,6.885,6.8343,6.7692,6.7619,6.6967,6.6134,6.5446,6.5011,6.4468,6.3852,6.3635,6.3345,6.3019,6.2947,6.2911,6.2911,6.2585,6.2476,6.2476,6.2186,6.2186,6.2331,6.2476,6.2838,6.3382,6.3635,6.4323,6.5156,6.5265,6.5192,6.5048,6.4468,6.3744,6.3454,6.2621,6.2657,6.2657,6.2295,6.2223,6.244,6.2621,6.2766,6.3454,6.4323,6.4649,6.5011,6.541,6.5627,6.5243,6.4882,6.4788,6.4924,6.5071,6.5105,6.5546,6.5922,6.5824,6.5625,6.5697,6.5804,10.0145,9.9496,9.9419,9.8579,9.728,9.7012,9.6477,9.5789,9.556,9.5522,9.5369,9.4758,9.4376,9.3955,9.2771,9.2045,9.1663,9.109,9.016,8.917,8.8673,8.7396,8.4934,8.388,8.3166,8.2746,8.2606,8.2031,8.1128,8.1092,8.1092,8.1092,8.1092,8.1092,8.0875,8.0332,7.9969,7.9535,7.8412,7.776,7.7543,7.6782,7.6348,7.6311,7.5623,7.5189,7.5044,7.4421,7.4014,7.3704,7.2219,7.133,7.0956,6.9975,6.9575,6.9684,6.943,6.9285,6.914,6.838,6.7619,6.6822,6.6062,6.5337,6.4613,6.4432,6.4359,6.4142,6.4142,6.4251,6.407,6.3671,6.3309,6.3164,6.2512,6.2367,6.2947,6.3056,6.3345,6.3997,6.4359,6.4685,6.5374,6.4903,6.4722,6.4396,6.3925,6.3418,6.3128,6.2947,6.2404,6.2476,6.2838,6.2621,6.2911,6.3164,6.3237,6.3345,6.4215,6.4685,6.4867,6.5192,6.5265,6.4918,6.499,6.4802,6.4829,6.5107,6.5356,6.5734,6.5958,6.5832,6.5804,6.5804,6.5839,10.0489,10.0222,9.9649,9.9152,9.8579,9.7471,9.6783,9.6477,9.5866,9.5675,9.556,9.5369,9.4949,9.4376,9.3917,9.3038,9.2083,9.1625,9.1052,9.0355,9.0732,8.9237,8.657,8.4755,8.361,8.3034,8.2822,8.2067,8.1165,8.12,8.1092,8.1092,8.1092,8.1092,8.102,8.0839,8.0476,7.9969,7.9571,7.8883,7.8303,7.7579,7.7181,7.7108,7.6384,7.5985,7.6052,7.6254,7.5614,7.4269,7.3107,7.2744,7.313,7.2263,7.1639,7.1639,7.1639,7.1205,7.0154,6.9321,6.8525,6.7764,6.7003,6.617,6.5374,6.5301,6.5011,6.4613,6.4396,6.4504,6.4432,6.4251,6.4106,6.3925,6.2947,6.2295,6.2549,6.2875,6.3309,6.3563,6.4577,6.4939,6.4867,6.4975,6.4903,6.4504,6.4215,6.4106,6.3889,6.3744,6.3418,6.407,6.4323,6.3708,6.3454,6.3708,6.3744,6.3454,6.4033,6.4794,6.4903,6.5048,6.4867,6.4504,6.5337,6.5438,6.5465,6.5574,6.5848,6.6048,6.5895,6.5804,6.5804,6.5839,6.5911,10.0757,10.0069,9.9572,9.919,9.877,9.7815,9.7394,9.7241,9.6515,9.6133,9.6057,9.5713,9.5331,9.4911,9.4529,9.3879,9.2962,9.2504,9.1892,9.1162,9.0911,8.998,8.8446,8.6561,8.5115,8.4543,8.3948,8.3061,8.213,8.166,8.1339,8.1163,8.1092,8.1092,8.1092,8.073,8.0404,7.9897,7.9607,7.9136,7.8666,7.8267,7.805,7.7833,7.7217,7.6741,7.681,7.7524,7.7095,7.5471,7.4616,7.4434,7.4507,7.3869,7.3389,7.3197,7.2907,7.2255,7.1386,7.0335,6.9502,6.8995,6.8271,6.7655,6.7257,6.7112,6.6822,6.6605,6.6424,6.6388,6.6279,6.5844,6.512,6.4396,6.3563,6.3164,6.3454,6.3671,6.3889,6.4251,6.4649,6.4939,6.4432,6.4867,6.4794,6.4541,6.4359,6.4541,6.4685,6.4613,6.4541,6.4867,6.4903,6.4178,6.3889,6.4106,6.4794,6.4541,6.4468,6.5156,6.5301,6.5301,6.5156,6.512,6.5736,6.6039,6.603,6.6019,6.6053,6.6146,6.5931,6.5839,6.5875,6.6125,6.6161,10.0948,9.9496,9.9496,9.9075,9.8502,9.8273,9.8235,9.8082,9.7203,9.6821,9.663,9.5981,9.556,9.556,9.4911,9.4452,9.4261,9.3497,9.2886,9.2035,9.1279,9.0608,9.1003,8.8261,8.6877,8.652,8.5757,8.4589,8.3537,8.27,8.2068,8.1733,8.1557,8.1411,8.1372,8.0721,8.0288,8.0215,7.9747,7.9423,7.9209,7.8992,7.8847,7.8702,7.8182,7.7778,7.788,7.847,7.8438,7.6397,7.6449,7.5927,7.5212,7.4897,7.4378,7.4087,7.3587,7.3016,7.2472,7.1241,7.0408,7.0118,6.9466,6.9176,6.8887,6.8742,6.8706,6.8561,6.9104,6.8742,6.8597,6.7728,6.6569,6.5518,6.4903,6.5156,6.5374,6.5011,6.4794,6.5446,6.4939,6.4722,6.4504,6.4504,6.4504,6.4504,6.4541,6.4903,6.5156,6.5229,6.5011,6.483,6.4722,6.4396,6.4359,6.4468,6.5337,6.5808,6.5627,6.5881,6.6025,6.6025,6.5881,6.6025,6.6641,6.6714,6.6401,6.6427,6.6499,6.6207,6.6057,6.6002,6.5982,6.6446,6.6624,10.1292,10.0336,10.0336,10.026,9.9992,9.9419,9.9114,9.8999,9.7547,9.705,9.6706,9.5981,9.5637,9.5598,9.5407,9.5025,9.4529,9.4185,9.3955,9.3803,9.2837,9.2907,9.2679,8.9959,8.8016,8.7473,8.6926,8.5855,8.4854,8.4719,8.4125,8.28,8.3051,8.3076,8.227,8.2031,8.1884,8.1586,8.1136,8.0721,8.0366,7.9967,7.9677,7.9638,7.9384,7.9081,7.922,8.0223,7.9887,7.8146,7.7086,7.6955,7.6759,7.5971,7.5379,7.5179,7.4776,7.3993,7.2871,7.1929,7.1024,7.0625,7.0046,6.9176,6.9176,6.9394,6.9321,6.9213,6.9176,6.9394,6.9213,6.8923,6.809,6.7293,6.704,6.6931,6.6533,6.5808,6.5446,6.5591,6.5881,6.6025,6.5374,6.5229,6.5048,6.4649,6.4867,6.5265,6.5591,6.5917,6.57,6.5482,6.5229,6.5156,6.5446,6.57,6.646,6.704,6.6895,6.6822,6.6967,6.6858,6.675,6.7076,6.7619,6.7474,6.7257,6.7065,6.7209,6.6665,6.6227,6.6352,6.651,6.6903,6.7338,10.175,10.0642,10.0604,10.0604,10.0527,10.0145,9.9954,9.9725,9.8655,9.7853,9.7356,9.6592,9.5981,9.5637,9.5981,9.5751,9.5102,9.4949,9.5178,9.514,9.4376,9.3955,9.395,9.2157,9.031,8.9792,8.9258,8.8241,8.7208,8.659,8.5632,8.3851,8.4471,8.3952,8.3052,8.3163,8.2906,8.227,8.1908,8.1647,8.1299,8.1008,8.0734,8.0919,8.112,8.1174,8.0539,8.1645,8.1382,8.0226,7.9237,7.8369,7.7842,7.7082,7.6558,7.6145,7.5616,7.4958,7.3913,7.3124,7.2509,7.2038,7.1603,7.1494,7.1386,7.1386,7.1386,7.1313,7.106,7.0625,6.9865,6.9756,6.9358,6.8778,6.8561,6.8343,6.7764,6.6569,6.5591,6.5591,6.5518,6.5374,6.5192,6.57,6.5917,6.5663,6.6315,6.6714,6.6822,6.704,6.6714,6.6424,6.6098,6.6098,6.6533,6.704,6.78,6.8126,6.8126,6.8162,6.8271,6.8017,6.7728,6.8126,6.8561,6.8561,6.838,6.815,6.7883,6.759,6.733,6.7068,6.7082,6.7517,6.8052,10.2247,10.0757,10.068,10.0604,10.0604,10.0566,10.0527,10.0451,9.9725,9.8846,9.8197,9.7356,9.6515,9.6248,9.6324,9.6172,9.5751,9.556,9.5789,9.6019,9.5407,9.4872,9.4561,9.409,9.3503,9.3106,9.1862,9.06,8.9559,8.8828,8.7732,8.5616,8.5898,8.5582,8.429,8.4137,8.4302,8.352,8.3024,8.2729,8.2355,8.2275,8.2049,8.2171,8.2705,8.2719,8.2222,8.2783,8.3077,8.2104,8.1871,8.0533,7.9019,7.8064,7.7791,7.7139,7.6418,7.558,7.4892,7.4356,7.3957,7.3993,7.3812,7.3776,7.3667,7.3486,7.3414,7.3305,7.2834,7.1857,7.077,7.0553,7.0154,6.9611,6.9358,6.9285,6.885,6.7293,6.6605,6.6315,6.6351,6.6134,6.6025,6.6315,6.6533,6.6858,6.751,6.7873,6.7909,6.7728,6.7148,6.6786,6.6351,6.6714,6.7148,6.751,6.838,6.8923,6.9032,6.9176,6.9285,6.914,6.8923,6.9104,6.9358,6.9358,6.9285,6.9043,6.8749,6.8562,6.8219,6.774,6.7862,6.8195,6.8837,10.2591,10.1635,10.0909,10.0604,10.0604,10.0604,10.0604,10.0451,9.9763,9.9343,9.8961,9.7623,9.7318,9.7241,9.621,9.5789,9.5866,9.5828,9.5866,9.621,9.6057,9.6019,9.5598,9.6133,9.6089,9.4981,9.3746,9.2594,9.1898,9.1767,9.0247,8.8668,8.873,8.8116,8.6636,8.6213,8.6162,8.5601,8.494,8.4595,8.4447,8.3903,8.3507,8.3488,8.3854,8.3664,8.3569,8.3975,8.3814,8.2302,8.2632,8.2122,8.105,7.9911,7.9146,7.833,7.7524,7.6637,7.5604,7.5189,7.4609,7.4138,7.4211,7.4138,7.4102,7.403,7.4247,7.3812,7.3269,7.2364,7.1458,7.1241,7.0915,7.0444,7.0154,6.9973,6.9394,6.8778,6.8416,6.8307,6.7873,6.7257,6.7148,6.7112,6.7366,6.7474,6.7655,6.7728,6.7547,6.7293,6.6858,6.6569,6.6351,6.7003,6.7728,6.8054,6.8561,6.9285,6.9575,6.9828,6.9937,7.0118,7.0191,7.0154,7.0154,7.0154,7.0046,6.9839,6.957,6.9209,6.8794,6.8407,6.8929,6.9408,6.9943,10.2018,10.1215,10.0757,10.0604,10.0604,10.0604,10.0604,10.0527,10.0183,9.9763,9.9266,9.8541,9.812,9.7929,9.7394,9.6898,9.6783,9.6401,9.6515,9.6859,9.6898,9.6745,9.6324,9.7241,9.6974,9.6363,9.5707,9.4617,9.3259,9.3326,9.2212,9.0777,9.0813,9.0245,8.896,8.8772,8.8428,8.7953,8.6967,8.6356,8.6303,8.544,8.5059,8.4929,8.4871,8.473,8.4429,8.4597,8.4475,8.3729,8.3747,8.3624,8.3137,8.2397,8.1153,7.9744,7.8869,7.8086,7.7093,7.6905,7.6818,7.6565,7.6311,7.6167,7.5913,7.5804,7.5297,7.4537,7.3776,7.2979,7.2219,7.182,7.135,7.106,7.0987,7.0806,7.0408,7.0046,7.0082,7.0118,6.9213,6.8488,6.809,6.8126,6.8271,6.8199,6.8054,6.7764,6.7474,6.7329,6.7184,6.7329,6.7366,6.8126,6.8778,6.8995,6.9249,6.9792,7.0154,7.0408,7.0589,7.077,7.0879,7.0951,7.0951,7.0842,7.0734,7.0553,7.022,6.9849,6.9325,6.916,6.9935,7.0621,7.1085,10.1674,10.0871,10.068,10.0604,10.0604,10.0604,10.0604,10.0604,10.0566,10.0222,9.9649,9.9228,9.8846,9.8655,9.8426,9.8235,9.8082,9.7356,9.7509,9.7776,9.7738,9.7394,9.7203,9.7471,9.7623,9.7318,9.7738,9.715,9.5362,9.4791,9.3535,9.2543,9.2531,9.1875,9.0738,9.0663,9.0537,8.9928,8.8781,8.8035,8.7361,8.6947,8.6501,8.615,8.6047,8.564,8.5242,8.4939,8.509,8.4845,8.476,8.4627,8.4997,8.4854,8.3464,8.1312,8.065,7.9989,7.926,7.888,7.8727,7.8296,7.8626,7.8195,7.7507,7.6782,7.6456,7.5334,7.4573,7.3812,7.3052,7.2436,7.2146,7.2074,7.2074,7.1965,7.182,7.1567,7.1277,7.0951,7.0191,6.9828,6.9539,6.9104,6.9249,6.9032,6.885,6.8561,6.8271,6.8235,6.8235,6.8452,6.8778,6.9466,6.9973,7.0191,7.0408,7.077,7.0915,7.106,7.1205,7.135,7.1458,7.1458,7.135,7.1241,7.1205,7.1168,7.0862,7.0382,6.9821,7.0015,7.079,7.144,7.187,10.2552,10.1674,10.0909,10.0604,10.0604,10.0604,10.0604,10.0604,10.0604,10.0566,10.026,9.9114,9.9152,9.9687,9.9381,9.8808,9.8273,9.7967,9.7891,9.812,9.8464,9.8349,9.8235,9.9572,9.8846,9.8311,9.8846,9.8617,9.7456,9.6638,9.5743,9.4686,9.378,9.3074,9.2178,9.2101,9.1846,9.1723,9.0637,8.942,8.8451,8.8318,8.7939,8.7317,8.6635,8.6142,8.5962,8.5545,8.5431,8.5848,8.5233,8.5271,8.5726,8.5685,8.5232,8.433,8.3494,8.2479,8.1316,8.0736,8.0162,7.9662,7.9235,7.8408,7.7869,7.7036,7.6311,7.5297,7.4971,7.4609,7.3921,7.3631,7.3595,7.345,7.3269,7.3342,7.3305,7.2617,7.24,7.2255,7.1639,7.1422,7.1205,7.0661,7.0191,6.9937,6.9647,6.9285,6.9068,6.8995,6.9032,6.9249,6.9611,7.0263,7.0589,7.0915,7.1132,7.1494,7.1675,7.1712,7.182,7.1893,7.182,7.1784,7.1748,7.182,7.1893,7.1757,7.144,7.1167,7.093,7.1165,7.1681,7.2188,7.2691,10.1941,10.1139,10.0757,10.0604,10.0604,10.0604,10.0604,10.0604,10.0604,10.0604,10.0489,9.9916,9.9725,9.984,9.9496,9.8923,9.8235,9.8158,9.812,9.8158,9.8579,9.8541,9.8464,9.9266,9.9305,9.9343,9.9572,9.9954,9.9144,9.802,9.6848,9.5931,9.5425,9.4756,9.3858,9.3591,9.3591,9.3364,9.2655,9.1619,9.0739,9.0158,8.9601,8.8767,8.7933,8.7326,8.6834,8.6606,8.6455,8.6796,8.6417,8.6455,8.6872,8.7079,8.7079,8.636,8.6279,8.5262,8.3595,8.295,8.2062,8.1396,8.083,8.0259,7.9028,7.7688,7.6891,7.6529,7.5587,7.5044,7.4609,7.4175,7.3957,7.3957,7.4211,7.4102,7.4066,7.374,7.3342,7.3233,7.3088,7.2726,7.2255,7.1458,7.077,7.0263,7.0009,6.9756,6.9611,6.9611,6.972,6.9901,7.0335,7.0842,7.106,7.1241,7.1386,7.1712,7.2255,7.2291,7.24,7.2436,7.2472,7.2472,7.2545,7.2617,7.2653,7.2219,7.1721,7.1817,7.2083,7.2422,7.2789,7.3153,7.3654,10.1368,10.0604,10.0604,10.0604,10.0604,10.0604,10.0604,10.0604,10.0604,10.0604,10.0604,10.0489,10.0107,9.9649,9.961,9.9458,9.8846,9.8732,9.8732,9.8732,9.8732,9.8846,9.9114,9.9572,9.9801,9.9687,10.0145,10.0413,10.0099,9.9326,9.8154,9.7034,9.6679,9.6199,9.5692,9.5362,9.5248,9.449,9.4073,9.315,9.2216,9.1609,9.1041,9.0321,8.9487,8.8615,8.8084,8.744,8.7326,8.7668,8.7364,8.7289,8.7705,8.8047,8.8074,8.7771,8.7915,8.766,8.5994,8.4916,8.4007,8.3135,8.2175,8.0984,7.9897,7.8557,7.7796,7.7688,7.6637,7.5985,7.5587,7.508,7.4826,7.4863,7.4935,7.4718,7.4537,7.4573,7.4392,7.4066,7.3885,7.3667,7.3088,7.2146,7.1386,7.0698,7.0372,7.0263,7.0444,7.0734,7.106,7.1386,7.1313,7.182,7.2074,7.211,7.2038,7.211,7.2617,7.2943,7.3088,7.3269,7.3414,7.3414,7.3378,7.3305,7.3305,7.2617,7.1974,7.2568,7.3086,7.346,7.3828,7.4154,7.4404,10.1406,10.0604,10.0604,10.0604,10.0604,10.0604,10.0604,10.0604,10.0604,10.0604,10.0604,10.0566,10.0183,9.9763,10.0107,10.0336,10.0336,10.0413,10.0222,10.0222,10.0375,10.0145,10.0183,10.026,10.0413,10.0413,10.0566,10.0566,10.0566,10.0336,9.9632,9.8992,9.792,9.7515,9.711,9.6755,9.612,9.5437,9.4945,9.4149,9.3163,9.2519,9.2254,9.1837,9.07,8.9676,8.9638,8.8539,8.8084,8.8615,8.8084,8.7971,8.8463,8.8691,8.8653,8.8529,8.8832,8.8671,8.7765,8.5968,8.4199,8.3337,8.2336,8.1272,8.0438,7.9318,7.8738,7.8593,7.776,7.7362,7.7072,7.671,7.6384,7.6239,7.6348,7.6384,7.6203,7.5949,7.5659,7.508,7.4754,7.4645,7.4573,7.3812,7.2943,7.2255,7.2183,7.211,7.2436,7.2726,7.3016,7.3124,7.269,7.2907,7.3414,7.3342,7.2871,7.3052,7.3523,7.3704,7.3849,7.4066,7.4464,7.4247,7.4175,7.403,7.3885,7.3486,7.3277,7.3682,7.4055,7.4251,7.4617,7.4977,7.5046,10.0909,10.0604,10.0604,10.0604,10.0604,10.0604,10.0604,10.0604,10.0604,10.0604,10.0604,10.0566,10.0451,10.0298,10.0375,10.0604,10.0604,10.0604,10.0604,10.0604,10.0566,10.0604,10.0604,10.0604,10.0566,10.0604,10.0604,10.0604,10.0604,10.0604,10.0489,9.9775,9.8982,9.8198,9.7832,9.7655,9.702,9.6612,9.6309,9.5854,9.5475,9.4262,9.3846,9.3694,9.2216,9.142,9.1192,9.0283,9.0017,8.979,8.9222,8.9108,8.9146,8.9259,8.907,8.8729,8.907,8.8908,8.8596,8.708,8.6276,8.4669,8.3322,8.199,8.1448,8.0726,7.9933,7.9535,7.9173,7.881,7.8231,7.8376,7.8448,7.8086,7.7941,7.8014,7.7688,7.7289,7.7,7.6384,7.6058,7.5841,7.5804,7.5696,7.479,7.3957,7.3957,7.3957,7.4102,7.4175,7.4283,7.4211,7.3776,7.3631,7.4102,7.3921,7.3595,7.3993,7.4428,7.4537,7.4718,7.5297,7.5551,7.5261,7.5008,7.4935,7.479,7.4537,7.4471,7.4652,7.4776,7.4865,7.5263,7.5728,7.5833,10.0604,10.0604,10.0604,10.0604,10.0604,10.0604,10.0604,10.0604,10.0604,10.0604,10.0604,10.0604,10.0604,10.0604,10.0604,10.0604,10.0604,10.0604,10.0604,10.0604,10.0604,10.0604,10.0604,10.0604,10.0604,10.0604,10.0604,10.0604,10.0604,10.0604,10.0527,10.0328,9.9975,9.9231,9.878,9.8377,9.811,9.7855,9.7727,9.7484,9.7067,9.6196,9.5551,9.5362,9.4187,9.3353,9.2822,9.1913,9.1155,9.0738,9.0207,8.979,8.9752,8.9714,8.9487,8.9184,8.888,8.8615,8.8343,8.777,8.7254,8.525,8.462,8.3504,8.2782,8.21,8.1305,8.0766,8.044,8.0114,7.9607,8.0006,7.968,7.9136,7.9426,7.9462,7.8738,7.8267,7.805,7.7724,7.7434,7.7181,7.7181,7.7108,7.6275,7.5442,7.5116,7.5044,7.5044,7.508,7.5008,7.4863,7.4537,7.4537,7.4645,7.4537,7.45,7.4971,7.5334,7.5406,7.5659,7.6203,7.6311,7.5913,7.5732,7.5804,7.5659,7.537,7.537,7.5442,7.5574,7.5799,7.5728,7.6155,7.6402,10.0604,10.0604,10.0604,10.0604,10.0604,10.0604,10.0604,10.0604,10.0604,10.0604,10.0604,10.0604,10.0604,10.0604,10.0604,10.0604,10.0604,10.0604,10.0604,10.0604,10.0604,10.0604,10.0604,10.0604,10.0604,10.0604,10.0604,10.0604,10.0604,10.0604,10.0604,10.0604,10.0366,10.0242,10.0261,10.0151,9.967,9.887,9.8794,9.8272,9.7712,9.7295,9.7105,9.6802,9.593,9.5021,9.4338,9.3012,9.214,9.1534,9.0738,9.0245,9.0017,9.0017,8.9866,8.9676,8.9638,8.9638,8.954,8.8128,8.6855,8.5669,8.5397,8.4725,8.339,8.2782,8.2533,8.1887,8.1707,8.1635,8.1599,8.1599,8.0984,8.0476,8.073,8.0513,7.9825,7.9136,7.8883,7.8629,7.8629,7.8593,7.8593,7.8376,7.7651,7.6963,7.642,7.6203,7.6094,7.5804,7.5623,7.5515,7.5261,7.5334,7.537,7.5334,7.5442,7.5949,7.6348,7.6529,7.6456,7.6601,7.6601,7.642,7.6384,7.642,7.6348,7.6239,7.6316,7.6429,7.6656,7.6805,7.6623,7.6652,7.708,10.0604,10.0604,10.0604,10.0604,10.0604,10.0604,10.0604,10.0604,10.0604,10.0604,10.0604,10.0604,10.0604,10.0604,10.0604,10.0604,10.0604,10.0604,10.0604,10.0604,10.0604,10.0604,10.0604,10.0604,10.0604,10.0604,10.0604,10.0604,10.0604,10.0604,10.0604,10.0604,10.0604,10.051,10.0413,10.0315,10.0037,9.9682,9.9554,9.935,9.8887,9.847,9.8166,9.8091,9.6954,9.6158,9.5665,9.4149,9.3125,9.2557,9.1761,9.1117,9.0738,9.0662,9.0434,9.0055,8.9828,8.9591,8.9386,8.8598,8.8126,8.7254,8.638,8.5677,8.4514,8.4378,8.3803,8.3191,8.3157,8.3157,8.3048,8.3446,8.3012,8.1889,8.1672,8.1309,8.073,8.0042,7.9571,7.9318,7.9209,7.8992,7.8919,7.9318,7.8847,7.8231,7.7651,7.7217,7.7036,7.6456,7.6094,7.6094,7.5985,7.6058,7.613,7.6311,7.6492,7.6891,7.747,7.7941,7.7796,7.7326,7.7181,7.7144,7.7072,7.6963,7.6927,7.6963,7.7228,7.7413,7.7631,7.7774,7.7694,7.7794,7.8115,10.0604,10.0604,10.0604,10.0604,10.0604,10.0604,10.0604,10.0604,10.0604,10.0604,10.0604,10.0604,10.0604,10.0604,10.0604,10.0604,10.0604,10.0604,10.0604,10.0604,10.0604,10.0604,10.0604,10.0604,10.0604,10.0604,10.0604,10.0604,10.0604,10.0604,10.0604,10.0604,10.0604,10.0557,10.051,10.0462,10.0326,10.0101,10.0012,9.9999,9.9706,9.9373,9.9054,9.8788,9.8144,9.7333,9.665,9.5551,9.43,9.3846,9.305,9.2178,9.1685,9.142,9.123,9.0813,9.0209,8.9905,8.934,8.8842,8.8463,8.8287,8.7427,8.6582,8.5697,8.538,8.4743,8.4316,8.4464,8.4281,8.4135,8.4678,8.4062,8.2867,8.2251,8.1889,8.1309,8.0621,8.0368,8.0114,7.9897,7.9607,7.9426,7.9825,8.0042,7.9462,7.8883,7.8448,7.7977,7.7362,7.6927,7.6927,7.7036,7.7181,7.7362,7.7579,7.7724,7.7869,7.834,7.8919,7.8557,7.805,7.7977,7.7905,7.7833,7.7724,7.7543,7.7619,7.8056,7.8349,7.8495,7.8597,7.8727,7.8757,7.8829,10.0604,10.0604,10.0604,10.0604,10.0604,10.0604,10.0604,10.0604,10.0604,10.0604,10.0604,10.0604,10.0604,10.0604,10.0604,10.0604,10.0604,10.0604,10.0718,10.0757,10.0871,10.0795,10.0795,10.0795,10.0757,10.0642,10.0604,10.0604,10.0604,10.0604,10.0604,10.0604,10.0604,10.0604,10.0557,10.0557,10.0424,10.0326,10.0315,10.0265,10.005,9.9986,9.9782,9.9592,9.9183,9.8675,9.7954,9.6802,9.5779,9.4831,9.3656,9.2936,9.2519,9.2405,9.2367,9.1976,9.1166,9.0495,8.9792,8.9329,8.8965,8.8936,8.8506,8.7587,8.6639,8.5986,8.5536,8.5114,8.4973,8.4899,8.4823,8.4569,8.4279,8.3446,8.2758,8.2215,8.1635,8.1273,8.1165,8.102,8.0875,8.0694,8.0585,8.0839,8.0694,8.044,7.9897,7.9607,7.91,7.8448,7.8086,7.8086,7.8231,7.8412,7.8557,7.8521,7.8702,7.8738,7.8992,7.939,7.9028,7.8883,7.8774,7.8702,7.8666,7.8629,7.8774,7.8813,7.8958,7.9179,7.9359,7.9281,7.9303,7.9119,7.9114,10.0604,10.0604,10.0604,10.0604,10.0604,10.0604,10.0604,10.0604,10.0604,10.0604,10.0604,10.0604,10.0604,10.0604,10.0604,10.0604,10.0604,10.068,10.11,10.1292,10.1483,10.1521,10.1483,10.1406,10.1139,10.0757,10.0604,10.0604,10.0604,10.0604,10.0604,10.0604,10.0604,10.0604,10.0604,10.0604,10.051,10.0462,10.0413,10.0365,10.0265,10.0215,10.0165,10.0037,9.9554,9.916,9.8628,9.7651,9.6764,9.6385,9.6082,9.5665,9.5021,9.4414,9.3808,9.2405,9.1925,9.1582,9.098,9.0624,9.0258,8.9858,8.9708,8.8493,8.7423,8.6627,8.6371,8.5913,8.5519,8.5332,8.5185,8.4895,8.4497,8.3881,8.3338,8.3012,8.2468,8.2106,8.1998,8.1672,8.1563,8.1201,8.1201,8.1056,8.0911,8.0984,8.0875,8.0513,8.0151,7.9499,7.9173,7.9173,7.91,7.9245,7.9173,7.9136,7.939,7.9607,7.9861,8.0078,8.0114,7.9933,7.968,7.9499,7.939,7.9788,8.0332,8.0188,7.979,8.0009,8.026,8.0074,7.9849,7.9589,7.94,10.0604,10.0604,10.0604,10.0604,10.0604,10.0604,10.0604,10.0604,10.0604,10.0604,10.0604,10.0604,10.0604,10.0604,10.0604,10.0604,10.0642,10.1062,10.1444,10.175,10.2247,10.2056,10.2056,10.1826,10.133,10.0871,10.0604,10.0604,10.0604,10.0604,10.0604,10.0604,10.0604,10.0604,10.0604,10.0604,10.0557,10.051,10.0462,10.0413,10.0365,10.0315,10.0315,10.0151,9.9556,9.9391,9.9188,9.8362,9.7969,9.7765,9.7689,9.7105,9.6423,9.5741,9.4528,9.3264,9.2889,9.2258,9.1564,9.1403,9.1062,9.0738,9.0536,8.9533,8.8498,8.769,8.7022,8.6489,8.6101,8.5764,8.5583,8.533,8.4786,8.4207,8.4062,8.3917,8.3483,8.3012,8.265,8.2251,8.1889,8.1491,8.1309,8.1201,8.1092,8.1092,8.1056,8.0947,8.073,8.0404,8.0151,8.0114,7.9969,7.9933,7.9861,7.9861,8.0078,8.0332,8.0513,8.0766,8.0984,8.0839,8.0404,8.0187,8.0078,8.0476,8.0875,8.0766,8.0478,8.0732,8.073,8.04,8.0139,7.9911,7.9834,10.0604,10.0604,10.0604,10.0604,10.0604,10.0604,10.0604,10.0604,10.0604,10.0604,10.0604,10.0604,10.0604,10.0604,10.0604,10.0604,10.0871,10.133,10.1712,10.1979,10.2667,10.2629,10.2056,10.1865,10.1368,10.0871,10.0604,10.0604,10.0604,10.0604,10.0604,10.0604,10.0604,10.0604,10.0604,10.0604,10.0604,10.0557,10.0557,10.0557,10.0557,10.0462,10.0413,10.0413,10.0239,10.0101,9.9949,9.9467,9.887,9.8552,9.8234,9.7727,9.7219,9.6612,9.5324,9.4576,9.4178,9.3577,9.2838,9.2516,9.1907,9.1381,9.0722,9.035,8.9748,8.8398,8.7541,8.6783,8.632,8.6057,8.5873,8.5837,8.5475,8.5185,8.5004,8.4786,8.4388,8.3881,8.3338,8.2867,8.2251,8.1853,8.1563,8.1454,8.1128,8.1092,8.1092,8.1092,8.1092,8.0911,8.0911,8.0839,8.0621,8.0476,8.0621,8.0658,8.0802,8.102,8.1092,8.1056,8.1056,8.1056,8.1092,8.0802,8.0549,8.0766,8.102,8.0911,8.0875,8.0912,8.0876,8.073,8.0433,8.0207,7.9977,10.0604,10.0604,10.0604,10.0604,10.0604,10.0604,10.0604,10.0604,10.0604,10.0604,10.0604,10.0604,10.0604,10.0604,10.0604,10.0604,10.0795,10.1444,10.1826,10.217,10.282,10.2705,10.2056,10.1865,10.1368,10.0871,10.0604,10.0604,10.0604,10.0604,10.0604,10.0604,10.0604,10.0604,10.0604,10.0604,10.0604,10.0604,10.0604,10.0604,10.0604,10.0604,10.0557,10.051,10.0462,10.0365,10.0201,10.0075,9.9771,9.9592,9.9554,9.9031,9.8318,9.7484,9.6878,9.637,9.5554,9.5083,9.4677,9.4049,9.3434,9.3054,9.2579,9.191,9.0898,8.9214,8.7986,8.7188,8.6575,8.6352,8.6235,8.6235,8.6199,8.6054,8.5873,8.5547,8.5221,8.4678,8.4062,8.341,8.2722,8.2287,8.1961,8.1563,8.1237,8.1092,8.1092,8.1128,8.1201,8.1165,8.1237,8.1165,8.1056,8.0984,8.1128,8.1092,8.1092,8.1092,8.1092,8.1092,8.1092,8.1092,8.1092,8.1092,8.1056,8.1092,8.1092,8.1092,8.1056,8.1021,8.0948,8.0803,8.0582,8.0283,8.013,10.0604,10.0604,10.0604,10.0604,10.0604,10.0604,10.0604,10.0604,10.0604,10.0604,10.0604,10.0604,10.0604,10.0604,10.0604,10.0604,10.0757,10.1521,10.1826,10.217,10.2552,10.2514,10.2209,10.1826,10.1292,10.0795,10.0642,10.0604,10.0604,10.0604,10.0604,10.0604,10.0604,10.0604,10.0604,10.0604,10.0604,10.0604,10.0604,10.0604,10.0604,10.0604,10.0604,10.0557,10.0557,10.051,10.0462,10.0365,10.0227,10.0024,9.9896,9.9335,9.8659,9.8129,9.7674,9.7264,9.6873,9.6629,9.6276,9.5745,9.4942,9.4309,9.3471,9.2431,9.1557,8.9978,8.8864,8.7994,8.7011,8.667,8.638,8.6308,8.6235,8.6126,8.5982,8.5764,8.5619,8.5366,8.475,8.4171,8.3446,8.2722,8.2251,8.1491,8.1237,8.1273,8.1237,8.1635,8.1635,8.1599,8.1599,8.1491,8.1382,8.1201,8.1092,8.1092,8.1092,8.1092,8.1092,8.1092,8.1092,8.1092,8.1092,8.1092,8.1092,8.1092,8.1092,8.1201,8.1128,8.1092,8.0948,8.0876,8.0692,8.0394,8.0207,10.0604,10.0604,10.0604,10.0604,10.0604,10.0604,10.0604,10.0604,10.0604,10.0604,10.0604,10.0604,10.0604,10.0604,10.0604,10.0604,10.0871,10.1559,10.1826,10.1903,10.2552,10.217,10.1826,10.1597,10.11,10.0795,10.0604,10.0604,10.0604,10.0604,10.0604,10.0604,10.0604,10.0604,10.0604,10.0604,10.0604,10.0604,10.0604,10.0604,10.0604,10.0604,10.0604,10.0604,10.0604,10.0604,10.0557,10.051,10.0326,10.0177,10.0062,9.9615,9.9107,9.8728,9.8409,9.8053,9.7873,9.7458,9.705,9.6418,9.5502,9.4607,9.3648,9.2773,9.2002,9.0858,8.9742,8.8983,8.792,8.7177,8.6923,8.667,8.6597,8.638,8.6271,8.6018,8.5945,8.5873,8.5366,8.4786,8.4135,8.3338,8.2722,8.1925,8.1599,8.1599,8.178,8.2179,8.2432,8.236,8.2324,8.2034,8.1744,8.1527,8.1201,8.1092,8.1092,8.1092,8.1092,8.1092,8.1092,8.1092,8.1092,8.1092,8.1092,8.1165,8.1346,8.1491,8.1382,8.1346,8.1382,8.1418,8.0981,8.0721,8.0354,10.0604,10.0604,10.0604,10.0604,10.0604,10.0604,10.0604,10.0604,10.0604,10.0604,10.0604,10.0604,10.0604,10.0604,10.0604,10.0604,10.0718,10.1444,10.1253,10.1062,10.1788,10.1483,10.1177,10.11,10.0795,10.0642,10.0604,10.0604,10.0604,10.0604,10.0604,10.0604,10.0604,10.0604,10.0604,10.0604,10.0604,10.0604,10.0604,10.0604,10.0604,10.0604,10.0604,10.0604,10.0604,10.0604,10.0604,10.0604,10.051,10.0365,10.0215,9.9961,9.9695,9.9302,9.9074,9.8955,9.874,9.8366,9.7862,9.7155,9.6238,9.5098,9.4251,9.3545,9.2572,9.1458,9.0735,9.0447,8.9492,8.8631,8.8263,8.7937,8.7756,8.7249,8.6959,8.638,8.6018,8.5945,8.5692,8.5257,8.4823,8.4352,8.4026,8.3338,8.2794,8.2831,8.2903,8.3229,8.3265,8.3157,8.3048,8.2613,8.2179,8.1672,8.1273,8.1128,8.1092,8.1092,8.1092,8.1092,8.1092,8.1092,8.1092,8.1092,8.1201,8.1309,8.1491,8.1563,8.1998,8.1998,8.207,8.1998,8.1487,8.09,8.0426]},{"header":{"parameterUnit":"m.s-1","parameterCategory":1,"la1":31.0,"la2":29.5877,"lo1":-88.7671,"lo2":-86.6584,"dy":0.0162,"dx":0.0185,"nx":115,"ny":88,"refTime":"2024-03-07T18:00:00:Z","depth":0,"parameterNumber":3,"parameterNumberName":"V-component_of_WINDS"},"data":[0.0,0.0,0.0,0.0,0.0,0.0,0.0,0.0,0.0,0.0,0.0,0.0,0.0,0.0,0.0,0.0,0.0,0.0,0.0,0.0,0.0,0.0,0.0,0.0,0.0,0.0,0.0,0.0,0.0,0.0,0.0,0.0,0.0,0.0,0.0,0.0,0.0,0.0,0.0,0.0,0.0,0.0,0.0,0.0,0.0,0.0,0.0,0.0,0.0,0.0,0.0,0.0,0.0,0.0,0.0,0.0,0.0,0.0,0.0,0.0,0.0,0.0,0.0,0.0,0.0,0.0,0.0,0.0,0.0,0.0,0.0,0.0,0.0,0.0,0.0,0.0,0.0,0.0,0.0,0.0,0.0,0.0,0.0,0.0,0.0,0.0,0.0,0.0,0.0,0.0,0.0,0.0,0.0,0.0,0.0,0.0,0.0,0.0,0.0,0.0,0.0,0.0,0.0,0.0,0.0,0.0,0.0,0.0,0.0,0.0,0.0,0.0,0.0,0.0,0.0,0.0,0.0,0.0,0.0,0.0,0.0,0.0,0.0,0.0,0.0,0.0,0.0,0.0,0.0,0.0,0.0,0.0,0.0,0.0,0.0,0.0,0.0,0.0,0.0,0.0,0.0,0.0,0.0,0.0,0.0,0.0,0.0,0.0,0.0,0.0,0.0,0.0,0.0,0.0,0.0,0.0,0.0,0.0,0.0,0.0,0.0,0.0,0.0,0.0,0.0,0.0,0.0,0.0,0.0,0.0,0.0,0.0,0.0,0.0,0.0,0.0,0.0,0.0,0.0,0.0,0.0,0.0,0.0,0.0,0.0,0.0,0.0,0.0,0.0,0.0,0.0,0.0,0.0,0.0,0.0,0.0,0.0,0.0,0.0,0.0,0.0,0.0,0.0,0.0,0.0,0.0,0.0,0.0,0.0,0.0,0.0,0.0,0.0,0.0,0.0,0.0,0.0,0.0,0.0,0.0,0.0,0.0,0.0,0.0,0.0,0.0,0.0,0.0,0.0,0.0,0.0,0.0,0.0,0.0,0.0,0.0,0.0,0.0,0.0,0.0,0.0,0.0,0.0,0.0,0.0,0.0,0.0,0.0,0.0,0.0,0.0,0.0,0.0,0.0,0.0,0.0,0.0,0.0,0.0,0.0,0.0,0.0,0.0,0.0,0.0,0.0,0.0,0.0,0.0,0.0,0.0,0.0,0.0,0.0,0.0,0.0,0.0,0.0,0.0,0.0,0.0,0.0,0.0,0.0,0.0,0.0,0.0,0.0,0.0,0.0,0.0,0.0,0.0,0.0,0.0,0.0,0.0,0.0,0.0,0.0,0.0,0.0,0.0,0.0,0.0,0.0,0.0,0.0,0.0,0.0,0.0,0.0,0.0,0.0,0.0,0.0,0.0,0.0,0.0,0.0,0.0,0.0,0.0,0.0,0.0,0.0,0.0,0.0,0.0,0.0,0.0,0.0,0.0,0.0,0.0,0.0,0.0,0.0,0.0,0.0,0.0,0.0,0.0,0.0,0.0,0.0,0.0,0.0,0.0,0.0,0.0,0.0,0.0,0.0,0.0,0.0,0.0,0.0,0.0,0.0,0.0,0.0,0.0,0.0,0.0,0.0,0.0,0.0,0.0,0.0,0.0,0.0,0.0,0.0,0.0,0.0,0.0,0.0,0.0,0.0,0.0,0.0,0.0,0.0,0.0,0.0,0.0,0.0,0.0,0.0,0.0,0.0,0.0,0.0,0.0,0.0,0.0,0.0,0.0,0.0,0.0,0.0,0.0,0.0,0.0,0.0,0.0,0.0,0.0,0.0,0.0,0.0,0.0,0.0,0.0,0.0,0.0,0.0,0.0,0.0,0.0,0.0,0.0,0.0,0.0,0.0,0.0,0.0,0.0,0.0,0.0,0.0,0.0,0.0,0.0,0.0,0.0,0.0,0.0,0.0,0.0,0.0,0.0,0.0,0.0,0.0,0.0,0.0,0.0,0.0,0.0,0.0,0.0,0.0,0.0,0.0,0.0,0.0,0.0,0.0,0.0,0.0,0.0,0.0,0.0,0.0,0.0,0.0,0.0,0.0,0.0,0.0,0.0,0.0,0.0,0.0,0.0,0.0,0.0,0.0,0.0,0.0,0.0,0.0,0.0,0.0,0.0,0.0,0.0,0.0,0.0,0.0,0.0,0.0,0.0,0.0,0.0,0.0,0.0,0.0,0.0,0.0,0.0,0.0,0.0,0.0,0.0,0.0,0.0,0.0,0.0,0.0,0.0,0.0,0.0,0.0,0.0,0.0,0.0,0.0,0.0,0.0,0.0,0.0,0.0,0.0,0.0,0.0,0.0,0.0,0.0,0.0,0.0,0.0,0.0,0.0,0.0,0.0,0.0,0.0,0.0,0.0,0.0,0.0,0.0,0.0,0.0,0.0,0.0,0.0,0.0,0.0,0.0,0.0,0.0,0.0,0.0,0.0,0.0,0.0,0.0,0.0,0.0,0.0,0.0,0.0,0.0,0.0,0.0,0.0,0.0,0.0,0.0,0.0,0.0,0.0,0.0,0.0,0.0,0.0,0.0,0.0,0.0,0.0,0.0,0.0,0.0,0.0,0.0,0.0,0.0,0.0,0.0,0.0,0.0,0.0,0.0,0.0,0.0,0.0,0.0,0.0,0.0,0.0,0.0,0.0,0.0,0.0,0.0,0.0,0.0,0.0,0.0,0.0,0.0,0.0,0.0,0.0,0.0,0.0,0.0,0.0,0.0,0.0,0.0,0.0,0.0,0.0,0.0,0.0,0.0,0.0,0.0,0.0,0.0,0.0,0.0,0.0,0.0,0.0,0.0,0.0,0.0,0.0,0.0,0.0,0.0,0.0,0.0,0.0,0.0,0.0,0.0,0.0,0.0,0.0,0.0,0.0,0.0,0.0,0.0,0.0,0.0,0.0,0.0,0.0,0.0,0.0,0.0,0.0,0.0,0.0,0.0,0.0,0.0,0.0,0.0,0.0,0.0,0.0,0.0,0.0,0.0,0.0,0.0,0.0,0.0,0.0,0.0,0.0,0.0,0.0,0.0,0.0,0.0,0.0,0.0,0.0,0.0,0.0,0.0,0.0,0.0,0.0,0.0,0.0,0.0,0.0,0.0,0.0,0.0,0.0,0.0,0.0,0.0,0.0,0.0,0.0,0.0,0.0,0.0,0.0,0.0,0.0,0.0,0.0,0.0,0.0,0.0,0.0,0.0,0.0,0.0,0.0,0.0,0.0,0.0,0.0,0.0,0.0,0.0,0.0,0.0,0.0,0.0,0.0,0.0,0.0,0.0,0.0,0.0,0.0,0.0,0.0,0.0,0.0,0.0,0.0,0.0,0.0,0.0,0.0,0.0,0.0,0.0,0.0,0.0,0.0,0.0,0.0,0.0,0.0,0.0,0.0,0.0,0.0,0.0,0.0,0.0,0.0,0.0,0.0,0.0,0.0,0.0,0.0,0.0,0.0,0.0,0.0,0.0,0.0,0.0,0.0,0.0,0.0,0.0,0.0,0.0,0.0,0.0,0.0,0.0,0.0,0.0,0.0,0.0,0.0,0.0,0.0,0.0,0.0,0.0,0.0,0.0,0.0,0.0,0.0,0.0,0.0,0.0,0.0,0.0,0.0,0.0,0.0,0.0,0.0,0.0,0.0,0.0,0.0,0.0,0.0,0.0,0.0,0.0,0.0,0.0,0.0,0.0,0.0,0.0,0.0,0.0,0.0,0.0,0.0,0.0,0.0,0.0,0.0,0.0,0.0,0.0,0.0,0.0,0.0,0.0,0.0,0.0,0.0,0.0,0.0,0.0,0.0,0.0,0.0,0.0,0.0,0.0,0.0,0.0,0.0,0.0,0.0,0.0,0.0,0.0,0.0,0.0,0.0,0.0,0.0,0.0,0.0,0.0,0.0,0.0,0.0,0.0,0.0,0.0,0.0,0.0,0.0,0.0,0.0,0.0,0.0,0.0,0.0,0.0,0.0,0.0,0.0,0.0,0.0,0.0,0.0,0.0,0.0,0.0,0.0,0.0,0.0,0.0,0.0,0.0,0.0,0.0,0.0,0.0,0.0,0.0,0.0,0.0,0.0,0.0,0.0,0.0,0.0,0.0,0.0,0.0,0.0,0.0,0.0,0.0,0.0,0.0,0.0,0.0,0.0,0.0,0.0,0.0,0.0,0.0,0.0,0.0,0.0,0.0,0.0,0.0,0.0,0.0,0.0,0.0,0.0,0.0,0.0,0.0,0.0,0.0,0.0,-1.5613,0.0,0.0,0.0,0.0,0.0,0.0,0.0,0.0,0.0,0.0,0.0,0.0,0.0,0.0,0.0,0.0,0.0,0.0,0.0,0.0,0.0,0.0,0.0,0.0,0.0,0.0,0.0,0.0,0.0,0.0,0.0,0.0,0.0,0.0,0.0,0.0,0.0,0.0,0.0,0.0,0.0,0.0,0.0,0.0,0.0,0.0,0.0,0.0,0.0,0.0,0.0,0.0,0.0,0.0,0.0,0.0,0.0,0.0,0.0,0.0,0.0,0.0,0.0,0.0,0.0,0.0,0.0,0.0,0.0,0.0,0.0,0.0,0.0,0.0,0.0,0.0,0.0,0.0,0.0,0.0,0.0,0.0,0.0,0.0,0.0,0.0,0.0,0.0,0.0,0.0,0.0,0.0,0.0,0.0,0.0,0.0,0.0,0.0,0.0,0.0,0.0,0.0,0.0,0.0,0.0,0.0,0.0,0.0,0.0,0.0,-1.6067,-1.5482,-1.6521,-1.6579,-1.5496,0.0,0.0,0.0,0.0,0.0,0.0,0.0,0.0,0.0,0.0,0.0,0.0,0.0,0.0,0.0,0.0,0.0,0.0,0.0,0.0,0.0,0.0,0.0,0.0,0.0,0.0,0.0,0.0,0.0,0.0,0.0,0.0,0.0,0.0,0.0,0.0,0.0,0.0,0.0,0.0,0.0,0.0,0.0,0.0,0.0,0.0,0.0,0.0,0.0,0.0,0.0,0.0,0.0,0.0,0.0,0.0,0.0,0.0,0.0,0.0,0.0,0.0,0.0,0.0,0.0,0.0,0.0,0.0,0.0,0.0,0.0,0.0,0.0,0.0,0.0,0.0,0.0,0.0,0.0,0.0,0.0,0.0,0.0,0.0,0.0,0.0,0.0,0.0,0.0,0.0,0.0,0.0,0.0,0.0,0.0,0.0,0.0,0.0,0.0,0.0,0.0,0.0,0.0,0.0,0.0,0.0,0.0,0.0,0.0,0.0,0.0,0.0,-1.6813,-1.6872,-1.5906,0.0,0.0,0.0,0.0,0.0,0.0,0.0,0.0,0.0,0.0,0.0,0.0,0.0,0.0,0.0,0.0,0.0,0.0,0.0,0.0,0.0,0.0,0.0,0.0,0.0,0.0,0.0,0.0,0.0,0.0,0.0,0.0,0.0,0.0,0.0,0.0,0.0,0.0,0.0,0.0,0.0,0.0,0.0,0.0,0.0,0.0,0.0,0.0,0.0,0.0,0.0,0.0,0.0,0.0,0.0,0.0,0.0,0.0,0.0,0.0,0.0,0.0,0.0,0.0,0.0,0.0,0.0,0.0,0.0,0.0,0.0,0.0,0.0,0.0,0.0,0.0,0.0,0.0,0.0,0.0,0.0,0.0,0.0,0.0,0.0,0.0,0.0,0.0,0.0,0.0,0.0,0.0,0.0,0.0,0.0,0.0,0.0,0.0,0.0,0.0,0.0,0.0,0.0,0.0,0.0,0.0,0.0,0.0,0.0,0.0,-1.5731,-1.7106,-1.7267,0.0,-1.7135,0.0,0.0,0.0,0.0,0.0,0.0,0.0,0.0,0.0,0.0,0.0,0.0,0.0,0.0,0.0,0.0,0.0,0.0,0.0,0.0,0.0,0.0,0.0,0.0,0.0,0.0,0.0,0.0,0.0,0.0,0.0,0.0,0.0,0.0,0.0,0.0,0.0,0.0,0.0,0.0,0.0,0.0,0.0,0.0,0.0,0.0,0.0,0.0,0.0,0.0,0.0,0.0,0.0,0.0,0.0,0.0,0.0,0.0,0.0,0.0,0.0,0.0,0.0,0.0,0.0,0.0,0.0,0.0,0.0,0.0,0.0,0.0,0.0,0.0,0.0,0.0,0.0,0.0,0.0,0.0,0.0,0.0,0.0,0.0,0.0,0.0,0.0,0.0,0.0,0.0,0.0,0.0,0.0,0.0,0.0,0.0,0.0,0.0,0.0,0.0,0.0,0.0,0.0,0.0,0.0,0.0,0.0,0.0,0.0,0.0,-1.6024,-1.7033,-1.7145,-1.6979,0.0,0.0,0.0,0.0,0.0,0.0,0.0,0.0,0.0,0.0,0.0,0.0,0.0,0.0,0.0,0.0,0.0,0.0,0.0,0.0,0.0,0.0,0.0,0.0,0.0,0.0,0.0,0.0,0.0,0.0,0.0,0.0,0.0,0.0,0.0,0.0,0.0,0.0,0.0,0.0,0.0,0.0,0.0,0.0,0.0,0.0,0.0,0.0,0.0,0.0,0.0,0.0,0.0,0.0,0.0,0.0,0.0,0.0,0.0,0.0,0.0,0.0,0.0,0.0,0.0,0.0,0.0,0.0,0.0,0.0,0.0,0.0,0.0,0.0,0.0,0.0,0.0,0.0,0.0,0.0,0.0,0.0,0.0,0.0,0.0,0.0,0.0,0.0,0.0,0.0,0.0,0.0,0.0,0.0,0.0,0.0,0.0,0.0,0.0,0.0,0.0,0.0,0.0,0.0,0.0,0.0,0.0,0.0,0.0,0.0,-1.6077,-1.6478,-1.7363,-1.6872,-1.6541,-1.6506,0.0,0.0,0.0,0.0,0.0,0.0,0.0,0.0,0.0,0.0,0.0,0.0,0.0,0.0,0.0,0.0,0.0,0.0,0.0,0.0,0.0,0.0,0.0,0.0,0.0,0.0,0.0,0.0,0.0,0.0,0.0,0.0,0.0,0.0,0.0,0.0,0.0,0.0,0.0,0.0,0.0,0.0,0.0,0.0,0.0,0.0,0.0,0.0,0.0,0.0,0.0,0.0,0.0,0.0,0.0,0.0,0.0,0.0,0.0,0.0,0.0,0.0,0.0,0.0,0.0,0.0,0.0,0.0,0.0,0.0,0.0,0.0,0.0,0.0,0.0,0.0,0.0,0.0,0.0,0.0,0.0,0.0,0.0,0.0,0.0,0.0,0.0,0.0,0.0,0.0,0.0,0.0,0.0,0.0,0.0,0.0,0.0,0.0,0.0,0.0,0.0,0.0,0.0,0.0,0.0,0.0,0.0,0.0,-1.884,-1.7063,-1.6922,-1.8611,-1.6722,-1.6067,0.0,0.0,0.0,0.0,0.0,0.0,0.0,0.0,0.0,0.0,0.0,0.0,0.0,0.0,0.0,0.0,0.0,0.0,0.0,0.0,0.0,0.0,0.0,0.0,0.0,0.0,0.0,0.0,0.0,0.0,0.0,0.0,0.0,0.0,0.0,0.0,0.0,0.0,0.0,0.0,0.0,0.0,0.0,0.0,0.0,0.0,0.0,0.0,0.0,0.0,0.0,0.0,0.0,0.0,0.0,0.0,0.0,0.0,0.0,0.0,0.0,0.0,0.0,0.0,0.0,0.0,0.0,0.0,0.0,0.0,0.0,0.0,0.0,0.0,0.0,0.0,0.0,0.0,0.0,0.0,0.0,0.0,0.0,0.0,0.0,0.0,0.0,0.0,0.0,0.0,0.0,0.0,0.0,0.0,0.0,0.0,0.0,0.0,0.0,0.0,0.0,0.0,0.0,0.0,0.0,0.0,0.0,0.0,0.0,-1.5711,-1.5959,-1.677,-1.8119,-1.6805,-1.6373,0.0,0.0,0.0,0.0,0.0,0.0,0.0,0.0,0.0,0.0,0.0,0.0,0.0,0.0,0.0,0.0,0.0,0.0,0.0,0.0,0.0,0.0,0.0,0.0,0.0,0.0,0.0,0.0,0.0,0.0,0.0,0.0,0.0,0.0,0.0,0.0,0.0,0.0,0.0,0.0,0.0,0.0,0.0,0.0,0.0,0.0,0.0,0.0,0.0,0.0,0.0,0.0,0.0,0.0,0.0,0.0,0.0,0.0,0.0,0.0,0.0,0.0,0.0,0.0,0.0,0.0,0.0,0.0,0.0,0.0,0.0,0.0,0.0,0.0,0.0,0.0,0.0,0.0,0.0,0.0,0.0,0.0,0.0,0.0,0.0,0.0,0.0,0.0,0.0,0.0,0.0,0.0,0.0,0.0,0.0,0.0,0.0,0.0,0.0,0.0,0.0,0.0,0.0,0.0,0.0,0.0,0.0,0.0,0.0,-1.4929,0.0,-1.7382,-1.7928,-1.6731,-1.6099,0.0,0.0,0.0,0.0,0.0,0.0,0.0,0.0,0.0,0.0,0.0,0.0,0.0,0.0,0.0,0.0,0.0,0.0,0.0,0.0,0.0,0.0,0.0,0.0,0.0,0.0,0.0,0.0,0.0,0.0,0.0,0.0,0.0,0.0,0.0,0.0,0.0,0.0,0.0,0.0,0.0,0.0,0.0,0.0,0.0,0.0,0.0,0.0,0.0,0.0,0.0,0.0,0.0,0.0,0.0,0.0,0.0,0.0,0.0,0.0,0.0,0.0,0.0,0.0,0.0,0.0,0.0,0.0,0.0,0.0,0.0,0.0,0.0,0.0,0.0,0.0,0.0,0.0,0.0,0.0,0.0,0.0,0.0,0.0,0.0,0.0,0.0,0.0,0.0,0.0,0.0,0.0,0.0,0.0,0.0,0.0,0.0,0.0,0.0,0.0,0.0,0.0,0.0,0.0,0.0,0.0,0.0,0.0,-1.5055,-1.7096,-1.8183,-1.8521,-1.7952,-1.6594,-1.5205,0.0,0.0,0.0,0.0,0.0,0.0,0.0,0.0,0.0,0.0,0.0,0.0,0.0,0.0,0.0,0.0,0.0,0.0,0.0,0.0,0.0,0.0,0.0,0.0,0.0,0.0,0.0,0.0,0.0,0.0,0.0,0.0,0.0,0.0,0.0,0.0,0.0,0.0,0.0,0.0,0.0,0.0,0.0,0.0,0.0,0.0,0.0,0.0,0.0,0.0,0.0,0.0,0.0,0.0,0.0,0.0,0.0,0.0,0.0,0.0,0.0,0.0,0.0,0.0,0.0,0.0,0.0,0.0,0.0,0.0,0.0,0.0,0.0,0.0,0.0,0.0,0.0,0.0,0.0,0.0,0.0,0.0,0.0,0.0,0.0,0.0,0.0,0.0,0.0,0.0,0.0,0.0,0.0,0.0,0.0,0.0,0.0,0.0,0.0,0.0,0.0,0.0,0.0,0.0,0.0,0.0,0.0,0.0,0.0,-1.5685,-1.7382,-1.8758,-1.9676,-1.6914,-1.6019,0.0,0.0,0.0,0.0,0.0,0.0,0.0,0.0,0.0,0.0,0.0,0.0,0.0,0.0,0.0,0.0,0.0,0.0,0.0,0.0,0.0,0.0,0.0,0.0,0.0,0.0,0.0,0.0,0.0,0.0,0.0,0.0,0.0,0.0,0.0,0.0,0.0,0.0,0.0,0.0,0.0,0.0,0.0,0.0,0.0,0.0,0.0,0.0,0.0,0.0,0.0,0.0,0.0,0.0,0.0,0.0,0.0,0.0,0.0,0.0,0.0,0.0,0.0,0.0,0.0,0.0,0.0,0.0,0.0,0.0,0.0,0.0,0.0,0.0,0.0,0.0,0.0,0.0,0.0,0.0,0.0,0.0,0.0,0.0,0.0,0.0,0.0,0.0,0.0,0.0,0.0,0.0,0.0,0.0,0.0,0.0,0.0,0.0,0.0,0.0,0.0,0.0,0.0,0.0,0.0,0.0,0.0,0.0,0.0,-1.7515,-1.9105,-2.0307,-2.0989,-1.8144,-1.6954,-1.7576,0.0,0.0,0.0,0.0,0.0,0.0,0.0,0.0,0.0,0.0,0.0,0.0,0.0,0.0,0.0,0.0,0.0,0.0,0.0,0.0,0.0,0.0,0.0,0.0,0.0,0.0,0.0,0.0,0.0,0.0,0.0,0.0,0.0,0.0,0.0,0.0,0.0,0.0,0.0,0.0,0.0,0.0,0.0,0.0,0.0,0.0,0.0,0.0,0.0,0.0,0.0,0.0,0.0,0.0,0.0,0.0,0.0,0.0,0.0,0.0,0.0,0.0,0.0,0.0,0.0,0.0,0.0,0.0,0.0,0.0,0.0,0.0,0.0,0.0,0.0,0.0,0.0,0.0,0.0,0.0,0.0,0.0,0.0,0.0,0.0,0.0,0.0,0.0,0.0,0.0,0.0,0.0,0.0,0.0,0.0,0.0,0.0,0.0,0.0,0.0,0.0,0.0,0.0,0.0,0.0,0.0,0.0,0.0,-2.1697,-2.2966,-2.3073,-2.1937,-2.0013,-1.8076,0.0,0.0,0.0,0.0,0.0,0.0,0.0,0.0,0.0,0.0,0.0,0.0,0.0,0.0,0.0,0.0,0.0,0.0,0.0,0.0,0.0,0.0,0.0,0.0,0.0,0.0,0.0,0.0,0.0,0.0,0.0,0.0,0.0,0.0,0.0,0.0,0.0,0.0,0.0,0.0,0.0,0.0,0.0,0.0,0.0,0.0,0.0,0.0,0.0,0.0,0.0,0.0,0.0,0.0,0.0,0.0,0.0,0.0,0.0,0.0,0.0,0.0,0.0,0.0,0.0,0.0,0.0,0.0,0.0,0.0,0.0,0.0,0.0,0.0,0.0,0.0,0.0,0.0,0.0,0.0,0.0,0.0,0.0,0.0,0.0,0.0,0.0,0.0,0.0,0.0,0.0,0.0,0.0,0.0,0.0,0.0,0.0,0.0,0.0,0.0,0.0,0.0,0.0,0.0,0.0,0.0,0.0,0.0,0.0,-2.3781,-2.6052,-2.676,-2.5732,-2.1951,-1.9639,0.0,0.0,0.0,0.0,0.0,0.0,0.0,0.0,0.0,0.0,0.0,0.0,0.0,0.0,0.0,0.0,0.0,0.0,0.0,0.0,0.0,0.0,0.0,0.0,0.0,0.0,0.0,0.0,0.0,0.0,0.0,0.0,0.0,0.0,0.0,0.0,0.0,0.0,0.0,0.0,0.0,0.0,0.0,0.0,0.0,0.0,0.0,0.0,0.0,0.0,0.0,0.0,0.0,0.0,0.0,0.0,0.0,0.0,0.0,0.0,0.0,0.0,0.0,0.0,0.0,0.0,0.0,0.0,0.0,0.0,0.0,0.0,0.0,0.0,0.0,0.0,0.0,0.0,0.0,0.0,0.0,0.0,0.0,0.0,0.0,0.0,0.0,0.0,0.0,0.0,0.0,0.0,0.0,0.0,0.0,0.0,0.0,0.0,0.0,0.0,0.0,0.0,0.0,0.0,0.0,0.0,0.0,0.0,-2.2714,-2.5865,-2.8524,-2.97,-2.9312,-2.5344,-2.2124,0.0,0.0,0.0,0.0,0.0,0.0,0.0,0.0,0.0,0.0,0.0,0.0,0.0,0.0,0.0,0.0,0.0,0.0,0.0,0.0,0.0,0.0,0.0,0.0,0.0,0.0,0.0,0.0,0.0,0.0,0.0,0.0,0.0,0.0,0.0,0.0,0.0,0.0,0.0,0.0,0.0,0.0,0.0,0.0,0.0,0.0,0.0,0.0,0.0,0.0,0.0,0.0,0.0,0.0,0.0,0.0,0.0,0.0,0.0,0.0,0.0,0.0,0.0,0.0,0.0,0.0,0.0,0.0,0.0,0.0,0.0,0.0,0.0,0.0,0.0,0.0,0.0,0.0,0.0,0.0,0.0,0.0,0.0,0.0,0.0,0.0,0.0,0.0,0.0,0.0,0.0,0.0,0.0,0.0,0.0,0.0,0.0,0.0,0.0,0.0,0.0,0.0,0.0,0.0,0.0,0.0,0.0,0.0,-2.4152,-2.7816,-3.0448,-3.1931,-3.2091,-2.8965,-2.4863,0.0,0.0,0.0,0.0,0.0,0.0,0.0,0.0,0.0,0.0,0.0,0.0,0.0,0.0,0.0,0.0,0.0,0.0,0.0,0.0,0.0,0.0,0.0,0.0,0.0,0.0,0.0,0.0,0.0,0.0,0.0,0.0,0.0,0.0,0.0,0.0,0.0,0.0,0.0,0.0,0.0,0.0,0.0,0.0,0.0,0.0,0.0,0.0,0.0,0.0,0.0,0.0,0.0,0.0,0.0,0.0,0.0,0.0,0.0,0.0,0.0,0.0,0.0,0.0,0.0,0.0,0.0,0.0,0.0,0.0,0.0,0.0,0.0,0.0,0.0,0.0,0.0,0.0,0.0,0.0,0.0,0.0,0.0,0.0,0.0,0.0,0.0,0.0,0.0,0.0,0.0,0.0,0.0,0.0,0.0,0.0,0.0,0.0,0.0,0.0,0.0,0.0,0.0,0.0,0.0,0.0,0.0,0.0,-2.501,-2.9018,-3.1463,-3.2732,-3.2772,-2.8978,-2.5304,0.0,0.0,0.0,0.0,0.0,0.0,0.0,0.0,0.0,0.0,0.0,0.0,0.0,0.0,0.0,0.0,0.0,0.0,0.0,0.0,0.0,0.0,0.0,0.0,0.0,0.0,0.0,0.0,0.0,0.0,0.0,0.0,0.0,0.0,0.0,0.0,0.0,0.0,0.0,0.0,0.0,0.0,0.0,0.0,0.0,0.0,0.0,0.0,-1.4896,0.0,0.0,0.0,0.0,0.0,0.0,0.0,0.0,0.0,0.0,0.0,0.0,0.0,0.0,0.0,0.0,0.0,0.0,0.0,0.0,0.0,0.0,0.0,0.0,0.0,0.0,0.0,0.0,0.0,0.0,0.0,0.0,0.0,0.0,0.0,0.0,0.0,0.0,0.0,0.0,0.0,0.0,0.0,0.0,0.0,0.0,0.0,0.0,0.0,0.0,0.0,0.0,0.0,0.0,0.0,0.0,0.0,0.0,0.0,-2.6316,-2.9806,-3.2051,-3.3253,-3.3293,-3.0341,-2.6774,0.0,0.0,0.0,0.0,0.0,0.0,0.0,0.0,0.0,0.0,0.0,0.0,0.0,0.0,0.0,0.0,0.0,0.0,0.0,0.0,0.0,0.0,0.0,0.0,0.0,0.0,0.0,0.0,0.0,0.0,0.0,0.0,0.0,0.0,0.0,0.0,0.0,0.0,0.0,0.0,0.0,0.0,0.0,0.0,0.0,0.0,0.0,0.0,0.0,0.0,0.0,0.0,0.0,0.0,0.0,0.0,0.0,0.0,0.0,0.0,0.0,0.0,0.0,0.0,0.0,0.0,0.0,0.0,0.0,0.0,0.0,0.0,0.0,0.0,0.0,0.0,0.0,0.0,0.0,0.0,0.0,0.0,0.0,0.0,0.0,0.0,0.0,0.0,0.0,0.0,0.0,0.0,0.0,0.0,0.0,0.0,0.0,0.0,0.0,0.0,0.0,0.0,0.0,0.0,0.0,0.0,0.0,-2.3749,-2.7189,-3.0448,-3.2478,-3.3574,-3.3708,-3.1877,-2.8364,-2.3166,0.0,0.0,0.0,0.0,0.0,0.0,0.0,0.0,0.0,0.0,0.0,0.0,0.0,0.0,0.0,0.0,0.0,0.0,0.0,0.0,0.0,0.0,0.0,0.0,0.0,0.0,0.0,0.0,0.0,0.0,0.0,0.0,0.0,0.0,0.0,0.0,0.0,0.0,-1.3228,-1.4882,0.0,0.0,0.0,0.0,0.0,0.0,0.0,0.0,-1.5672,0.0,0.0,0.0,0.0,0.0,0.0,0.0,0.0,0.0,0.0,0.0,0.0,0.0,0.0,0.0,0.0,0.0,0.0,0.0,0.0,0.0,0.0,0.0,0.0,0.0,0.0,0.0,0.0,0.0,0.0,0.0,0.0,0.0,0.0,0.0,0.0,0.0,0.0,0.0,0.0,0.0,0.0,0.0,0.0,0.0,0.0,0.0,0.0,0.0,0.0,0.0,0.0,0.0,0.0,0.0,0.0,-2.2271,-2.3728,-2.6707,-3.133,-3.2986,-3.3587,-3.312,-3.1837,-2.8671,-2.3554,0.0,0.0,0.0,0.0,0.0,0.0,0.0,0.0,0.0,0.0,0.0,0.0,0.0,0.0,0.0,0.0,0.0,0.0,0.0,0.0,0.0,0.0,0.0,0.0,0.0,0.0,0.0,0.0,0.0,0.0,0.0,0.0,0.0,0.0,0.0,0.0,0.0,0.0,0.0,-1.7925,-1.8599,0.0,0.0,0.0,0.0,0.0,0.0,0.0,0.0,-1.5745,0.0,0.0,0.0,0.0,0.0,0.0,0.0,0.0,0.0,0.0,0.0,0.0,0.0,0.0,0.0,0.0,0.0,0.0,0.0,0.0,0.0,0.0,0.0,0.0,0.0,0.0,0.0,0.0,0.0,0.0,0.0,0.0,0.0,0.0,0.0,0.0,0.0,0.0,0.0,0.0,0.0,0.0,0.0,0.0,0.0,0.0,0.0,0.0,0.0,0.0,0.0,0.0,0.0,0.0,0.0,-2.2258,-2.4783,-2.7776,-3.1316,-3.2585,-3.2973,-3.2505,-3.0648,-2.7562,0.0,0.0,0.0,0.0,0.0,0.0,0.0,0.0,0.0,0.0,0.0,0.0,0.0,0.0,0.0,0.0,0.0,0.0,0.0,0.0,0.0,0.0,0.0,0.0,0.0,0.0,0.0,0.0,0.0,0.0,0.0,0.0,0.0,0.0,0.0,0.0,0.0,0.0,0.0,0.0,-1.8906,-1.9652,-1.9989,0.0,0.0,0.0,0.0,0.0,0.0,-1.6887,-1.6374,0.0,0.0,0.0,0.0,0.0,0.0,0.0,0.0,0.0,0.0,0.0,0.0,0.0,0.0,0.0,0.0,0.0,0.0,0.0,0.0,0.0,0.0,0.0,0.0,0.0,0.0,0.0,0.0,0.0,0.0,0.0,0.0,0.0,0.0,0.0,0.0,0.0,0.0,0.0,0.0,0.0,0.0,0.0,0.0,0.0,0.0,0.0,0.0,0.0,0.0,0.0,0.0,0.0,0.0,0.0,-2.1964,-2.5411,-2.8457,-3.1022,-3.1944,-3.2198,-3.181,-2.9553,-2.656,0.0,0.0,0.0,0.0,0.0,0.0,0.0,0.0,0.0,0.0,0.0,0.0,0.0,0.0,0.0,0.0,0.0,0.0,0.0,0.0,0.0,0.0,0.0,0.0,0.0,0.0,0.0,0.0,0.0,0.0,0.0,0.0,0.0,0.0,0.0,0.0,0.0,0.0,0.0,0.0,0.0,-2.075,-2.1057,-2.0559,0.0,0.0,0.0,0.0,-1.8013,-1.835,0.0,0.0,0.0,0.0,0.0,0.0,0.0,0.0,0.0,0.0,0.0,0.0,0.0,0.0,0.0,0.0,0.0,0.0,0.0,0.0,0.0,0.0,0.0,0.0,0.0,0.0,0.0,0.0,0.0,0.0,0.0,0.0,0.0,0.0,0.0,0.0,0.0,0.0,0.0,0.0,0.0,0.0,0.0,0.0,0.0,0.0,0.0,0.0,0.0,0.0,0.0,0.0,0.0,0.0,0.0,0.0,-2.1884,-2.4222,-2.7148,-3.0648,-3.145,-3.1503,-3.0942,-2.9646,-2.6774,0.0,0.0,0.0,0.0,0.0,0.0,0.0,0.0,0.0,0.0,0.0,0.0,0.0,0.0,0.0,0.0,0.0,0.0,0.0,0.0,0.0,0.0,0.0,0.0,0.0,0.0,0.0,0.0,0.0,0.0,0.0,0.0,0.0,0.0,0.0,0.0,0.0,0.0,0.0,0.0,0.0,-2.2901,-2.1042,-2.1174,-2.1203,0.0,0.0,-2.0706,-2.1789,-2.2476,0.0,0.0,0.0,0.0,0.0,0.0,0.0,0.0,0.0,0.0,0.0,0.0,0.0,0.0,0.0,0.0,0.0,0.0,0.0,0.0,0.0,0.0,0.0,0.0,0.0,0.0,0.0,0.0,0.0,0.0,0.0,0.0,0.0,0.0,0.0,0.0,0.0,0.0,0.0,0.0,0.0,0.0,0.0,0.0,0.0,0.0,0.0,0.0,0.0,0.0,0.0,0.0,0.0,0.0,0.0,-1.8397,-2.1924,-2.4676,-2.7522,-3.0421,-3.0955,-3.0889,-3.0301,-2.8177,-2.5291,0.0,0.0,0.0,0.0,0.0,0.0,0.0,0.0,0.0,0.0,0.0,0.0,0.0,0.0,0.0,0.0,0.0,0.0,0.0,0.0,0.0,0.0,0.0,0.0,0.0,0.0,0.0,0.0,0.0,0.0,0.0,0.0,0.0,0.0,0.0,0.0,0.0,0.0,0.0,0.0,0.0,0.0,-2.274,-2.3179,0.0,0.0,0.0,-2.255,-2.3091,0.0,0.0,0.0,0.0,0.0,0.0,0.0,0.0,0.0,0.0,0.0,0.0,0.0,0.0,0.0,0.0,0.0,0.0,0.0,0.0,0.0,0.0,0.0,0.0,0.0,0.0,0.0,0.0,0.0,0.0,0.0,0.0,0.0,0.0,0.0,0.0,0.0,0.0,0.0,0.0,0.0,0.0,0.0,0.0,0.0,0.0,0.0,0.0,0.0,0.0,0.0,0.0,0.0,0.0,0.0,0.0,0.0,-2.1964,-2.5104,-2.7856,-3.014,-3.0381,-3.0221,-2.9673,-2.7054,0.0,0.0,0.0,0.0,0.0,0.0,0.0,0.0,0.0,0.0,0.0,0.0,0.0,0.0,0.0,0.0,0.0,0.0,0.0,0.0,0.0,0.0,0.0,0.0,0.0,0.0,0.0,-1.0024,0.0,0.0,0.0,0.0,0.0,0.0,0.0,0.0,0.0,0.0,0.0,0.0,0.0,0.0,-2.3866,-2.3954,-2.4862,-2.5432,0.0,0.0,-2.4481,-2.4554,-2.4569,-2.3735,0.0,0.0,0.0,0.0,0.0,0.0,0.0,0.0,0.0,0.0,0.0,0.0,0.0,0.0,0.0,0.0,0.0,0.0,0.0,0.0,0.0,0.0,0.0,0.0,0.0,0.0,0.0,0.0,0.0,0.0,0.0,0.0,0.0,0.0,0.0,0.0,0.0,0.0,0.0,0.0,0.0,0.0,0.0,0.0,0.0,0.0,0.0,0.0,0.0,0.0,0.0,0.0,0.0,0.0,-1.9038,-2.1964,-2.4903,-2.7562,-2.9833,-2.97,-2.9419,-2.9072,-2.7041,-2.4289,0.0,0.0,0.0,0.0,0.0,0.0,0.0,0.0,0.0,0.0,0.0,0.0,0.0,0.0,0.0,0.0,0.0,0.0,0.0,0.0,0.0,0.0,0.0,0.0,0.0,0.0,0.0,0.0,0.0,0.0,0.0,0.0,0.0,0.0,0.0,0.0,0.0,0.0,0.0,0.0,0.0,-2.4291,-2.3706,-2.5476,-2.7056,0.0,-2.7159,-2.6866,-2.7159,-2.8651,-2.8256,-2.3662,0.0,0.0,0.0,0.0,0.0,0.0,0.0,0.0,0.0,0.0,0.0,0.0,0.0,0.0,0.0,0.0,0.0,0.0,0.0,0.0,0.0,0.0,0.0,0.0,0.0,0.0,0.0,0.0,0.0,0.0,0.0,0.0,0.0,0.0,0.0,0.0,0.0,0.0,0.0,0.0,0.0,0.0,0.0,0.0,0.0,0.0,0.0,0.0,0.0,0.0,0.0,0.0,0.0,-1.9038,-2.1964,-2.489,-2.7535,-2.9793,-2.9806,-2.9446,-2.8778,-2.7121,-2.4649,0.0,0.0,0.0,0.0,0.0,0.0,0.0,0.0,0.0,0.0,0.0,0.0,0.0,0.0,0.0,0.0,0.0,0.0,0.0,0.0,0.0,0.0,0.0,0.0,0.0,0.0,0.0,0.0,-1.2599,-1.276,-1.2482,0.0,0.0,0.0,0.0,0.0,0.0,0.0,0.0,0.0,0.0,-2.4993,-2.5344,-2.6822,0.0,0.0,-2.7993,-2.7759,-2.8271,-2.7627,-2.6325,-2.4071,-2.2593,0.0,0.0,0.0,0.0,0.0,0.0,0.0,0.0,0.0,0.0,0.0,0.0,0.0,0.0,0.0,0.0,0.0,0.0,0.0,0.0,0.0,0.0,0.0,0.0,0.0,0.0,0.0,0.0,0.0,0.0,0.0,0.0,0.0,0.0,0.0,0.0,0.0,0.0,0.0,0.0,0.0,0.0,0.0,0.0,0.0,0.0,0.0,0.0,0.0,0.0,0.0,0.0,-1.9025,-2.1964,-2.489,-2.7535,-2.986,-2.9833,-2.9366,-2.847,-2.7041,-2.4743,0.0,0.0,0.0,0.0,0.0,0.0,0.0,0.0,0.0,0.0,0.0,0.0,0.0,0.0,0.0,0.0,0.0,0.0,0.0,0.0,0.0,0.0,0.0,0.0,0.0,0.0,0.0,0.0,-1.3492,-1.3623,-1.3462,0.0,0.0,0.0,0.0,0.0,0.0,0.0,0.0,0.0,0.0,-2.5549,-2.6515,-2.7671,-2.8549,-2.8842,-2.8271,-2.7964,-2.8403,-2.7027,-2.5432,-2.4013,0.0,0.0,0.0,0.0,0.0,0.0,0.0,0.0,0.0,0.0,0.0,0.0,0.0,0.0,0.0,0.0,0.0,0.0,0.0,0.0,0.0,0.0,0.0,0.0,0.0,0.0,0.0,-1.32,0.0,0.0,-1.2822,0.0,0.0,0.0,0.0,0.0,0.0,0.0,0.0,0.0,0.0,0.0,0.0,0.0,0.0,0.0,0.0,0.0,0.0,0.0,0.0,0.0,0.0,-1.9038,-2.1964,-2.489,-2.7522,-2.982,-2.9633,-2.9072,-2.8177,-2.6734,-2.4449,-2.1203,0.0,0.0,0.0,0.0,0.0,0.0,0.0,0.0,0.0,0.0,0.0,0.0,0.0,0.0,0.0,0.0,0.0,0.0,0.0,0.0,0.0,0.0,0.0,0.0,0.0,0.0,-1.2687,-1.2862,-1.3462,0.0,0.0,0.0,0.0,0.0,0.0,0.0,0.0,0.0,-2.1759,-2.4086,-2.5871,-2.6822,-2.7803,-2.852,-2.8827,-2.8095,-2.7495,-2.7525,-2.7671,-2.6808,0.0,0.0,0.0,0.0,0.0,0.0,0.0,0.0,0.0,0.0,0.0,0.0,0.0,0.0,0.0,0.0,0.0,0.0,0.0,0.0,0.0,0.0,0.0,0.0,0.0,0.0,0.0,-1.471,-1.4095,0.0,0.0,0.0,0.0,0.0,0.0,0.0,0.0,0.0,0.0,0.0,-2.155,-2.1964,0.0,0.0,0.0,0.0,0.0,0.0,0.0,0.0,0.0,0.0,0.0,0.0,-1.9038,-2.1951,-2.4703,-2.7241,-2.9539,-2.9339,-2.8951,-2.8457,-2.7201,-2.4636,-2.0655,0.0,0.0,0.0,0.0,0.0,0.0,0.0,0.0,0.0,0.0,0.0,0.0,0.0,0.0,0.0,0.0,0.0,0.0,0.0,0.0,0.0,0.0,0.0,0.0,0.0,-1.5438,0.0,0.0,0.0,0.0,0.0,0.0,0.0,0.0,0.0,0.0,0.0,-2.072,-2.2008,-2.4115,-2.5725,-2.6266,-2.7364,-2.8154,0.0,0.0,0.0,0.0,0.0,0.0,0.0,0.0,0.0,0.0,0.0,0.0,0.0,0.0,-2.3486,-2.0603,-1.9901,-1.9725,-1.9608,0.0,0.0,0.0,0.0,0.0,0.0,0.0,0.0,0.0,0.0,0.0,0.0,0.0,0.0,-1.686,0.0,-1.5965,0.0,0.0,0.0,0.0,0.0,0.0,0.0,0.0,-2.139,-2.2686,-2.3354,-2.3848,-2.3728,0.0,-2.2766,-2.1323,0.0,0.0,0.0,0.0,0.0,0.0,0.0,0.0,-1.9706,-2.2418,-2.4863,-2.7161,-2.9205,-2.9138,-2.8804,-2.8283,-2.6747,-2.4462,-2.1403,-1.9492,-1.7996,0.0,0.0,0.0,0.0,0.0,0.0,0.0,0.0,0.0,0.0,0.0,0.0,0.0,0.0,0.0,0.0,0.0,0.0,0.0,0.0,0.0,0.0,0.0,-1.6813,0.0,0.0,0.0,0.0,0.0,0.0,0.0,0.0,0.0,-1.8833,-2.0311,-2.1862,-2.3179,-2.4613,-2.5725,-2.6281,0.0,0.0,0.0,0.0,0.0,0.0,0.0,-2.5549,-2.4993,-2.4759,-2.4686,-2.4891,-2.5813,-2.6354,-2.5798,0.0,0.0,-2.3106,-2.2389,-2.2154,-2.1935,-2.2067,-2.2345,-2.2754,-2.3179,-2.3559,0.0,0.0,0.0,0.0,0.0,0.0,0.0,0.0,-1.9519,-1.976,0.0,-1.8731,0.0,0.0,0.0,0.0,0.0,-1.8758,0.0,0.0,-2.3661,-2.4823,-2.5144,-2.5424,-2.5411,-2.5117,-2.4783,-2.4022,-2.2766,-2.004,0.0,0.0,0.0,0.0,0.0,0.0,-2.0975,-2.326,-2.5304,-2.7228,-2.8925,-2.8991,-2.8564,-2.7642,-2.5464,-2.3981,-2.326,-2.0953,-1.9139,-1.8036,-1.6164,0.0,0.0,0.0,0.0,0.0,0.0,0.0,0.0,0.0,0.0,0.0,0.0,0.0,0.0,0.0,0.0,0.0,0.0,0.0,0.0,-1.674,0.0,0.0,0.0,0.0,0.0,0.0,0.0,0.0,0.0,0.0,-2.0779,-2.1379,-2.2696,-2.5169,0.0,0.0,0.0,0.0,-2.7013,-2.7042,-2.7276,-2.7378,-2.71,-2.751,-2.7364,-2.5886,0.0,0.0,-2.672,-2.713,-2.7276,-2.6339,-2.672,-2.6852,-2.6222,-2.5432,-2.4788,-2.4203,-2.4086,-2.4159,-2.4232,-2.4788,-2.5437,-1.852,0.0,0.0,0.0,0.0,-2.0067,-2.1085,-2.2512,-2.2512,-2.2004,-2.1136,-2.0508,0.0,0.0,0.0,0.0,0.0,0.0,-2.1603,-2.3166,-2.4396,-2.5545,-2.664,-2.6734,-2.6613,-2.6306,-2.5598,-2.4983,-2.4382,-2.2752,-2.0708,-1.833,0.0,0.0,0.0,0.0,-2.1056,-2.2979,-2.5024,-2.6827,-2.8377,-2.819,-2.7655,-2.6787,-2.6026,-2.5011,-2.3773,-2.2297,-2.0794,-1.8988,-1.7956,0.0,0.0,0.0,0.0,0.0,0.0,0.0,0.0,0.0,0.0,0.0,0.0,0.0,0.0,0.0,0.0,0.0,0.0,0.0,-1.835,-1.8525,-1.8335,0.0,0.0,0.0,0.0,0.0,0.0,0.0,0.0,0.0,-2.2345,-2.2988,-2.3925,0.0,0.0,-2.6061,-2.6574,-2.6837,-2.7159,-2.7613,-2.7569,0.0,-2.7964,-2.7598,-2.7349,-2.7569,-2.8491,-2.912,-2.893,-2.9047,-2.909,-2.8783,-2.852,-2.8344,-2.8315,-2.6939,-2.5696,-2.5242,-2.5476,-2.5959,-2.6427,-2.7013,-2.7539,-1.9332,-1.8837,-1.8937,-2.0021,-2.1713,-2.2331,-2.3619,-2.5331,-2.5331,-2.489,-2.4102,-2.3233,-2.2271,-2.1229,-2.0414,0.0,0.0,0.0,-2.3287,-2.4997,-2.5651,-2.6547,-2.7575,-2.7736,-2.7642,-2.7308,-2.6573,-2.5932,-2.5411,-2.4476,-2.2953,-2.0882,0.0,0.0,-1.9372,-2.0748,-2.2218,-2.3728,-2.5317,-2.6667,-2.7762,-2.7388,-2.6921,-2.64,-2.618,-2.5458,-2.4446,-2.3569,-2.2263,-2.0662,-1.9371,-1.8129,0.0,0.0,0.0,0.0,0.0,0.0,0.0,0.0,0.0,0.0,0.0,-1.5555,-1.6843,0.0,0.0,0.0,-1.7969,-1.8672,-1.9579,-1.955,0.0,0.0,0.0,0.0,0.0,0.0,0.0,-2.0969,-2.1625,-2.2566,-2.3764,-2.4554,-2.5257,-2.5842,-2.6091,-2.6369,-2.6822,0.0,-2.7408,-2.8052,-2.8198,-2.8403,-2.8915,-2.8622,-2.8534,-2.909,-2.9661,-3.01,-3.0232,-3.0246,-3.0203,-3.0042,-2.9734,-2.9442,-2.9383,-2.8242,-2.7247,-2.6939,-2.7276,-2.7759,-2.8169,-2.8651,-2.909,-1.9709,-2.0219,-2.0978,-2.2207,-2.3434,-2.4591,-2.6195,-2.7755,-2.7923,-2.8016,-2.8043,-2.6453,-2.5665,-2.5464,-2.3594,0.0,-2.4062,-2.4356,-2.5371,-2.6961,-2.7268,-2.7709,-2.8257,-2.8524,-2.8497,-2.819,-2.7589,-2.6881,-2.6066,-2.5438,-2.473,-2.3888,-2.2792,-2.2178,-2.2111,-2.2939,-2.3941,-2.5024,-2.5919,-2.6667,-2.7201,-2.684,-2.6373,-2.6306,-2.5949,-2.5486,-2.5144,-2.4296,-2.3406,-2.2449,-2.0455,-1.9009,-1.8374,0.0,0.0,0.0,0.0,0.0,0.0,0.0,0.0,0.0,0.0,0.0,0.0,0.0,0.0,0.0,-1.9857,0.0,-2.0208,-2.0003,0.0,0.0,0.0,-2.075,-2.0794,-2.135,-2.1891,-2.2257,0.0,0.0,-2.4935,-2.5871,-2.6486,-2.6544,-2.6588,-2.6852,-2.7495,-2.7583,-2.7788,-2.8432,-2.8959,-2.9442,-2.9705,-2.9954,-3.0086,-3.0144,-3.0305,-3.0378,-3.0598,-3.0627,-3.0554,-3.032,-3.0261,-3.0056,-2.95,-2.931,-2.9281,-2.893,-2.912,-2.9325,-2.9295,-2.9588,-3.0086,-2.0594,-2.0703,-2.2088,-2.33,-2.4037,-2.6009,-2.7671,-2.8925,-2.9462,-2.9272,-2.8457,-2.7802,-2.7028,-2.6159,-2.5665,-2.5812,-2.6453,-2.6734,-2.7335,-2.8177,-2.8484,-2.8818,-2.9152,-2.9005,-2.8898,-2.8778,-2.7989,-2.7375,-2.6934,-2.6132,-2.5531,-2.509,-2.4596,-2.3781,-2.2726,-2.3541,-2.4249,-2.4743,-2.5825,-2.656,-2.6907,-2.7196,-2.6785,-2.5732,-2.5827,-2.5368,-2.4569,-2.3606,-2.2727,-2.1888,-2.0889,-2.0012,-1.9193,-1.8016,0.0,0.0,0.0,0.0,0.0,0.0,0.0,0.0,0.0,-1.7984,-1.952,0.0,-1.9608,0.0,-2.072,-2.0691,-2.0281,-2.0384,0.0,0.0,-2.053,-2.0925,-2.1408,-2.1818,-2.2374,-2.3179,-2.342,-2.397,-2.4964,-2.5403,-2.6026,-2.6808,-2.7305,-2.7832,-2.8432,-2.8359,-2.8432,-2.8988,-2.9076,-2.9208,-2.9749,-2.9925,-2.9983,-2.9968,-2.9983,-3.0012,-3.0086,-2.9881,-2.9764,-2.9895,-2.9559,-2.9398,-2.9676,-2.9544,-2.9456,-2.9573,-2.95,-2.9369,-2.9383,-2.9822,-3.0246,-2.0921,-2.1021,-2.2406,-2.2913,-2.3292,-2.6759,-2.8876,-2.9835,-3.069,-3.0501,-2.974,-2.9179,-2.835,-2.7402,-2.7509,-2.7749,-2.8056,-2.823,-2.8551,-2.8991,-2.9165,-2.9325,-2.9472,-2.9312,-2.9165,-2.9018,-2.8404,-2.7816,-2.7268,-2.6774,-2.6253,-2.5718,-2.5558,-2.4997,-2.4102,-2.4543,-2.5079,-2.554,-2.6276,-2.6759,-2.6932,-2.6977,-2.6662,-2.6013,-2.5483,-2.5008,-2.4514,-2.3542,-2.2699,-2.2052,-2.1348,-2.0655,-2.0147,-1.9453,-1.9361,0.0,0.0,0.0,0.0,0.0,0.0,0.0,0.0,0.0,0.0,0.0,-2.0135,-2.0676,-2.0881,-2.0911,-2.0691,-2.0706,-2.0764,-2.0881,-2.1189,-2.1628,-2.2257,-2.2608,-2.3135,-2.394,-2.4174,-2.4434,-2.5213,-2.5819,-2.643,-2.6954,-2.7539,-2.8125,-2.8564,-2.8534,-2.8666,-2.9251,-2.9222,-2.9266,-2.9793,-2.9866,-2.9866,-2.9866,-2.9866,-2.9866,-2.9851,-2.972,-2.9661,-2.9793,-2.9442,-2.9208,-2.9559,-2.9383,-2.9237,-2.9339,-2.9295,-2.9281,-2.9544,-2.9881,-3.0129,-2.1157,-2.114,-2.2242,-2.2205,-2.1989,-2.697,-2.9248,-2.9692,-3.076,-3.1236,-3.0955,-3.0274,-2.9526,-2.8804,-2.9045,-2.9152,-2.9152,-2.9152,-2.9299,-2.9539,-2.9539,-2.9539,-2.9539,-2.9539,-2.9392,-2.9085,-2.8764,-2.8177,-2.7388,-2.7268,-2.6827,-2.6092,-2.6181,-2.6034,-2.5792,-2.5819,-2.6094,-2.6493,-2.6865,-2.6867,-2.7086,-2.6432,-2.6229,-2.6416,-2.5021,-2.4337,-2.4487,-2.3447,-2.2709,-2.2408,-2.1477,-2.1029,-2.0989,-2.0631,-2.0552,0.0,-2.0644,0.0,0.0,0.0,0.0,0.0,0.0,0.0,0.0,-2.0662,-2.0808,-2.072,-2.0837,-2.0998,-2.1262,-2.1042,-2.1145,-2.1701,-2.2081,-2.2535,-2.3091,-2.3501,-2.3954,-2.4569,-2.4891,-2.5169,-2.5491,-2.6296,-2.6808,-2.6983,-2.7364,-2.7847,-2.8286,-2.8359,-2.8549,-2.9134,-2.9237,-2.9251,-2.9529,-2.9676,-2.9705,-2.972,-2.969,-2.9734,-2.9705,-2.9705,-2.972,-2.969,-2.9456,-2.9295,-2.931,-2.9076,-2.8915,-2.893,-2.893,-2.9076,-2.9529,-2.9734,-2.9968,-2.1335,-2.1538,-2.244,-2.2715,-2.277,-2.6192,-2.6837,-2.5499,-2.7814,-2.913,-2.9847,-3.014,-3.0047,-2.9686,-2.9726,-2.9753,-2.9753,-2.9753,-2.978,-2.9833,-2.9833,-2.9833,-2.9833,-2.9833,-2.9686,-2.9379,-2.8858,-2.839,-2.7963,-2.7255,-2.6827,-2.6653,-2.6743,-2.6908,-2.7323,0.0,0.0,0.0,-2.6973,-2.7442,-2.7374,-2.7167,-2.6641,-2.5828,-2.461,0.0,-2.2889,-2.2217,-2.1719,-2.141,-2.0949,0.0,0.0,0.0,0.0,0.0,0.0,0.0,0.0,0.0,0.0,0.0,-2.2169,-2.1906,-2.1115,-2.132,-2.1291,-2.0794,-2.1437,-2.1818,-2.1628,-2.1789,-2.1964,-2.2096,-2.2593,-2.3076,-2.3471,-2.4027,-2.454,-2.4905,-2.5022,-2.5183,-2.5476,-2.571,-2.612,-2.6822,-2.6866,-2.713,-2.7934,-2.8037,-2.8095,-2.8227,-2.8505,-2.8651,-2.8695,-2.8944,-2.9134,-2.9076,-2.9076,-2.909,-2.9105,-2.909,-2.9076,-2.9105,-2.9017,-2.8988,-2.8988,-2.893,-2.8886,-2.8886,-2.8886,-2.893,-2.9061,-2.9295,-2.963,-2.1384,-2.1376,-2.1942,-2.1914,0.0,-2.3549,-2.372,-2.2984,-2.7005,-2.9077,-2.9638,-3.0478,-3.0555,-3.0114,-2.9673,-2.9406,-2.9245,-2.8804,-2.8845,-2.9259,-2.9272,-2.9499,-2.9913,-2.9766,-2.9633,-2.9472,-2.9032,-2.8591,-2.8136,-2.7696,-2.7335,-2.7041,-2.7241,-2.7478,-2.7776,-2.779,-2.7547,-2.7237,-2.7401,-2.7561,-2.7554,-2.7112,-2.6501,-2.5869,-2.4439,0.0,0.0,0.0,0.0,0.0,0.0,0.0,0.0,-2.1012,0.0,-2.1661,-2.1881,-2.2122,-2.2374,-2.2257,-2.2315,-2.2608,-2.2623,-2.2418,-2.1935,-2.192,-2.1862,-2.1686,-2.1993,-2.2169,-2.2169,-2.2301,-2.2462,-2.2637,-2.3062,-2.353,-2.4013,-2.4364,-2.4701,-2.4993,-2.5066,-2.5125,-2.5271,-2.5593,-2.593,-2.6442,-2.6661,-2.691,-2.7378,-2.7627,-2.7803,-2.8125,-2.83,-2.8491,-2.8637,-2.8769,-2.8886,-2.8886,-2.8886,-2.8886,-2.8886,-2.8769,-2.871,-2.8827,-2.8769,-2.871,-2.8856,-2.8886,-2.8886,-2.8886,-2.8886,-2.8827,-2.8725,-2.9071,-2.9621,-2.1384,-2.1384,-2.1384,-2.1051,-2.0491,-2.1319,-2.1613,-2.2154,0.0,0.0,0.0,-3.065,-3.0782,-3.0234,-2.9526,-2.9058,-2.8791,-2.807,-2.8136,-2.8831,-2.8845,-2.9192,-2.982,-2.9593,-2.9486,-2.9472,-2.9179,-2.8818,-2.8377,-2.823,-2.8063,-2.7593,-2.7729,-2.785,-2.8219,-2.7956,-2.795,-2.8269,-2.779,-2.7679,-2.7717,-2.7226,-2.657,-2.6212,-2.4494,-2.3444,-2.3365,-2.2399,-2.1828,-2.1837,-2.1389,-2.1362,-2.1727,-2.1548,-2.1686,-2.2167,-2.2241,-2.2364,-2.2857,-2.2652,-2.271,-2.3164,-2.2945,-2.2725,-2.2564,-2.2374,-2.2345,-2.2535,-2.2418,-2.2447,-2.2681,-2.2769,-2.293,-2.3252,-2.3574,-2.3998,-2.4481,-2.4627,-2.4774,-2.5008,-2.5066,-2.5066,-2.5081,-2.5564,-2.593,-2.6003,-2.6471,-2.6939,-2.7013,-2.7247,-2.7554,-2.7964,-2.8095,-2.833,-2.8564,-2.8739,-2.8798,-2.8783,-2.8798,-2.8812,-2.8769,-2.8564,-2.8476,-2.8637,-2.8505,-2.8505,-2.8725,-2.8783,-2.8827,-2.8871,-2.8842,-2.8739,-2.8674,-2.9056,-2.9653,-2.1384,-2.1384,-2.1384,-2.1319,-2.1213,-2.1942,-2.2995,-2.4315,-2.6547,-2.8251,-2.9588,-3.0261,-3.0301,-2.9967,-2.9847,-2.9766,-2.9726,-2.9593,-2.9619,-2.974,-2.9726,-2.9659,-2.9553,-2.9499,-2.9486,-2.9459,-2.9179,-2.9125,-2.9192,-2.8511,-2.8265,-2.8632,-2.8468,-2.8853,-2.9514,-2.8919,-2.8762,-2.921,-2.8429,-2.8255,-2.869,-2.7962,-2.7378,-2.678,-2.51,-2.401,-2.3588,-2.2813,-2.2424,-2.251,-2.2131,-2.1992,-2.1992,-2.2582,-2.2822,-2.2964,-2.342,-2.3837,-2.3866,-2.3837,-2.3735,-2.3545,-2.3486,-2.312,-2.233,-2.2432,-2.2476,-2.2301,-2.2696,-2.2988,-2.3062,-2.3296,-2.3588,-2.3896,-2.4232,-2.4481,-2.4583,-2.4818,-2.4993,-2.5052,-2.5066,-2.5066,-2.5096,-2.5388,-2.5637,-2.571,-2.6222,-2.6676,-2.691,-2.7027,-2.7086,-2.7203,-2.7437,-2.7613,-2.7876,-2.8169,-2.8461,-2.8491,-2.852,-2.8505,-2.8534,-2.8256,-2.8081,-2.8095,-2.8066,-2.8169,-2.8447,-2.8505,-2.8622,-2.8783,-2.8695,-2.8644,-2.8832,-2.8988,-2.9154,-2.1384,-2.1368,-2.1287,-2.1246,-2.1213,-2.1814,-2.3146,-2.4547,-2.5633,-2.6783,-2.8063,-2.8854,-2.9282,-2.9404,-2.8934,-2.8811,-2.9192,-2.8698,-2.8738,-2.9192,-2.9205,-2.9392,-2.9686,-2.9553,-2.9566,-2.9686,-2.9259,-2.9367,-2.9744,-2.9231,-2.922,-2.9381,-2.9466,-2.9563,-2.9866,-2.9238,-2.9079,-2.9383,-2.8576,-2.8246,-2.8232,-2.7802,-2.7258,-2.6333,-2.5425,-2.4679,-2.4054,-2.3609,-2.3299,-2.3091,-2.2821,-2.275,-2.2879,-2.3006,-2.3206,-2.3609,-2.3739,-2.3956,-2.4086,-2.4086,-2.4013,-2.3881,-2.3852,-2.3618,-2.3003,-2.2915,-2.2901,-2.2945,-2.3223,-2.3457,-2.3618,-2.3925,-2.4188,-2.4335,-2.4642,-2.4832,-2.4847,-2.4949,-2.5052,-2.5066,-2.5066,-2.5066,-2.5066,-2.533,-2.5608,-2.5783,-2.6222,-2.6544,-2.6705,-2.672,-2.6866,-2.7188,-2.7378,-2.7642,-2.7905,-2.8052,-2.8315,-2.8608,-2.8388,-2.8286,-2.8344,-2.8052,-2.7817,-2.7891,-2.7817,-2.792,-2.8315,-2.8447,-2.852,-2.8564,-2.8703,-2.865,-2.8597,-2.8683,-2.9035,-2.1384,-2.1368,-2.1197,-2.1075,-2.097,-2.1399,-2.2409,-2.3776,-2.4431,-2.5281,-2.613,-2.7712,-2.8545,-2.8843,-2.8373,-2.8465,-2.8845,-2.8257,-2.8323,-2.8858,-2.8898,-2.9232,-2.9753,-2.9579,-2.9606,-2.9753,-2.9352,-2.9461,-3.0043,-2.9798,-2.9804,-2.9957,-3.0225,-3.0296,-2.9983,-2.9645,-2.9485,-2.9486,-2.8848,-2.8388,-2.8072,-2.7769,-2.7173,-2.6333,-2.5937,-2.5499,-2.502,-2.4474,-2.4146,-2.394,-2.3505,-2.3434,-2.3695,-2.3505,-2.3665,-2.4188,-2.3999,-2.4043,-2.4305,-2.4305,-2.4276,-2.4203,-2.4188,-2.4057,-2.3735,-2.3486,-2.3398,-2.3574,-2.3647,-2.3837,-2.413,-2.4393,-2.4598,-2.4671,-2.4891,-2.5037,-2.5052,-2.5066,-2.5066,-2.5066,-2.5066,-2.5066,-2.511,-2.533,-2.5637,-2.5959,-2.6135,-2.6208,-2.6339,-2.6398,-2.6647,-2.7071,-2.732,-2.7495,-2.8022,-2.7978,-2.8037,-2.852,-2.8169,-2.7993,-2.8022,-2.7715,-2.7481,-2.7613,-2.7525,-2.7598,-2.8066,-2.8198,-2.8227,-2.8424,-2.8517,-2.8597,-2.8354,-2.8504,-2.9007,-2.1384,-2.136,-2.1197,-2.0937,-2.0653,-2.0799,-2.1094,-2.1828,-2.2763,-2.3405,-2.4204,-2.7319,-2.8774,-2.8881,-2.969,-2.984,-2.978,-2.998,-2.9927,-2.9766,-2.9793,-2.97,-2.9566,-2.9499,-2.9499,-2.9539,-2.9459,-2.9566,-2.9998,-2.9743,-2.9662,-2.9999,-3.0764,-3.0934,-3.0378,-3.029,-3.0144,-2.9822,-2.95,-2.9178,-2.8856,-2.8549,-2.806,-2.7725,-2.7114,-2.6619,-2.6168,-2.552,-2.5037,-2.492,-2.4276,-2.397,-2.413,-2.4364,-2.4525,-2.454,-2.4788,-2.4964,-2.4949,-2.4964,-2.4818,-2.4554,-2.4525,-2.4379,-2.4086,-2.4013,-2.3866,-2.3749,-2.3881,-2.4174,-2.4481,-2.4569,-2.4701,-2.4935,-2.5022,-2.5066,-2.5066,-2.5066,-2.5066,-2.5066,-2.5066,-2.5066,-2.5096,-2.533,-2.5637,-2.5871,-2.5622,-2.5579,-2.5974,-2.6105,-2.6237,-2.6574,-2.6837,-2.7056,-2.7247,-2.7378,-2.7583,-2.7671,-2.7598,-2.7583,-2.7554,-2.7378,-2.7071,-2.7217,-2.713,-2.7247,-2.7481,-2.7569,-2.785,-2.8177,-2.8357,-2.8176,-2.8573,-2.8722,-2.8929,-2.1481,-2.136,-2.1083,-2.0759,-2.0466,-2.0547,-2.0912,-2.1414,-2.1801,-2.2329,-2.3237,-2.556,-2.7132,-2.7977,-2.8515,-2.9105,-2.994,-3.0047,-3.0034,-2.9913,-2.9913,-2.9847,-2.9753,-2.974,-2.974,-2.9713,-2.9566,-2.9988,-3.0698,-3.1021,-3.1179,-3.1095,-3.1233,-3.0993,-3.0407,-3.0349,-3.0188,-2.9866,-2.9734,-2.9515,-2.9164,-2.8695,-2.8183,-2.77,-2.7408,-2.7027,-2.6544,-2.6105,-2.574,-2.5359,-2.5081,-2.4847,-2.4671,-2.4788,-2.4862,-2.4862,-2.4979,-2.5066,-2.5066,-2.5066,-2.4993,-2.4862,-2.4862,-2.4715,-2.4423,-2.454,-2.4525,-2.4262,-2.4291,-2.4496,-2.4788,-2.4862,-2.492,-2.5037,-2.5066,-2.5066,-2.5066,-2.5066,-2.5066,-2.5066,-2.5066,-2.5066,-2.5096,-2.533,-2.5476,-2.5505,-2.533,-2.5476,-2.571,-2.5886,-2.6149,-2.6457,-2.6778,-2.7056,-2.7203,-2.7188,-2.7349,-2.7569,-2.7422,-2.7232,-2.7364,-2.7203,-2.6998,-2.6983,-2.6983,-2.7115,-2.7452,-2.7466,-2.7673,-2.8015,-2.8425,-2.8557,-2.9026,-2.8995,-2.9138,-2.1506,-2.1335,-2.1002,-2.0677,-2.0409,-2.0483,-2.0687,-2.1096,-2.1221,-2.1613,-2.2266,-2.3993,-2.5783,-2.7109,-2.7816,-2.8711,-2.98,-3.0154,-3.014,-2.9953,-2.9993,-2.9993,-2.9927,-2.9913,-2.9913,-2.9887,-2.9713,-3.0069,-3.1109,-3.1649,-3.1859,-3.1655,-3.1563,-3.1124,-3.0539,-3.0481,-3.0364,-3.0144,-3.0056,-2.9881,-2.9603,-2.9105,-2.8476,-2.7832,-2.7744,-2.7437,-2.6808,-2.6691,-2.6383,-2.5827,-2.571,-2.5564,-2.5344,-2.5242,-2.5154,-2.5066,-2.5066,-2.5066,-2.5066,-2.5066,-2.5066,-2.5066,-2.5066,-2.4949,-2.4803,-2.492,-2.4935,-2.4744,-2.4701,-2.4818,-2.5008,-2.5066,-2.5066,-2.5066,-2.5066,-2.5066,-2.5066,-2.5066,-2.5066,-2.5066,-2.5066,-2.5066,-2.5096,-2.5315,-2.5447,-2.5183,-2.533,-2.5476,-2.5461,-2.5666,-2.5959,-2.6208,-2.65,-2.6822,-2.7115,-2.7013,-2.7115,-2.7159,-2.6983,-2.691,-2.713,-2.6925,-2.6896,-2.6837,-2.6925,-2.7027,-2.7203,-2.7305,-2.757,-2.7921,-2.8381,-2.8804,-2.898,-2.9202,-2.9282,-2.1392,-2.1335,-2.1002,-2.0759,-2.0572,-2.0426,-2.0231,-2.0225,-2.1078,-2.1274,-2.1461,-2.3042,-2.4949,-2.6599,-2.8302,-2.9608,-2.9933,-3.0715,-3.0635,-3.002,-3.0181,-3.0181,-2.9927,-2.9913,-2.9913,-2.9913,-2.9873,-3.0231,-3.0616,-3.1123,-3.1345,-3.1153,-3.1611,-3.1446,-3.089,-3.0803,-3.0788,-3.07,-3.0451,-3.0305,-3.0246,-2.9939,-2.9295,-2.8491,-2.8388,-2.8066,-2.7466,-2.713,-2.6808,-2.6471,-2.6164,-2.5974,-2.593,-2.5652,-2.5359,-2.514,-2.5066,-2.5066,-2.5081,-2.5066,-2.5066,-2.5066,-2.5052,-2.5052,-2.5008,-2.5022,-2.5037,-2.5022,-2.4993,-2.5022,-2.5052,-2.5066,-2.5066,-2.5066,-2.5066,-2.5066,-2.5066,-2.5066,-2.5066,-2.5066,-2.5066,-2.511,-2.5096,-2.533,-2.5374,-2.5227,-2.5344,-2.5432,-2.5227,-2.5374,-2.5593,-2.5696,-2.5915,-2.6179,-2.6457,-2.6632,-2.6471,-2.6588,-2.6778,-2.6544,-2.6457,-2.6457,-2.6603,-2.6735,-2.6881,-2.6969,-2.6998,-2.7114,-2.7331,-2.7734,-2.8259,-2.8741,-2.9091,-2.9171,-2.925,-2.1425,-2.1222,-2.1205,-2.097,-2.0612,-2.0637,-2.0434,-2.006,-2.0273,-2.0292,-2.03,-2.1497,-2.2654,-2.3597,-2.5281,-2.7616,-3.0093,-3.0541,-3.0501,-3.0194,-3.0127,-3.0114,-3.0181,-3.0007,-2.9913,-2.9913,-2.9913,-3.0272,-3.0973,-3.1507,-3.184,-3.1845,-3.2105,-3.1783,-3.1242,-3.1124,-3.1037,-3.0832,-3.07,-3.0554,-3.0364,-3.0027,-2.9588,-2.9076,-2.8827,-2.8432,-2.7803,-2.7466,-2.7144,-2.6822,-2.65,-2.6222,-2.6018,-2.571,-2.5579,-2.5622,-2.5286,-2.514,-2.5301,-2.5169,-2.5066,-2.5066,-2.5066,-2.5066,-2.5066,-2.5066,-2.5066,-2.5066,-2.5066,-2.5066,-2.5066,-2.5066,-2.5066,-2.5066,-2.5066,-2.5066,-2.5066,-2.5066,-2.5066,-2.5066,-2.5066,-2.5198,-2.5491,-2.5593,-2.5491,-2.5403,-2.5461,-2.5374,-2.5198,-2.533,-2.5505,-2.5579,-2.5798,-2.5974,-2.5842,-2.6296,-2.65,-2.6661,-2.6764,-2.6778,-2.6735,-2.672,-2.6852,-2.6793,-2.6896,-2.6852,-2.6982,-2.7023,-2.7221,-2.7833,-2.8341,-2.8772,-2.9139,-2.9202,-2.925,-2.1433,-2.1238,-2.1278,-2.1059,-2.071,-2.0742,-2.0531,-2.0141,-1.9955,-1.9808,-1.9864,-2.063,-2.1415,-2.2274,-2.3306,-2.5567,-2.8433,-2.8669,-2.8938,-2.943,-2.9313,-2.9469,-3.0167,-3.0007,-2.9913,-2.9913,-3.0093,-3.0629,-3.1507,-3.1877,-3.2074,-3.2295,-3.228,-3.2017,-3.1549,-3.1461,-3.1344,-3.1154,-3.1037,-3.0876,-3.0642,-3.0349,-3.0012,-2.969,-2.9369,-2.8856,-2.8154,-2.7905,-2.7642,-2.732,-2.7086,-2.6778,-2.6354,-2.6018,-2.5886,-2.5959,-2.5622,-2.5447,-2.5622,-2.5476,-2.533,-2.5213,-2.5213,-2.5183,-2.5081,-2.5066,-2.5066,-2.5066,-2.5066,-2.5066,-2.5066,-2.5066,-2.5066,-2.5066,-2.5066,-2.5066,-2.5066,-2.5066,-2.5066,-2.5066,-2.5066,-2.5315,-2.571,-2.5622,-2.5549,-2.5535,-2.5535,-2.5403,-2.5169,-2.5227,-2.5374,-2.5388,-2.552,-2.5608,-2.5622,-2.5915,-2.6076,-2.6222,-2.6559,-2.6705,-2.6866,-2.691,-2.6925,-2.6866,-2.6793,-2.6849,-2.6905,-2.7087,-2.7478,-2.7962,-2.8485,-2.8772,-2.9043,-2.9202,-2.925,-2.1384,-2.1343,-2.1205,-2.1027,-2.0824,-2.0677,-2.0499,-2.0296,-2.0125,-2.0028,-2.0151,-2.067,-2.147,-2.2407,-2.3052,-2.4186,-2.4769,-2.527,-2.6163,-2.7289,-2.7618,-2.8565,-2.9827,-2.98,-2.994,-2.9913,-3.0451,-3.0973,-3.1877,-3.2054,-3.2074,-3.2354,-3.2324,-3.2163,-3.1798,-3.1798,-3.1783,-3.1637,-3.1388,-3.1256,-3.1256,-3.0876,-3.0554,-3.029,-2.9968,-2.9383,-2.852,-2.8417,-2.8212,-2.7964,-2.7891,-2.7627,-2.7042,-2.6691,-2.6398,-2.6222,-2.6061,-2.6032,-2.6032,-2.6018,-2.5827,-2.5593,-2.5535,-2.5418,-2.5169,-2.511,-2.5096,-2.5066,-2.5066,-2.5066,-2.5066,-2.5066,-2.5066,-2.5066,-2.5066,-2.5066,-2.5066,-2.5066,-2.5066,-2.5081,-2.511,-2.5213,-2.5461,-2.5652,-2.5681,-2.5666,-2.5608,-2.5505,-2.5242,-2.5198,-2.5081,-2.511,-2.5213,-2.5301,-2.5418,-2.5535,-2.5549,-2.5637,-2.6032,-2.6325,-2.6574,-2.6676,-2.6735,-2.6691,-2.653,-2.6442,-2.6989,-2.7214,-2.756,-2.8141,-2.8377,-2.8788,-2.9059,-2.9202,-2.9266,-2.1384,-2.136,-2.1197,-2.1027,-2.084,-2.0669,-2.0491,-2.0312,-2.0141,-2.0068,-2.0225,-2.0215,-2.0234,-2.0516,-2.0829,-2.0896,-2.1129,-2.1361,-2.3069,-2.6069,-2.6619,-2.7421,-2.8988,-2.9118,-2.9558,-3.0299,-3.0437,-3.1151,-3.1877,-3.2054,-3.2174,-3.2632,-3.2617,-3.2441,-3.2149,-3.212,-3.1944,-3.149,-3.1359,-3.1212,-3.0978,-3.0671,-3.0451,-3.0334,-3.0042,-2.969,-2.9412,-2.8798,-2.8403,-2.83,-2.8066,-2.7847,-2.7627,-2.7349,-2.7232,-2.7291,-2.691,-2.6691,-2.6661,-2.6471,-2.6222,-2.5944,-2.5871,-2.571,-2.5432,-2.5388,-2.5286,-2.511,-2.5066,-2.5066,-2.5066,-2.5066,-2.5066,-2.5066,-2.5066,-2.5066,-2.5081,-2.5081,-2.5169,-2.5344,-2.5374,-2.5622,-2.6032,-2.6179,-2.6105,-2.6091,-2.5959,-2.5754,-2.5652,-2.5257,-2.5183,-2.5315,-2.5227,-2.511,-2.5286,-2.5418,-2.5447,-2.5608,-2.593,-2.6149,-2.6354,-2.653,-2.6559,-2.65,-2.6325,-2.6437,-2.6982,-2.7357,-2.7844,-2.8156,-2.8629,-2.8932,-2.9028,-2.9202,-2.9266,-2.1343,-2.1278,-2.1173,-2.0986,-2.0759,-2.0637,-2.0491,-2.032,-2.0206,-2.0158,-2.0125,-1.9971,-1.9825,-1.9703,-1.9581,-1.9459,-1.9354,-1.9289,-2.1031,-2.3806,-2.4525,-2.5859,-2.8186,-2.9247,-3.0066,-3.1001,-3.1153,-3.162,-3.2232,-3.2232,-3.2409,-3.2763,-3.2763,-3.2676,-3.2456,-3.2339,-3.2046,-3.1695,-3.1432,-3.1212,-3.0993,-3.07,-3.0525,-3.0481,-3.0217,-3.0056,-2.9998,-2.9325,-2.8959,-2.8886,-2.8549,-2.8104,-2.7668,-2.7682,-2.7744,-2.7817,-2.7613,-2.7349,-2.732,-2.7056,-2.672,-2.6442,-2.6266,-2.6047,-2.5798,-2.571,-2.5593,-2.5461,-2.5432,-2.5418,-2.5418,-2.5286,-2.5242,-2.5242,-2.5125,-2.5125,-2.5183,-2.5242,-2.5388,-2.5608,-2.571,-2.5988,-2.6325,-2.6369,-2.6339,-2.6281,-2.6047,-2.5754,-2.5637,-2.5301,-2.5315,-2.5315,-2.5169,-2.514,-2.5227,-2.5301,-2.5359,-2.5637,-2.5988,-2.612,-2.6266,-2.6427,-2.6515,-2.6526,-2.6379,-2.6505,-2.6892,-2.7453,-2.7971,-2.833,-2.8835,-2.8963,-2.9218,-2.925,-2.9298,-2.1287,-2.1148,-2.1132,-2.0954,-2.0677,-2.0621,-2.0507,-2.0361,-2.0312,-2.0304,-2.0271,-2.0141,-2.006,-1.9971,-1.9719,-1.9565,-1.9484,-1.9362,-1.9782,-2.0792,-2.1698,-2.3827,-2.7188,-2.9704,-3.1095,-3.1763,-3.2124,-3.252,-3.2778,-3.2763,-3.2763,-3.2763,-3.2763,-3.2763,-3.2676,-3.2456,-3.231,-3.2134,-3.1681,-3.1417,-3.1329,-3.1022,-3.0846,-3.0832,-3.0554,-3.0378,-3.032,-2.9879,-2.9529,-2.9778,-2.9178,-2.8458,-2.7593,-2.774,-2.811,-2.8154,-2.8052,-2.7993,-2.7934,-2.7627,-2.732,-2.6998,-2.6691,-2.6398,-2.6105,-2.6032,-2.6003,-2.5915,-2.5915,-2.5959,-2.5886,-2.5725,-2.5579,-2.552,-2.5257,-2.5198,-2.5432,-2.5476,-2.5593,-2.5857,-2.6003,-2.6135,-2.6413,-2.6222,-2.6149,-2.6018,-2.5827,-2.5622,-2.5505,-2.5432,-2.5213,-2.5242,-2.5388,-2.5301,-2.5418,-2.552,-2.5549,-2.5593,-2.5944,-2.6135,-2.6208,-2.6339,-2.6369,-2.6393,-2.6423,-2.6676,-2.7019,-2.7469,-2.8079,-2.8582,-2.8851,-2.9138,-2.9298,-2.9298,-2.9314,-2.136,-2.1303,-2.1181,-2.1075,-2.0954,-2.0718,-2.0572,-2.0507,-2.0377,-2.0336,-2.0312,-2.0271,-2.0182,-2.006,-1.9963,-1.9776,-1.9573,-1.9475,-1.9354,-1.9618,-1.9907,-2.2663,-2.6674,-2.9806,-3.1469,-3.1666,-3.2,-3.2534,-3.2793,-3.2601,-3.2763,-3.2763,-3.2763,-3.2763,-3.2734,-3.2661,-3.2515,-3.231,-3.2149,-3.1871,-3.1637,-3.1344,-3.1183,-3.1154,-3.0861,-3.07,-3.0534,-2.9271,-2.8648,-2.8882,-2.9167,-2.9022,-2.8255,-2.8647,-2.8944,-2.8944,-2.8944,-2.8769,-2.8344,-2.8008,-2.7686,-2.7378,-2.7071,-2.6735,-2.6413,-2.6383,-2.6266,-2.6105,-2.6018,-2.6061,-2.6032,-2.5959,-2.59,-2.5827,-2.5432,-2.5169,-2.5271,-2.5403,-2.5579,-2.5681,-2.6091,-2.6237,-2.6208,-2.6252,-2.6222,-2.6061,-2.5944,-2.59,-2.5813,-2.5754,-2.5622,-2.5886,-2.5988,-2.574,-2.5637,-2.574,-2.5754,-2.5637,-2.5871,-2.6179,-2.6222,-2.6281,-2.6208,-2.6061,-2.6398,-2.6772,-2.7117,-2.7666,-2.8121,-2.8547,-2.8995,-2.9298,-2.9298,-2.9314,-2.9345,-2.1416,-2.127,-2.1165,-2.1083,-2.0994,-2.0791,-2.0702,-2.0669,-2.0515,-2.0434,-2.0418,-2.0344,-2.0263,-2.0174,-2.0093,-1.9955,-1.976,-1.9662,-1.9532,-1.9585,-2.0363,-2.2434,-2.5153,-2.8125,-2.9724,-2.9938,-3.0555,-3.1262,-3.1732,-3.1756,-3.204,-3.2586,-3.2763,-3.2763,-3.2763,-3.2617,-3.2485,-3.228,-3.2163,-3.1973,-3.1783,-3.1622,-3.1534,-3.1446,-3.1198,-3.0811,-2.9677,-2.8217,-2.768,-2.803,-2.8084,-2.8015,-2.8042,-2.8726,-2.9094,-2.9573,-2.9456,-2.9193,-2.8842,-2.8417,-2.8081,-2.7876,-2.7583,-2.7335,-2.7174,-2.7115,-2.6998,-2.691,-2.6837,-2.6822,-2.6778,-2.6603,-2.631,-2.6018,-2.5681,-2.552,-2.5637,-2.5725,-2.5813,-2.5959,-2.612,-2.6237,-2.6032,-2.6208,-2.6179,-2.6076,-2.6003,-2.6076,-2.6135,-2.6105,-2.6076,-2.6208,-2.6222,-2.593,-2.5813,-2.59,-2.6179,-2.6076,-2.6047,-2.6325,-2.6383,-2.6383,-2.6325,-2.631,-2.6559,-2.6849,-2.7182,-2.7515,-2.8038,-2.8418,-2.901,-2.9314,-2.9329,-2.9441,-2.9457,-2.1457,-2.1148,-2.1148,-2.1059,-2.0937,-2.0889,-2.088,-2.0848,-2.0661,-2.058,-2.0539,-2.0401,-2.0312,-2.0312,-2.0174,-2.0076,-2.0036,-1.9873,-1.9743,-1.9983,-2.0864,-2.2172,-2.269,-2.5935,-2.7392,-2.7487,-2.8071,-2.9333,-3.0199,-3.01,-3.0684,-3.1784,-3.2126,-3.2069,-3.1848,-3.1797,-3.1829,-3.18,-3.1816,-3.1888,-3.2002,-3.1915,-3.1856,-3.1798,-3.0994,-2.9662,-2.8154,-2.6828,-2.6436,-2.7429,-2.6697,-2.6887,-2.7375,-2.8003,-2.8924,-2.9558,-2.9545,-2.95,-2.9281,-2.8783,-2.8447,-2.833,-2.8066,-2.7949,-2.7832,-2.7773,-2.7759,-2.77,-2.792,-2.7773,-2.7715,-2.7364,-2.6896,-2.6471,-2.6222,-2.6325,-2.6413,-2.6266,-2.6179,-2.6442,-2.6237,-2.6149,-2.6061,-2.6061,-2.6061,-2.6061,-2.6076,-2.6222,-2.6325,-2.6354,-2.6266,-2.6193,-2.6149,-2.6018,-2.6003,-2.6047,-2.6398,-2.6588,-2.6515,-2.6617,-2.6676,-2.6676,-2.6617,-2.6676,-2.6925,-2.6954,-2.6997,-2.7346,-2.7885,-2.8274,-2.8722,-2.9042,-2.9377,-2.9584,-2.9663,-2.153,-2.1327,-2.1327,-2.1311,-2.1254,-2.1132,-2.1067,-2.1043,-2.0734,-2.0629,-2.0556,-2.0401,-2.0328,-2.032,-2.0279,-2.0198,-2.0093,-2.002,-1.9971,-1.9938,-2.0157,-2.0384,-2.1397,-2.4526,-2.6072,-2.6118,-2.6576,-2.7896,-2.8804,-2.8347,-2.8762,-3.0958,-2.9818,-2.8808,-2.9335,-2.9654,-2.9601,-3.0301,-3.0942,-3.1797,-3.2266,-3.2106,-3.199,-3.1772,-3.0274,-2.8393,-2.6315,-2.4718,-2.4615,-2.558,-2.6167,-2.631,-2.6993,-2.8027,-2.8935,-2.9236,-2.9833,-2.9895,-2.9442,-2.9061,-2.8695,-2.8534,-2.83,-2.7949,-2.7949,-2.8037,-2.8008,-2.7964,-2.7949,-2.8037,-2.7964,-2.7847,-2.751,-2.7188,-2.7086,-2.7042,-2.6881,-2.6588,-2.6442,-2.65,-2.6617,-2.6676,-2.6413,-2.6354,-2.6281,-2.612,-2.6208,-2.6369,-2.65,-2.6632,-2.6544,-2.6457,-2.6354,-2.6325,-2.6442,-2.6544,-2.6852,-2.7086,-2.7027,-2.6998,-2.7056,-2.7013,-2.6969,-2.71,-2.732,-2.7261,-2.7174,-2.7437,-2.8011,-2.8297,-2.8625,-2.9023,-2.9439,-2.9613,-2.9981,-2.1628,-2.1392,-2.1384,-2.1384,-2.1368,-2.1287,-2.1246,-2.1197,-2.097,-2.0799,-2.0694,-2.0531,-2.0401,-2.0328,-2.0401,-2.0353,-2.0214,-2.0182,-2.0231,-2.0223,-2.006,-1.9971,-2.0184,-2.1912,-2.3356,-2.364,-2.4125,-2.5303,-2.6454,-2.6473,-2.6794,-2.9077,-2.7854,-2.7683,-2.7789,-2.7826,-2.8344,-2.9335,-3.0218,-3.1137,-3.182,-3.1706,-3.0789,-2.9853,-2.813,-2.6375,-2.4623,-2.3219,-2.3144,-2.3764,-2.4604,-2.5653,-2.6613,-2.7486,-2.8244,-2.9229,-2.9406,-2.9905,-2.9676,-2.9544,-2.9295,-2.9105,-2.893,-2.8886,-2.8842,-2.8842,-2.8842,-2.8812,-2.871,-2.8534,-2.8227,-2.8183,-2.8022,-2.7788,-2.77,-2.7613,-2.7378,-2.6896,-2.65,-2.65,-2.6471,-2.6413,-2.6339,-2.6544,-2.6632,-2.653,-2.6793,-2.6954,-2.6998,-2.7086,-2.6954,-2.6837,-2.6705,-2.6705,-2.6881,-2.7086,-2.7393,-2.7525,-2.7525,-2.7539,-2.7583,-2.7481,-2.7364,-2.7525,-2.77,-2.77,-2.7627,-2.7881,-2.8118,-2.8516,-2.8927,-2.9336,-2.9692,-3.006,-3.0299,-2.1733,-2.1416,-2.14,-2.1384,-2.1384,-2.1376,-2.1368,-2.1352,-2.1197,-2.101,-2.0872,-2.0694,-2.0515,-2.0458,-2.0474,-2.0442,-2.0353,-2.0312,-2.0361,-2.0409,-2.0279,-2.0166,-2.0315,-2.0644,-2.0943,-2.1281,-2.1631,-2.301,-2.4207,-2.4217,-2.495,-2.6584,-2.6467,-2.6165,-2.6375,-2.673,-2.6985,-2.7743,-2.9196,-2.9907,-3.0587,-3.0353,-2.9257,-2.7096,-2.6077,-2.4699,-2.3189,-2.2182,-2.1679,-2.2,-2.2705,-2.4238,-2.5675,-2.6689,-2.7356,-2.9033,-2.8952,-2.9391,-3.0069,-3.0042,-2.9881,-2.9895,-2.9822,-2.9807,-2.9764,-2.969,-2.9661,-2.9617,-2.9427,-2.9032,-2.8593,-2.8505,-2.8344,-2.8125,-2.8022,-2.7993,-2.7817,-2.7188,-2.691,-2.6793,-2.6808,-2.672,-2.6676,-2.6793,-2.6881,-2.7013,-2.7276,-2.7422,-2.7437,-2.7364,-2.713,-2.6983,-2.6808,-2.6954,-2.713,-2.7276,-2.7627,-2.7847,-2.7891,-2.7949,-2.7993,-2.7934,-2.7847,-2.792,-2.8022,-2.8022,-2.7993,-2.8071,-2.8477,-2.8926,-2.9133,-2.9454,-2.986,-3.0362,-3.0648,-2.1806,-2.1603,-2.1449,-2.1384,-2.1384,-2.1384,-2.1384,-2.1352,-2.1205,-2.1116,-2.1035,-2.0751,-2.0686,-2.0669,-2.045,-2.0361,-2.0377,-2.0369,-2.0377,-2.045,-2.0418,-2.0409,-2.032,-2.0434,-2.0643,-2.0406,-2.0569,-2.159,-2.2487,-2.2031,-2.313,-2.4798,-2.3983,-2.3405,-2.423,-2.4721,-2.5318,-2.5967,-2.7804,-2.8716,-2.8666,-2.8686,-2.7536,-2.5127,-2.4441,-2.3399,-2.1807,-2.1327,-2.1481,-2.1861,-2.2141,-2.2968,-2.4008,-2.5196,-2.629,-2.7354,-2.8217,-2.9035,-2.9972,-3.0378,-3.0144,-2.9954,-2.9983,-2.9954,-2.9939,-2.991,-2.9998,-2.9822,-2.9603,-2.9237,-2.8871,-2.8783,-2.8651,-2.8461,-2.8344,-2.8271,-2.8037,-2.7788,-2.7642,-2.7598,-2.7422,-2.7174,-2.713,-2.7115,-2.7217,-2.7261,-2.7335,-2.7364,-2.7291,-2.7188,-2.7013,-2.6896,-2.6808,-2.7071,-2.7364,-2.7495,-2.77,-2.7993,-2.811,-2.8212,-2.8256,-2.833,-2.8359,-2.8344,-2.8344,-2.8344,-2.83,-2.8394,-2.8639,-2.92,-2.9379,-2.939,-3.015,-3.0902,-3.1141,-2.1684,-2.1514,-2.1416,-2.1384,-2.1384,-2.1384,-2.1384,-2.1368,-2.1295,-2.1205,-2.11,-2.0945,-2.0856,-2.0815,-2.0702,-2.0596,-2.0572,-2.0491,-2.0515,-2.0588,-2.0596,-2.0564,-2.0474,-2.0669,-2.0612,-2.0483,-2.0561,-2.0976,-2.2174,-2.1546,-2.2351,-2.3265,-2.2642,-2.2501,-2.28,-2.3372,-2.3901,-2.4598,-2.6174,-2.7228,-2.7004,-2.7144,-2.56,-2.3952,-2.3138,-2.2307,-2.1442,-2.1093,-2.1258,-2.1654,-2.2049,-2.2211,-2.2666,-2.3432,-2.4617,-2.5718,-2.7349,-2.8614,-2.9593,-3.0294,-3.1037,-3.0934,-3.0832,-3.0773,-3.0671,-3.0627,-3.0422,-3.0115,-2.9807,-2.9486,-2.9178,-2.9017,-2.8827,-2.871,-2.8681,-2.8608,-2.8447,-2.83,-2.8315,-2.833,-2.7964,-2.7671,-2.751,-2.7525,-2.7583,-2.7554,-2.7495,-2.7378,-2.7261,-2.7203,-2.7144,-2.7203,-2.7217,-2.7525,-2.7788,-2.7876,-2.7978,-2.8198,-2.8344,-2.8447,-2.852,-2.8593,-2.8637,-2.8666,-2.8666,-2.8622,-2.8578,-2.8505,-2.8907,-2.929,-2.9427,-2.9714,-3.0772,-3.1443,-3.1649,-2.1611,-2.1441,-2.14,-2.1384,-2.1384,-2.1384,-2.1384,-2.1384,-2.1376,-2.1303,-2.1181,-2.1092,-2.101,-2.097,-2.0921,-2.088,-2.0848,-2.0694,-2.0726,-2.0783,-2.0775,-2.0702,-2.0661,-2.0718,-2.0751,-2.0686,-2.0775,-2.1093,-2.1578,-2.1449,-2.2025,-2.2645,-2.2856,-2.2907,-2.2623,-2.3236,-2.3414,-2.3886,-2.483,-2.5452,-2.567,-2.5137,-2.3989,-2.228,-2.2053,-2.175,-2.1253,-2.1178,-2.1215,-2.1548,-2.1723,-2.2083,-2.1586,-2.2142,-2.2951,-2.4086,-2.6594,-2.7933,-2.9044,-3.0279,-3.121,-3.1237,-3.1568,-3.1593,-3.1315,-3.1022,-3.089,-3.0437,-3.0129,-2.9822,-2.9515,-2.9266,-2.9149,-2.912,-2.912,-2.9076,-2.9017,-2.8915,-2.8798,-2.8666,-2.8359,-2.8212,-2.8095,-2.792,-2.7978,-2.7891,-2.7817,-2.77,-2.7583,-2.7569,-2.7569,-2.7656,-2.7788,-2.8066,-2.8271,-2.8359,-2.8447,-2.8593,-2.8651,-2.871,-2.8769,-2.8827,-2.8871,-2.8871,-2.8827,-2.8783,-2.8769,-2.8754,-2.899,-2.9333,-2.9458,-2.99,-3.0964,-3.162,-3.1999,-2.1798,-2.1611,-2.1449,-2.1384,-2.1384,-2.1384,-2.1384,-2.1384,-2.1384,-2.1376,-2.1311,-2.1067,-2.1075,-2.1189,-2.1124,-2.1002,-2.0889,-2.0824,-2.0807,-2.0856,-2.0929,-2.0905,-2.088,-2.1165,-2.101,-2.0897,-2.101,-2.0962,-2.116,-2.1424,-2.1665,-2.2078,-2.2515,-2.2775,-2.2983,-2.3605,-2.3967,-2.3508,-2.471,-2.5009,-2.4115,-2.3252,-2.2538,-2.1973,-2.1801,-2.1677,-2.1433,-2.1329,-2.13,-2.1404,-2.1449,-2.1458,-2.1573,-2.2359,-2.2241,-2.2596,-2.4139,-2.6402,-2.7801,-2.9785,-3.0972,-3.1179,-3.1411,-3.148,-3.1461,-3.1124,-3.0832,-3.0422,-3.029,-3.0144,-2.9866,-2.9749,-2.9734,-2.9676,-2.9603,-2.9632,-2.9617,-2.9339,-2.9251,-2.9193,-2.8944,-2.8856,-2.8769,-2.8549,-2.8359,-2.8256,-2.8139,-2.7993,-2.7905,-2.7876,-2.7891,-2.7978,-2.8125,-2.8388,-2.852,-2.8651,-2.8739,-2.8886,-2.8959,-2.8973,-2.9017,-2.9047,-2.9017,-2.9003,-2.8988,-2.9017,-2.9047,-2.9174,-2.9227,-2.9479,-2.9743,-3.0391,-3.1168,-3.1763,-3.2364,-2.1668,-2.1498,-2.1416,-2.1384,-2.1384,-2.1384,-2.1384,-2.1384,-2.1384,-2.1384,-2.136,-2.1238,-2.1197,-2.1222,-2.1148,-2.1027,-2.088,-2.0864,-2.0856,-2.0864,-2.0954,-2.0945,-2.0929,-2.11,-2.1108,-2.1116,-2.1165,-2.1246,-2.13,-2.1506,-2.1915,-2.2589,-2.269,-2.2968,-2.3184,-2.3769,-2.3769,-2.3711,-2.3962,-2.3908,-2.3256,-2.2688,-2.234,-2.2132,-2.1924,-2.1773,-2.165,-2.1593,-2.1556,-2.1641,-2.1546,-2.1556,-2.166,-2.2115,-2.2115,-2.1933,-2.332,-2.5054,-2.6759,-2.9171,-3.0478,-3.1245,-3.184,-3.2427,-3.1929,-3.1388,-3.1066,-3.092,-3.0539,-3.032,-3.0144,-2.9968,-2.9881,-2.9881,-2.9983,-2.9939,-2.9925,-2.9793,-2.9632,-2.9588,-2.9529,-2.9383,-2.9193,-2.8871,-2.8593,-2.8388,-2.8286,-2.8183,-2.8125,-2.8125,-2.8169,-2.8242,-2.8417,-2.8622,-2.871,-2.8783,-2.8842,-2.8973,-2.9193,-2.9208,-2.9251,-2.9266,-2.9281,-2.9281,-2.931,-2.9339,-2.9354,-2.9178,-2.9159,-2.9748,-3.0227,-3.0928,-3.1461,-3.2188,-3.2793,-2.1546,-2.1384,-2.1384,-2.1384,-2.1384,-2.1384,-2.1384,-2.1384,-2.1384,-2.1384,-2.1384,-2.136,-2.1278,-2.1181,-2.1173,-2.114,-2.101,-2.0986,-2.0986,-2.0986,-2.0986,-2.101,-2.1067,-2.1165,-2.1213,-2.1189,-2.1287,-2.1343,-2.1505,-2.1566,-2.1985,-2.2848,-2.2988,-2.3317,-2.3416,-2.3776,-2.3748,-2.3559,-2.3455,-2.3441,-2.2992,-2.2841,-2.2699,-2.2519,-2.2312,-2.2094,-2.1962,-2.1801,-2.1773,-2.1858,-2.1782,-2.1763,-2.1867,-2.1952,-2.2164,-2.2087,-2.2941,-2.3899,-2.5881,-2.8001,-3.0162,-3.129,-3.2369,-3.2719,-3.228,-3.1739,-3.1432,-3.1388,-3.0964,-3.07,-3.0539,-3.0334,-3.0232,-3.0246,-3.0276,-3.0188,-3.0115,-3.0129,-3.0056,-2.9925,-2.9851,-2.9764,-2.9529,-2.9149,-2.8842,-2.8564,-2.8432,-2.8388,-2.8461,-2.8578,-2.871,-2.8842,-2.8812,-2.9017,-2.912,-2.9134,-2.9105,-2.9134,-2.9339,-2.9471,-2.9529,-2.9603,-2.9661,-2.9661,-2.9647,-2.9617,-2.9617,-2.9339,-2.9262,-2.9873,-3.046,-3.1182,-3.191,-3.2629,-3.3127,-2.1555,-2.1384,-2.1384,-2.1384,-2.1384,-2.1384,-2.1384,-2.1384,-2.1384,-2.1384,-2.1384,-2.1376,-2.1295,-2.1205,-2.1278,-2.1327,-2.1327,-2.1343,-2.1303,-2.1303,-2.1335,-2.1287,-2.1295,-2.1311,-2.1343,-2.1343,-2.1376,-2.1376,-2.1376,-2.1327,-2.1632,-2.2173,-2.2832,-2.3187,-2.3538,-2.3676,-2.3965,-2.3795,-2.3672,-2.3474,-2.3228,-2.3068,-2.3001,-2.2897,-2.2614,-2.2359,-2.2349,-2.2075,-2.1962,-2.2094,-2.1962,-2.1934,-2.2056,-2.2113,-2.2104,-2.2278,-2.2354,-2.3138,-2.4546,-2.6899,-2.8787,-2.9716,-3.1194,-3.263,-3.2295,-3.2046,-3.1812,-3.1754,-3.1417,-3.1256,-3.1139,-3.0993,-3.0861,-3.0803,-3.0846,-3.0861,-3.0788,-3.0685,-3.0568,-3.0334,-3.0203,-3.0159,-3.0129,-2.9822,-2.9471,-2.9193,-2.9164,-2.9134,-2.9266,-2.9383,-2.95,-2.9544,-2.9369,-2.9456,-2.9661,-2.9632,-2.9442,-2.9515,-2.9705,-2.9778,-2.9837,-2.9925,-3.0086,-2.9998,-2.9968,-2.991,-2.9851,-2.969,-2.9792,-3.0144,-3.0674,-3.1518,-3.2251,-3.2991,-3.3413,-2.1449,-2.1384,-2.1384,-2.1384,-2.1384,-2.1384,-2.1384,-2.1384,-2.1384,-2.1384,-2.1384,-2.1376,-2.1352,-2.1319,-2.1335,-2.1384,-2.1384,-2.1384,-2.1384,-2.1384,-2.1376,-2.1384,-2.1384,-2.1384,-2.1376,-2.1384,-2.1384,-2.1384,-2.1384,-2.1384,-2.136,-2.1891,-2.2397,-2.2671,-2.3036,-2.3445,-2.3741,-2.4088,-2.4013,-2.3899,-2.3805,-2.3502,-2.3398,-2.3361,-2.2992,-2.2794,-2.2737,-2.251,-2.2444,-2.2387,-2.2245,-2.2217,-2.2227,-2.2255,-2.2208,-2.2123,-2.2208,-2.2373,-2.3119,-2.5794,-2.8241,-3.0399,-3.1568,-3.209,-3.2083,-3.2207,-3.2295,-3.2134,-3.1988,-3.1841,-3.1607,-3.1666,-3.1695,-3.1549,-3.149,-3.152,-3.1388,-3.1227,-3.111,-3.0861,-3.0729,-3.0642,-3.0627,-3.0583,-3.0217,-2.9881,-2.9881,-2.9881,-2.9939,-2.9968,-3.0012,-2.9983,-2.9807,-2.9749,-2.9939,-2.9866,-2.9734,-2.9895,-3.0071,-3.0115,-3.0188,-3.0422,-3.0525,-3.0407,-3.0305,-3.0276,-3.0217,-3.0115,-3.0277,-3.0351,-3.0973,-3.1971,-3.2725,-3.3321,-3.3565,-2.1384,-2.1384,-2.1384,-2.1384,-2.1384,-2.1384,-2.1384,-2.1384,-2.1384,-2.1384,-2.1384,-2.1384,-2.1384,-2.1384,-2.1384,-2.1384,-2.1384,-2.1384,-2.1384,-2.1384,-2.1384,-2.1384,-2.1384,-2.1384,-2.1384,-2.1384,-2.1384,-2.1384,-2.1384,-2.1384,-2.1368,-2.1554,-2.1707,-2.1999,-2.2578,-2.2938,-2.3554,-2.3945,-2.414,-2.4306,-2.4202,-2.3984,-2.3824,-2.3776,-2.3483,-2.3275,-2.3143,-2.2916,-2.2727,-2.2623,-2.2491,-2.2387,-2.2378,-2.2368,-2.2312,-2.2236,-2.216,-2.2094,-2.2847,-2.496,-2.814,-3.0398,-3.1218,-3.1637,-3.1777,-3.2133,-3.2232,-3.2632,-3.25,-3.2368,-3.2163,-3.2324,-3.2193,-3.1973,-3.209,-3.2105,-3.1812,-3.1622,-3.1534,-3.1402,-3.1285,-3.1183,-3.1183,-3.1154,-3.0817,-3.0481,-3.0349,-3.032,-3.032,-3.0334,-3.0305,-3.0246,-3.0115,-3.0115,-3.0159,-3.0115,-3.01,-3.029,-3.0437,-3.0466,-3.0568,-3.0788,-3.0832,-3.0671,-3.0598,-3.0627,-3.0568,-3.0451,-3.0451,-3.0481,-3.1497,-3.237,-3.3124,-3.3707,-3.4016,-2.1384,-2.1384,-2.1384,-2.1384,-2.1384,-2.1384,-2.1384,-2.1384,-2.1384,-2.1384,-2.1384,-2.1384,-2.1384,-2.1384,-2.1384,-2.1384,-2.1384,-2.1384,-2.1384,-2.1384,-2.1384,-2.1384,-2.1384,-2.1384,-2.1384,-2.1384,-2.1384,-2.1384,-2.1384,-2.1384,-2.1384,-2.1384,-2.1562,-2.1765,-2.2227,-2.2892,-2.324,-2.3737,-2.3718,-2.4047,-2.4362,-2.4258,-2.4211,-2.4135,-2.3918,-2.3691,-2.3521,-2.319,-2.2973,-2.2822,-2.2623,-2.2501,-2.2444,-2.2444,-2.2406,-2.2359,-2.2349,-2.2349,-2.274,-2.527,-2.7594,-2.9917,-3.0451,-3.1047,-3.1386,-3.1777,-3.2096,-3.267,-3.2805,-3.2983,-3.2968,-3.2968,-3.2719,-3.2515,-3.2617,-3.2529,-3.2251,-3.1973,-3.1871,-3.1768,-3.1768,-3.1754,-3.1754,-3.1666,-3.1373,-3.1095,-3.0876,-3.0788,-3.0744,-3.0627,-3.0554,-3.051,-3.0407,-3.0437,-3.0451,-3.0437,-3.0481,-3.0685,-3.0846,-3.092,-3.089,-3.0949,-3.0949,-3.0876,-3.0861,-3.0876,-3.0846,-3.0803,-3.1028,-3.1268,-3.1948,-3.28,-3.3516,-3.4128,-3.4318,-2.1384,-2.1384,-2.1384,-2.1384,-2.1384,-2.1384,-2.1384,-2.1384,-2.1384,-2.1384,-2.1384,-2.1384,-2.1384,-2.1384,-2.1384,-2.1384,-2.1384,-2.1384,-2.1384,-2.1384,-2.1384,-2.1384,-2.1384,-2.1384,-2.1384,-2.1384,-2.1384,-2.1384,-2.1384,-2.1384,-2.1384,-2.1384,-2.1384,-2.1823,-2.2261,-2.2699,-2.2866,-2.3702,-2.3901,-2.4081,-2.4655,-2.4551,-2.4476,-2.4457,-2.4173,-2.3975,-2.3852,-2.3474,-2.3219,-2.3077,-2.2879,-2.2718,-2.2623,-2.2605,-2.2548,-2.2453,-2.2397,-2.317,-2.3951,-2.5614,-2.6523,-2.814,-2.9532,-3.013,-3.0136,-3.1757,-3.2169,-3.256,-3.3176,-3.3387,-3.3554,-3.3715,-3.3539,-3.3085,-3.2997,-3.2851,-3.2617,-3.2339,-3.2149,-3.2046,-3.2002,-3.1915,-3.1885,-3.2046,-3.1856,-3.1607,-3.1373,-3.1198,-3.1124,-3.089,-3.0744,-3.0744,-3.07,-3.0729,-3.0759,-3.0832,-3.0905,-3.1066,-3.13,-3.149,-3.1432,-3.1242,-3.1183,-3.1168,-3.1139,-3.1095,-3.1081,-3.1095,-3.1792,-3.2263,-3.2753,-3.3414,-3.4186,-3.4636,-3.4779,-2.1384,-2.1384,-2.1384,-2.1384,-2.1384,-2.1384,-2.1384,-2.1384,-2.1384,-2.1384,-2.1384,-2.1384,-2.1384,-2.1384,-2.1384,-2.1384,-2.1384,-2.1384,-2.1384,-2.1384,-2.1384,-2.1384,-2.1384,-2.1384,-2.1384,-2.1384,-2.1384,-2.1384,-2.1384,-2.1384,-2.1384,-2.1384,-2.1384,-2.1603,-2.1823,-2.2042,-2.2472,-2.311,-2.332,-2.3547,-2.3937,-2.4316,-2.4467,-2.4402,-2.4243,-2.4268,-2.4098,-2.3824,-2.3512,-2.3398,-2.32,-2.2983,-2.286,-2.2794,-2.2746,-2.2642,-2.312,-2.367,-2.4566,-2.5895,-2.6624,-2.7203,-2.8618,-2.918,-2.9717,-3.1076,-3.1895,-3.2577,-3.3484,-3.3838,-3.3993,-3.4212,-3.3963,-3.348,-3.3232,-3.3085,-3.2851,-3.2573,-3.2471,-3.2368,-3.228,-3.2163,-3.209,-3.2251,-3.2339,-3.2105,-3.1871,-3.1695,-3.1505,-3.1256,-3.1081,-3.1081,-3.1124,-3.1183,-3.1256,-3.1344,-3.1402,-3.1461,-3.1651,-3.1885,-3.1739,-3.1534,-3.1505,-3.1476,-3.1446,-3.1402,-3.1329,-3.1557,-3.1934,-3.2453,-3.3117,-3.3971,-3.4846,-3.5065,-3.5097,-2.1384,-2.1384,-2.1384,-2.1384,-2.1384,-2.1384,-2.1384,-2.1384,-2.1384,-2.1384,-2.1384,-2.1384,-2.1384,-2.1384,-2.1384,-2.1384,-2.1384,-2.1384,-2.1408,-2.1416,-2.1441,-2.1425,-2.1425,-2.1425,-2.1416,-2.1392,-2.1384,-2.1384,-2.1384,-2.1384,-2.1384,-2.1384,-2.1384,-2.1384,-2.1603,-2.1603,-2.2034,-2.2472,-2.2699,-2.2918,-2.3328,-2.3774,-2.3955,-2.391,-2.427,-2.4374,-2.4196,-2.4135,-2.388,-2.3644,-2.3351,-2.3172,-2.3068,-2.3039,-2.303,-2.3145,-2.3789,-2.4037,-2.4691,-2.6037,-2.6987,-2.7615,-2.8331,-2.8882,-2.9621,-3.0661,-3.1556,-3.2459,-3.3472,-3.3871,-3.4271,-3.4168,-3.4051,-3.3715,-3.3436,-3.3217,-3.2983,-3.2837,-3.2793,-3.2734,-3.2676,-3.2602,-3.2559,-3.2661,-3.2602,-3.25,-3.228,-3.2163,-3.1959,-3.1695,-3.1549,-3.1549,-3.1607,-3.1681,-3.1739,-3.1724,-3.1798,-3.1812,-3.1915,-3.2076,-3.1929,-3.1871,-3.1827,-3.1798,-3.1783,-3.1768,-3.1827,-3.2043,-3.2102,-3.2797,-3.3482,-3.4062,-3.4894,-3.502,-3.5224,-2.1384,-2.1384,-2.1384,-2.1384,-2.1384,-2.1384,-2.1384,-2.1384,-2.1384,-2.1384,-2.1384,-2.1384,-2.1384,-2.1384,-2.1384,-2.1384,-2.1384,-2.14,-2.149,-2.153,-2.1571,-2.1579,-2.1571,-2.1555,-2.1498,-2.1416,-2.1384,-2.1384,-2.1384,-2.1384,-2.1384,-2.1384,-2.1384,-2.1384,-2.1384,-2.1384,-2.1823,-2.2042,-2.2261,-2.248,-2.2918,-2.3137,-2.3355,-2.3556,-2.3901,-2.4035,-2.3906,-2.4121,-2.4126,-2.4031,-2.3956,-2.3852,-2.3691,-2.354,-2.3389,-2.3039,-2.3346,-2.3898,-2.5231,-2.62,-2.7165,-2.8332,-2.8932,-2.8753,-2.9251,-3.0252,-3.1436,-3.2335,-3.3471,-3.426,-3.4417,-3.43,-3.4139,-3.389,-3.3671,-3.3539,-3.3319,-3.3173,-3.3129,-3.2997,-3.2954,-3.2807,-3.2807,-3.2749,-3.269,-3.2719,-3.2676,-3.2529,-3.2383,-3.212,-3.1988,-3.1988,-3.1959,-3.2017,-3.1988,-3.1973,-3.2076,-3.2163,-3.2266,-3.2354,-3.2368,-3.2295,-3.2193,-3.212,-3.2076,-3.2237,-3.2456,-3.2602,-3.244,-3.3141,-3.3656,-3.4196,-3.4719,-3.502,-3.5351,-2.1384,-2.1384,-2.1384,-2.1384,-2.1384,-2.1384,-2.1384,-2.1384,-2.1384,-2.1384,-2.1384,-2.1384,-2.1384,-2.1384,-2.1384,-2.1384,-2.1392,-2.1481,-2.1563,-2.1628,-2.1733,-2.1693,-2.1693,-2.1644,-2.1538,-2.1441,-2.1384,-2.1384,-2.1384,-2.1384,-2.1384,-2.1384,-2.1384,-2.1384,-2.1384,-2.1384,-2.1603,-2.1823,-2.2042,-2.2261,-2.248,-2.2699,-2.2699,-2.2892,-2.3213,-2.3403,-2.3584,-2.3842,-2.3973,-2.4149,-2.413,-2.4211,-2.4041,-2.3871,-2.3568,-2.347,-2.4456,-2.5152,-2.604,-2.7292,-2.8276,-2.9045,-2.9417,-2.9091,-2.9611,-3.0408,-3.1244,-3.1908,-3.3483,-3.4651,-3.4578,-3.4475,-3.4256,-3.4022,-3.3963,-3.3905,-3.3729,-3.3539,-3.3393,-3.3232,-3.3085,-3.2924,-3.2851,-3.2807,-3.2763,-3.2763,-3.2749,-3.2705,-3.2617,-3.2485,-3.2383,-3.2368,-3.231,-3.2295,-3.2266,-3.2266,-3.2354,-3.2456,-3.2529,-3.2632,-3.2719,-3.2661,-3.2485,-3.2398,-3.2354,-3.2515,-3.2676,-3.2632,-3.272,-3.3234,-3.3646,-3.4128,-3.4638,-3.5162,-3.5336,-2.1384,-2.1384,-2.1384,-2.1384,-2.1384,-2.1384,-2.1384,-2.1384,-2.1384,-2.1384,-2.1384,-2.1384,-2.1384,-2.1384,-2.1384,-2.1384,-2.1441,-2.1538,-2.162,-2.1676,-2.1823,-2.1814,-2.1693,-2.1652,-2.1546,-2.1441,-2.1384,-2.1384,-2.1384,-2.1384,-2.1384,-2.1384,-2.1384,-2.1384,-2.1384,-2.1384,-2.1384,-2.1603,-2.1603,-2.1603,-2.1603,-2.2042,-2.2261,-2.2261,-2.2682,-2.311,-2.3075,-2.3421,-2.3737,-2.3888,-2.4038,-2.414,-2.4239,-2.4088,-2.3767,-2.4019,-2.5235,-2.5951,-2.684,-2.8065,-2.8978,-2.9471,-2.9477,-2.9357,-2.9812,-3.087,-3.1646,-3.2016,-3.3351,-3.4551,-3.4695,-3.468,-3.4534,-3.4417,-3.4344,-3.4256,-3.4095,-3.389,-3.3671,-3.348,-3.3232,-3.3071,-3.2954,-3.291,-3.2778,-3.2763,-3.2763,-3.2763,-3.2763,-3.269,-3.269,-3.2661,-3.2573,-3.2515,-3.2573,-3.2588,-3.2646,-3.2734,-3.2763,-3.2749,-3.2749,-3.2749,-3.2763,-3.2646,-3.2544,-3.2632,-3.2734,-3.269,-3.2676,-3.2896,-3.3293,-3.3646,-3.4349,-3.4875,-3.5399,-2.1384,-2.1384,-2.1384,-2.1384,-2.1384,-2.1384,-2.1384,-2.1384,-2.1384,-2.1384,-2.1384,-2.1384,-2.1384,-2.1384,-2.1384,-2.1384,-2.1425,-2.1563,-2.1644,-2.1717,-2.1855,-2.1831,-2.1693,-2.1652,-2.1546,-2.1441,-2.1384,-2.1384,-2.1384,-2.1384,-2.1384,-2.1384,-2.1384,-2.1384,-2.1384,-2.1384,-2.1384,-2.1384,-2.1384,-2.1384,-2.1384,-2.1384,-2.1603,-2.1823,-2.2042,-2.248,-2.2673,-2.2874,-2.3493,-2.391,-2.3901,-2.4233,-2.4513,-2.4306,-2.4154,-2.4251,-2.538,-2.6369,-2.7372,-2.8529,-2.946,-3.0011,-3.0081,-2.9864,-3.0194,-3.1374,-3.2024,-3.2382,-3.3233,-3.4233,-3.4841,-3.4841,-3.4827,-3.4768,-3.4695,-3.4563,-3.4432,-3.4212,-3.3963,-3.37,-3.3422,-3.3246,-3.3115,-3.2954,-3.2822,-3.2763,-3.2763,-3.2778,-3.2807,-3.2793,-3.2822,-3.2793,-3.2749,-3.2719,-3.2778,-3.2763,-3.2763,-3.2763,-3.2763,-3.2763,-3.2763,-3.2763,-3.2763,-3.2763,-3.2749,-3.2763,-3.2763,-3.2763,-3.2749,-3.294,-3.3117,-3.347,-3.3998,-3.47,-3.505,-2.1384,-2.1384,-2.1384,-2.1384,-2.1384,-2.1384,-2.1384,-2.1384,-2.1384,-2.1384,-2.1384,-2.1384,-2.1384,-2.1384,-2.1384,-2.1384,-2.1416,-2.1579,-2.1644,-2.1717,-2.1798,-2.179,-2.1725,-2.1644,-2.153,-2.1425,-2.1392,-2.1384,-2.1384,-2.1384,-2.1384,-2.1384,-2.1384,-2.1384,-2.1384,-2.1384,-2.1384,-2.1384,-2.1384,-2.1384,-2.1384,-2.1384,-2.1384,-2.1603,-2.1603,-2.1823,-2.2042,-2.248,-2.2909,-2.3783,-2.3983,-2.4307,-2.4598,-2.4466,-2.4353,-2.4702,-2.5279,-2.6344,-2.7607,-2.8588,-2.948,-3.0189,-3.0371,-3.0033,-3.0191,-3.1202,-3.2124,-3.2681,-3.3837,-3.5017,-3.49,-3.4871,-3.4841,-3.4797,-3.4739,-3.4651,-3.4592,-3.449,-3.4241,-3.4007,-3.3715,-3.3422,-3.3232,-3.2924,-3.2822,-3.2837,-3.2822,-3.2983,-3.2983,-3.2968,-3.2968,-3.2924,-3.288,-3.2807,-3.2763,-3.2763,-3.2763,-3.2763,-3.2763,-3.2763,-3.2763,-3.2763,-3.2763,-3.2763,-3.2763,-3.2763,-3.2763,-3.2807,-3.2778,-3.2763,-3.3117,-3.3293,-3.3837,-3.454,-3.4875,-2.1384,-2.1384,-2.1384,-2.1384,-2.1384,-2.1384,-2.1384,-2.1384,-2.1384,-2.1384,-2.1384,-2.1384,-2.1384,-2.1384,-2.1384,-2.1384,-2.1441,-2.1587,-2.1644,-2.166,-2.1798,-2.1717,-2.1644,-2.1595,-2.149,-2.1425,-2.1384,-2.1384,-2.1384,-2.1384,-2.1384,-2.1384,-2.1384,-2.1384,-2.1384,-2.1384,-2.1384,-2.1384,-2.1384,-2.1384,-2.1384,-2.1384,-2.1384,-2.1384,-2.1384,-2.1384,-2.1603,-2.1823,-2.2472,-2.3128,-2.3792,-2.4145,-2.4251,-2.4158,-2.4308,-2.4447,-2.5312,-2.657,-2.76,-2.8789,-2.9654,-3.0284,-3.0202,-3.0368,-3.0338,-3.1285,-3.2221,-3.3048,-3.4411,-3.5222,-3.5119,-3.5017,-3.4988,-3.49,-3.4856,-3.4753,-3.4724,-3.4695,-3.449,-3.4256,-3.3993,-3.3671,-3.3422,-3.31,-3.2968,-3.2968,-3.3041,-3.3202,-3.3305,-3.3276,-3.3261,-3.3144,-3.3027,-3.2939,-3.2807,-3.2763,-3.2763,-3.2763,-3.2763,-3.2763,-3.2763,-3.2763,-3.2763,-3.2763,-3.2763,-3.2793,-3.2866,-3.2924,-3.288,-3.2866,-3.3087,-3.3309,-3.3958,-3.4472,-3.4731,-2.1384,-2.1384,-2.1384,-2.1384,-2.1384,-2.1384,-2.1384,-2.1384,-2.1384,-2.1384,-2.1384,-2.1384,-2.1384,-2.1384,-2.1384,-2.1384,-2.1408,-2.1563,-2.1522,-2.1481,-2.1636,-2.1571,-2.1506,-2.149,-2.1425,-2.1392,-2.1384,-2.1384,-2.1384,-2.1384,-2.1384,-2.1384,-2.1384,-2.1384,-2.1384,-2.1384,-2.1384,-2.1384,-2.1384,-2.1384,-2.1384,-2.1384,-2.1384,-2.1384,-2.1384,-2.1384,-2.1384,-2.1384,-2.1823,-2.248,-2.3137,-2.3538,-2.3475,-2.3611,-2.3557,-2.4214,-2.5077,-2.6357,-2.76,-2.8779,-2.9653,-3.067,-3.0624,-3.0395,-3.0974,-3.1939,-3.2577,-3.3143,-3.4353,-3.5584,-3.5661,-3.5529,-3.5456,-3.5251,-3.5134,-3.49,-3.4753,-3.4724,-3.4622,-3.4446,-3.4271,-3.408,-3.3949,-3.3671,-3.3451,-3.3466,-3.3495,-3.3627,-3.3641,-3.3597,-3.3554,-3.3378,-3.3202,-3.2997,-3.2837,-3.2778,-3.2763,-3.2763,-3.2763,-3.2763,-3.2763,-3.2763,-3.2763,-3.2763,-3.2807,-3.2851,-3.2924,-3.2954,-3.3129,-3.3129,-3.3158,-3.3337,-3.3962,-3.4549,-3.4762]}]]